[[{"header":{"parameterUnit":"m.s-1","parameterCategory":1,"la1":31.0,"la2":29.5877,"lo1":-88.7671,"lo2":-86.6584,"dy":0.0162,"dx":0.0185,"nx":115,"ny":88,"refTime":"2023-09-11T12:00:00:Z","depth":0,"parameterNumber":2,"parameterNumberName":"U-component_of_WINDS"},"data":[0.0,0.0,0.0,0.0,0.0,0.0,0.0,0.0,0.0,0.0,0.0,0.0,0.0,0.0,0.0,0.0,0.0,0.0,0.0,0.0,0.0,0.0,0.0,0.0,0.0,0.0,0.0,0.0,0.0,0.0,0.0,0.0,0.0,0.0,0.0,0.0,0.0,0.0,0.0,0.0,0.0,0.0,0.0,0.0,0.0,0.0,0.0,0.0,0.0,0.0,0.0,0.0,0.0,0.0,0.0,0.0,0.0,0.0,0.0,0.0,0.0,0.0,0.0,0.0,0.0,0.0,0.0,0.0,0.0,0.0,0.0,0.0,0.0,0.0,0.0,0.0,0.0,0.0,0.0,0.0,0.0,0.0,0.0,0.0,0.0,0.0,0.0,0.0,0.0,0.0,0.0,0.0,0.0,0.0,0.0,0.0,0.0,0.0,0.0,0.0,0.0,0.0,0.0,0.0,0.0,0.0,0.0,0.0,0.0,0.0,0.0,0.0,0.0,0.0,0.0,0.0,0.0,0.0,0.0,0.0,0.0,0.0,0.0,0.0,0.0,0.0,0.0,0.0,0.0,0.0,0.0,0.0,0.0,0.0,0.0,0.0,0.0,0.0,0.0,0.0,0.0,0.0,0.0,0.0,0.0,0.0,0.0,0.0,0.0,0.0,0.0,0.0,0.0,0.0,0.0,0.0,0.0,0.0,0.0,0.0,0.0,0.0,0.0,0.0,0.0,0.0,0.0,0.0,0.0,0.0,0.0,0.0,0.0,0.0,0.0,0.0,0.0,0.0,0.0,0.0,0.0,0.0,0.0,0.0,0.0,0.0,0.0,0.0,0.0,0.0,0.0,0.0,0.0,0.0,0.0,0.0,0.0,0.0,0.0,0.0,0.0,0.0,0.0,0.0,0.0,0.0,0.0,0.0,0.0,0.0,0.0,0.0,0.0,0.0,0.0,0.0,0.0,0.0,0.0,0.0,0.0,0.0,0.0,0.0,0.0,0.0,0.0,0.0,0.0,0.0,0.0,0.0,0.0,0.0,0.0,0.0,0.0,0.0,0.0,0.0,0.0,0.0,0.0,0.0,0.0,0.0,0.0,0.0,0.0,0.0,0.0,0.0,0.0,0.0,0.0,0.0,0.0,0.0,0.0,0.0,0.0,0.0,0.0,0.0,0.0,0.0,0.0,0.0,0.0,0.0,0.0,0.0,0.0,0.0,0.0,0.0,0.0,0.0,0.0,0.0,0.0,0.0,0.0,0.0,0.0,0.0,0.0,0.0,0.0,0.0,0.0,0.0,0.0,0.0,0.0,0.0,0.0,0.0,0.0,0.0,0.0,0.0,0.0,0.0,0.0,0.0,0.0,0.0,0.0,0.0,0.0,0.0,0.0,0.0,0.0,0.0,0.0,0.0,0.0,0.0,0.0,0.0,0.0,0.0,0.0,0.0,0.0,0.0,0.0,0.0,0.0,0.0,0.0,0.0,0.0,0.0,0.0,0.0,0.0,0.0,0.0,0.0,0.0,0.0,0.0,0.0,0.0,0.0,0.0,0.0,0.0,0.0,0.0,0.0,0.0,0.0,0.0,0.0,0.0,0.0,0.0,0.0,0.0,0.0,0.0,0.0,0.0,0.0,0.0,0.0,0.0,0.0,0.0,0.0,0.0,0.0,0.0,0.0,0.0,0.0,0.0,0.0,0.0,0.0,0.0,0.0,0.0,0.0,0.0,0.0,0.0,0.0,0.0,0.0,0.0,0.0,0.0,0.0,0.0,0.0,0.0,0.0,0.0,0.0,0.0,0.0,0.0,0.0,0.0,0.0,0.0,0.0,0.0,0.0,0.0,0.0,0.0,0.0,0.0,0.0,0.0,0.0,0.0,0.0,0.0,0.0,0.0,0.0,0.0,0.0,0.0,0.0,0.0,0.0,0.0,0.0,0.0,0.0,0.0,0.0,0.0,0.0,0.0,0.0,0.0,0.0,0.0,0.0,0.0,0.0,0.0,0.0,0.0,0.0,0.0,0.0,0.0,0.0,0.0,0.0,0.0,0.0,0.0,0.0,0.0,0.0,0.0,0.0,0.0,0.0,0.0,0.0,0.0,0.0,0.0,0.0,0.0,0.0,0.0,0.0,0.0,0.0,0.0,0.0,0.0,0.0,0.0,0.0,0.0,0.0,0.0,0.0,0.0,0.0,0.0,0.0,0.0,0.0,0.0,0.0,0.0,0.0,0.0,0.0,0.0,0.0,0.0,0.0,0.0,0.0,0.0,0.0,0.0,0.0,0.0,0.0,0.0,0.0,0.0,0.0,0.0,0.0,0.0,0.0,0.0,0.0,0.0,0.0,0.0,0.0,0.0,0.0,0.0,0.0,0.0,0.0,0.0,0.0,0.0,0.0,0.0,0.0,0.0,0.0,0.0,0.0,0.0,0.0,0.0,0.0,0.0,0.0,0.0,0.0,0.0,0.0,0.0,0.0,0.0,0.0,0.0,0.0,0.0,0.0,0.0,0.0,0.0,0.0,0.0,0.0,0.0,0.0,0.0,0.0,0.0,0.0,0.0,0.0,0.0,0.0,0.0,0.0,0.0,0.0,0.0,0.0,0.0,0.0,0.0,0.0,0.0,0.0,0.0,0.0,0.0,0.0,0.0,0.0,0.0,0.0,0.0,0.0,0.0,0.0,0.0,0.0,0.0,0.0,0.0,0.0,0.0,0.0,0.0,0.0,0.0,0.0,0.0,0.0,0.0,0.0,0.0,0.0,0.0,0.0,0.0,0.0,0.0,0.0,0.0,0.0,0.0,0.0,0.0,0.0,0.0,0.0,0.0,0.0,0.0,0.0,0.0,0.0,0.0,0.0,0.0,0.0,0.0,0.0,0.0,0.0,0.0,0.0,0.0,0.0,0.0,0.0,0.0,0.0,0.0,0.0,0.0,0.0,0.0,0.0,0.0,0.0,0.0,0.0,0.0,0.0,0.0,0.0,0.0,0.0,0.0,0.0,0.0,0.0,0.0,0.0,0.0,0.0,0.0,0.0,0.0,0.0,0.0,0.0,0.0,0.0,0.0,0.0,0.0,0.0,0.0,0.0,0.0,0.0,0.0,0.0,0.0,0.0,0.0,0.0,0.0,0.0,0.0,0.0,0.0,0.0,0.0,0.0,0.0,0.0,0.0,0.0,0.0,0.0,0.0,0.0,0.0,0.0,0.0,0.0,0.0,0.0,0.0,0.0,0.0,0.0,0.0,0.0,0.0,0.0,0.0,0.0,0.0,0.0,0.0,0.0,0.0,0.0,0.0,0.0,0.0,0.0,0.0,0.0,0.0,0.0,0.0,0.0,0.0,0.0,0.0,0.0,0.0,0.0,0.0,0.0,0.0,0.0,0.0,0.0,0.0,0.0,0.0,0.0,0.0,0.0,0.0,0.0,0.0,0.0,0.0,0.0,0.0,0.0,0.0,0.0,0.0,0.0,0.0,0.0,0.0,0.0,0.0,0.0,0.0,0.0,0.0,0.0,0.0,0.0,0.0,0.0,0.0,0.0,0.0,0.0,0.0,0.0,0.0,0.0,0.0,0.0,0.0,0.0,0.0,0.0,0.0,0.0,0.0,0.0,0.0,0.0,0.0,0.0,0.0,0.0,0.0,0.0,0.0,0.0,0.0,0.0,0.0,0.0,0.0,0.0,0.0,0.0,0.0,0.0,0.0,0.0,0.0,0.0,0.0,0.0,0.0,0.0,0.0,0.0,0.0,0.0,0.0,0.0,0.0,0.0,0.0,0.0,0.0,0.0,0.0,0.0,0.0,0.0,0.0,0.0,0.0,0.0,0.0,0.0,0.0,0.0,0.0,0.0,0.0,0.0,0.0,0.0,0.0,0.0,0.0,0.0,0.0,0.0,0.0,0.0,0.0,0.0,0.0,0.0,0.0,0.0,0.0,0.0,0.0,0.0,0.0,0.0,0.0,0.0,0.0,0.0,0.0,0.0,0.0,0.0,0.0,0.0,0.0,0.0,0.0,0.0,0.0,0.0,0.0,0.0,0.0,0.0,0.0,0.0,0.0,0.0,0.0,0.0,0.0,0.0,0.0,0.0,0.0,0.0,0.0,0.0,0.0,0.0,0.0,0.0,0.0,0.0,0.0,0.0,0.0,0.0,0.0,0.0,0.0,0.0,0.0,0.0,0.0,0.0,0.0,0.0,0.0,0.0,0.0,0.0,0.0,0.0,0.0,0.0,0.0,0.0,0.0,0.0,0.0,0.0,0.0,0.0,0.0,0.0,0.0,0.0,1.5107,0.0,0.0,0.0,0.0,0.0,0.0,0.0,0.0,0.0,0.0,0.0,0.0,0.0,0.0,0.0,0.0,0.0,0.0,0.0,0.0,0.0,0.0,0.0,0.0,0.0,0.0,0.0,0.0,0.0,0.0,0.0,0.0,0.0,0.0,0.0,0.0,0.0,0.0,0.0,0.0,0.0,0.0,0.0,0.0,0.0,0.0,0.0,0.0,0.0,0.0,0.0,0.0,0.0,0.0,0.0,0.0,0.0,0.0,0.0,0.0,0.0,0.0,0.0,0.0,0.0,0.0,0.0,0.0,0.0,0.0,0.0,0.0,0.0,0.0,0.0,0.0,0.0,0.0,0.0,0.0,0.0,0.0,0.0,0.0,0.0,0.0,0.0,0.0,0.0,0.0,0.0,0.0,0.0,0.0,0.0,0.0,0.0,0.0,0.0,0.0,0.0,0.0,0.0,0.0,0.0,0.0,0.0,0.0,0.0,0.0,1.4077,1.4788,1.3933,1.4071,1.5302,0.0,0.0,0.0,0.0,0.0,0.0,0.0,0.0,0.0,0.0,0.0,0.0,0.0,0.0,0.0,0.0,0.0,0.0,0.0,0.0,0.0,0.0,0.0,0.0,0.0,0.0,0.0,0.0,0.0,0.0,0.0,0.0,0.0,0.0,0.0,0.0,0.0,0.0,0.0,0.0,0.0,0.0,0.0,0.0,0.0,0.0,0.0,0.0,0.0,0.0,0.0,0.0,0.0,0.0,0.0,0.0,0.0,0.0,0.0,0.0,0.0,0.0,0.0,0.0,0.0,0.0,0.0,0.0,0.0,0.0,0.0,0.0,0.0,0.0,0.0,0.0,0.0,0.0,0.0,0.0,0.0,0.0,0.0,0.0,0.0,0.0,0.0,0.0,0.0,0.0,0.0,0.0,0.0,0.0,0.0,0.0,0.0,0.0,0.0,0.0,0.0,0.0,0.0,0.0,0.0,0.0,0.0,0.0,0.0,0.0,0.0,0.0,1.4413,1.4501,1.5048,0.0,0.0,0.0,0.0,0.0,0.0,0.0,0.0,0.0,0.0,0.0,0.0,0.0,0.0,0.0,0.0,0.0,0.0,0.0,0.0,0.0,0.0,0.0,0.0,0.0,0.0,0.0,0.0,0.0,0.0,0.0,0.0,0.0,0.0,0.0,0.0,0.0,0.0,0.0,0.0,0.0,0.0,0.0,0.0,0.0,0.0,0.0,0.0,0.0,0.0,0.0,0.0,0.0,0.0,0.0,0.0,0.0,0.0,0.0,0.0,0.0,0.0,0.0,0.0,0.0,0.0,0.0,0.0,0.0,0.0,0.0,0.0,0.0,0.0,0.0,0.0,0.0,0.0,0.0,0.0,0.0,0.0,0.0,0.0,0.0,0.0,0.0,0.0,0.0,0.0,0.0,0.0,0.0,0.0,0.0,0.0,0.0,0.0,0.0,0.0,0.0,0.0,0.0,0.0,0.0,0.0,0.0,0.0,0.0,0.0,1.3607,1.4582,1.4865,0.0,1.4215,0.0,0.0,0.0,0.0,0.0,0.0,0.0,0.0,0.0,0.0,0.0,0.0,0.0,0.0,0.0,0.0,0.0,0.0,0.0,0.0,0.0,0.0,0.0,0.0,0.0,0.0,0.0,0.0,0.0,0.0,0.0,0.0,0.0,0.0,0.0,0.0,0.0,0.0,0.0,0.0,0.0,0.0,0.0,0.0,0.0,0.0,0.0,0.0,0.0,0.0,0.0,0.0,0.0,0.0,0.0,0.0,0.0,0.0,0.0,0.0,0.0,0.0,0.0,0.0,0.0,0.0,0.0,0.0,0.0,0.0,0.0,0.0,0.0,0.0,0.0,0.0,0.0,0.0,0.0,0.0,0.0,0.0,0.0,0.0,0.0,0.0,0.0,0.0,0.0,0.0,0.0,0.0,0.0,0.0,0.0,0.0,0.0,0.0,0.0,0.0,0.0,0.0,0.0,0.0,0.0,0.0,0.0,0.0,0.0,0.0,1.3735,1.4521,1.4934,1.5,0.0,0.0,0.0,0.0,0.0,0.0,0.0,0.0,0.0,0.0,0.0,0.0,0.0,0.0,0.0,0.0,0.0,0.0,0.0,0.0,0.0,0.0,0.0,0.0,0.0,0.0,0.0,0.0,0.0,0.0,0.0,0.0,0.0,0.0,0.0,0.0,0.0,0.0,0.0,0.0,0.0,0.0,0.0,0.0,0.0,0.0,0.0,0.0,0.0,0.0,0.0,0.0,0.0,0.0,0.0,0.0,0.0,0.0,0.0,0.0,0.0,0.0,0.0,0.0,0.0,0.0,0.0,0.0,0.0,0.0,0.0,0.0,0.0,0.0,0.0,0.0,0.0,0.0,0.0,0.0,0.0,0.0,0.0,0.0,0.0,0.0,0.0,0.0,0.0,0.0,0.0,0.0,0.0,0.0,0.0,0.0,0.0,0.0,0.0,0.0,0.0,0.0,0.0,0.0,0.0,0.0,0.0,0.0,0.0,0.0,1.2953,1.3086,1.41,1.4784,1.5122,1.5137,0.0,0.0,0.0,0.0,0.0,0.0,0.0,0.0,0.0,0.0,0.0,0.0,0.0,0.0,0.0,0.0,0.0,0.0,0.0,0.0,0.0,0.0,0.0,0.0,0.0,0.0,0.0,0.0,0.0,0.0,0.0,0.0,0.0,0.0,0.0,0.0,0.0,0.0,0.0,0.0,0.0,0.0,0.0,0.0,0.0,0.0,0.0,0.0,0.0,0.0,0.0,0.0,0.0,0.0,0.0,0.0,0.0,0.0,0.0,0.0,0.0,0.0,0.0,0.0,0.0,0.0,0.0,0.0,0.0,0.0,0.0,0.0,0.0,0.0,0.0,0.0,0.0,0.0,0.0,0.0,0.0,0.0,0.0,0.0,0.0,0.0,0.0,0.0,0.0,0.0,0.0,0.0,0.0,0.0,0.0,0.0,0.0,0.0,0.0,0.0,0.0,0.0,0.0,0.0,0.0,0.0,0.0,0.0,1.2606,1.1018,1.1098,1.3183,1.4319,1.4997,0.0,0.0,0.0,0.0,0.0,0.0,0.0,0.0,0.0,0.0,0.0,0.0,0.0,0.0,0.0,0.0,0.0,0.0,0.0,0.0,0.0,0.0,0.0,0.0,0.0,0.0,0.0,0.0,0.0,0.0,0.0,0.0,0.0,0.0,0.0,0.0,0.0,0.0,0.0,0.0,0.0,0.0,0.0,0.0,0.0,0.0,0.0,0.0,0.0,0.0,0.0,0.0,0.0,0.0,0.0,0.0,0.0,0.0,0.0,0.0,0.0,0.0,0.0,0.0,0.0,0.0,0.0,0.0,0.0,0.0,0.0,0.0,0.0,0.0,0.0,0.0,0.0,0.0,0.0,0.0,0.0,0.0,0.0,0.0,0.0,0.0,0.0,0.0,0.0,0.0,0.0,0.0,0.0,0.0,0.0,0.0,0.0,0.0,0.0,0.0,0.0,0.0,0.0,0.0,0.0,0.0,0.0,0.0,0.0,1.2363,1.1323,1.1029,1.1692,1.3089,1.398,0.0,0.0,0.0,0.0,0.0,0.0,0.0,0.0,0.0,0.0,0.0,0.0,0.0,0.0,0.0,0.0,0.0,0.0,0.0,0.0,0.0,0.0,0.0,0.0,0.0,0.0,0.0,0.0,0.0,0.0,0.0,0.0,0.0,0.0,0.0,0.0,0.0,0.0,0.0,0.0,0.0,0.0,0.0,0.0,0.0,0.0,0.0,0.0,0.0,0.0,0.0,0.0,0.0,0.0,0.0,0.0,0.0,0.0,0.0,0.0,0.0,0.0,0.0,0.0,0.0,0.0,0.0,0.0,0.0,0.0,0.0,0.0,0.0,0.0,0.0,0.0,0.0,0.0,0.0,0.0,0.0,0.0,0.0,0.0,0.0,0.0,0.0,0.0,0.0,0.0,0.0,0.0,0.0,0.0,0.0,0.0,0.0,0.0,0.0,0.0,0.0,0.0,0.0,0.0,0.0,0.0,0.0,0.0,0.0,1.0239,0.0,1.0297,0.9825,1.194,1.3266,0.0,0.0,0.0,0.0,0.0,0.0,0.0,0.0,0.0,0.0,0.0,0.0,0.0,0.0,0.0,0.0,0.0,0.0,0.0,0.0,0.0,0.0,0.0,0.0,0.0,0.0,0.0,0.0,0.0,0.0,0.0,0.0,0.0,0.0,0.0,0.0,0.0,0.0,0.0,0.0,0.0,0.0,0.0,0.0,0.0,0.0,0.0,0.0,0.0,0.0,0.0,0.0,0.0,0.0,0.0,0.0,0.0,0.0,0.0,0.0,0.0,0.0,0.0,0.0,0.0,0.0,0.0,0.0,0.0,0.0,0.0,0.0,0.0,0.0,0.0,0.0,0.0,0.0,0.0,0.0,0.0,0.0,0.0,0.0,0.0,0.0,0.0,0.0,0.0,0.0,0.0,0.0,0.0,0.0,0.0,0.0,0.0,0.0,0.0,0.0,0.0,0.0,0.0,0.0,0.0,0.0,0.0,0.0,0.941,0.6013,0.7977,0.8566,0.7597,1.0721,1.2736,0.0,0.0,0.0,0.0,0.0,0.0,0.0,0.0,0.0,0.0,0.0,0.0,0.0,0.0,0.0,0.0,0.0,0.0,0.0,0.0,0.0,0.0,0.0,0.0,0.0,0.0,0.0,0.0,0.0,0.0,0.0,0.0,0.0,0.0,0.0,0.0,0.0,0.0,0.0,0.0,0.0,0.0,0.0,0.0,0.0,0.0,0.0,0.0,0.0,0.0,0.0,0.0,0.0,0.0,0.0,0.0,0.0,0.0,0.0,0.0,0.0,0.0,0.0,0.0,0.0,0.0,0.0,0.0,0.0,0.0,0.0,0.0,0.0,0.0,0.0,0.0,0.0,0.0,0.0,0.0,0.0,0.0,0.0,0.0,0.0,0.0,0.0,0.0,0.0,0.0,0.0,0.0,0.0,0.0,0.0,0.0,0.0,0.0,0.0,0.0,0.0,0.0,0.0,0.0,0.0,0.0,0.0,0.0,0.0,0.5046,0.5721,0.5898,0.5527,0.7421,0.7818,0.0,0.0,0.0,0.0,0.0,0.0,0.0,0.0,0.0,0.0,0.0,0.0,0.0,0.0,0.0,0.0,0.0,0.0,0.0,0.0,0.0,0.0,0.0,0.0,0.0,0.0,0.0,0.0,0.0,0.0,0.0,0.0,0.0,0.0,0.0,0.0,0.0,0.0,0.0,0.0,0.0,0.0,0.0,0.0,0.0,0.0,0.0,0.0,0.0,0.0,0.0,0.0,0.0,0.0,0.0,0.0,0.0,0.0,0.0,0.0,0.0,0.0,0.0,0.0,0.0,0.0,0.0,0.0,0.0,0.0,0.0,0.0,0.0,0.0,0.0,0.0,0.0,0.0,0.0,0.0,0.0,0.0,0.0,0.0,0.0,0.0,0.0,0.0,0.0,0.0,0.0,0.0,0.0,0.0,0.0,0.0,0.0,0.0,0.0,0.0,0.0,0.0,0.0,0.0,0.0,0.0,0.0,0.0,0.0,0.221,0.2357,0.2688,0.3235,0.3006,0.2543,0.1829,0.0,0.0,0.0,0.0,0.0,0.0,0.0,0.0,0.0,0.0,0.0,0.0,0.0,0.0,0.0,0.0,0.0,0.0,0.0,0.0,0.0,0.0,0.0,0.0,0.0,0.0,0.0,0.0,0.0,0.0,0.0,0.0,0.0,0.0,0.0,0.0,0.0,0.0,0.0,0.0,0.0,0.0,0.0,0.0,0.0,0.0,0.0,0.0,0.0,0.0,0.0,0.0,0.0,0.0,0.0,0.0,0.0,0.0,0.0,0.0,0.0,0.0,0.0,0.0,0.0,0.0,0.0,0.0,0.0,0.0,0.0,0.0,0.0,0.0,0.0,0.0,0.0,0.0,0.0,0.0,0.0,0.0,0.0,0.0,0.0,0.0,0.0,0.0,0.0,0.0,0.0,0.0,0.0,0.0,0.0,0.0,0.0,0.0,0.0,0.0,0.0,0.0,0.0,0.0,0.0,0.0,0.0,0.0,-0.2147,-0.1873,-0.0905,0.0737,-0.1943,-0.274,0.0,0.0,0.0,0.0,0.0,0.0,0.0,0.0,0.0,0.0,0.0,0.0,0.0,0.0,0.0,0.0,0.0,0.0,0.0,0.0,0.0,0.0,0.0,0.0,0.0,0.0,0.0,0.0,0.0,0.0,0.0,0.0,0.0,0.0,0.0,0.0,0.0,0.0,0.0,0.0,0.0,0.0,0.0,0.0,0.0,0.0,0.0,0.0,0.0,0.0,0.0,0.0,0.0,0.0,0.0,0.0,0.0,0.0,0.0,0.0,0.0,0.0,0.0,0.0,0.0,0.0,0.0,0.0,0.0,0.0,0.0,0.0,0.0,0.0,0.0,0.0,0.0,0.0,0.0,0.0,0.0,0.0,0.0,0.0,0.0,0.0,0.0,0.0,0.0,0.0,0.0,0.0,0.0,0.0,0.0,0.0,0.0,0.0,0.0,0.0,0.0,0.0,0.0,0.0,0.0,0.0,0.0,0.0,0.0,-0.5503,-0.5646,-0.4607,-0.2441,-0.4116,-0.5603,0.0,0.0,0.0,0.0,0.0,0.0,0.0,0.0,0.0,0.0,0.0,0.0,0.0,0.0,0.0,0.0,0.0,0.0,0.0,0.0,0.0,0.0,0.0,0.0,0.0,0.0,0.0,0.0,0.0,0.0,0.0,0.0,0.0,0.0,0.0,0.0,0.0,0.0,0.0,0.0,0.0,0.0,0.0,0.0,0.0,0.0,0.0,0.0,0.0,0.0,0.0,0.0,0.0,0.0,0.0,0.0,0.0,0.0,0.0,0.0,0.0,0.0,0.0,0.0,0.0,0.0,0.0,0.0,0.0,0.0,0.0,0.0,0.0,0.0,0.0,0.0,0.0,0.0,0.0,0.0,0.0,0.0,0.0,0.0,0.0,0.0,0.0,0.0,0.0,0.0,0.0,0.0,0.0,0.0,0.0,0.0,0.0,0.0,0.0,0.0,0.0,0.0,0.0,0.0,0.0,0.0,0.0,0.0,-0.6367,-0.7745,-0.8102,-0.7812,-0.6847,-0.8097,-0.9415,0.0,0.0,0.0,0.0,0.0,0.0,0.0,0.0,0.0,0.0,0.0,0.0,0.0,0.0,0.0,0.0,0.0,0.0,0.0,0.0,0.0,0.0,0.0,0.0,0.0,0.0,0.0,0.0,0.0,0.0,0.0,0.0,0.0,0.0,0.0,0.0,0.0,0.0,0.0,0.0,0.0,0.0,0.0,0.0,0.0,0.0,0.0,0.0,0.0,0.0,0.0,0.0,0.0,0.0,0.0,0.0,0.0,0.0,0.0,0.0,0.0,0.0,0.0,0.0,0.0,0.0,0.0,0.0,0.0,0.0,0.0,0.0,0.0,0.0,0.0,0.0,0.0,0.0,0.0,0.0,0.0,0.0,0.0,0.0,0.0,0.0,0.0,0.0,0.0,0.0,0.0,0.0,0.0,0.0,0.0,0.0,0.0,0.0,0.0,0.0,0.0,0.0,0.0,0.0,0.0,0.0,0.0,0.0,-0.8342,-0.9136,-0.9633,-1.0414,-1.1523,-1.2502,-1.3169,0.0,0.0,0.0,0.0,0.0,0.0,0.0,0.0,0.0,0.0,0.0,0.0,0.0,0.0,0.0,0.0,0.0,0.0,0.0,0.0,0.0,0.0,0.0,0.0,0.0,0.0,0.0,0.0,0.0,0.0,0.0,0.0,0.0,0.0,0.0,0.0,0.0,0.0,0.0,0.0,0.0,0.0,0.0,0.0,0.0,0.0,0.0,0.0,0.0,0.0,0.0,0.0,0.0,0.0,0.0,0.0,0.0,0.0,0.0,0.0,0.0,0.0,0.0,0.0,0.0,0.0,0.0,0.0,0.0,0.0,0.0,0.0,0.0,0.0,0.0,0.0,0.0,0.0,0.0,0.0,0.0,0.0,0.0,0.0,0.0,0.0,0.0,0.0,0.0,0.0,0.0,0.0,0.0,0.0,0.0,0.0,0.0,0.0,0.0,0.0,0.0,0.0,0.0,0.0,0.0,0.0,0.0,0.0,-0.8609,-0.9976,-1.0335,-1.1174,-1.2546,-1.2941,-1.3046,0.0,0.0,0.0,0.0,0.0,0.0,0.0,0.0,0.0,0.0,0.0,0.0,0.0,0.0,0.0,0.0,0.0,0.0,0.0,0.0,0.0,0.0,0.0,0.0,0.0,0.0,0.0,0.0,0.0,0.0,0.0,0.0,0.0,0.0,0.0,0.0,0.0,0.0,0.0,0.0,0.0,0.0,0.0,0.0,0.0,0.0,0.0,0.0,0.4404,0.0,0.0,0.0,0.0,0.0,0.0,0.0,0.0,0.0,0.0,0.0,0.0,0.0,0.0,0.0,0.0,0.0,0.0,0.0,0.0,0.0,0.0,0.0,0.0,0.0,0.0,0.0,0.0,0.0,0.0,0.0,0.0,0.0,0.0,0.0,0.0,0.0,0.0,0.0,0.0,0.0,0.0,0.0,0.0,0.0,0.0,0.0,0.0,0.0,0.0,0.0,0.0,0.0,0.0,0.0,0.0,0.0,0.0,0.0,-0.908,-0.9874,-0.9761,-1.0249,-1.1404,-1.0808,-1.125,0.0,0.0,0.0,0.0,0.0,0.0,0.0,0.0,0.0,0.0,0.0,0.0,0.0,0.0,0.0,0.0,0.0,0.0,0.0,0.0,0.0,0.0,0.0,0.0,0.0,0.0,0.0,0.0,0.0,0.0,0.0,0.0,0.0,0.0,0.0,0.0,0.0,0.0,0.0,0.0,0.0,0.0,0.0,0.0,0.0,0.0,0.0,0.0,0.0,0.0,0.0,0.0,0.0,0.0,0.0,0.0,0.0,0.0,0.0,0.0,0.0,0.0,0.0,0.0,0.0,0.0,0.0,0.0,0.0,0.0,0.0,0.0,0.0,0.0,0.0,0.0,0.0,0.0,0.0,0.0,0.0,0.0,0.0,0.0,0.0,0.0,0.0,0.0,0.0,0.0,0.0,0.0,0.0,0.0,0.0,0.0,0.0,0.0,0.0,0.0,0.0,0.0,0.0,0.0,0.0,0.0,0.0,-0.8731,-0.886,-0.8948,-0.8333,-0.8433,-0.9317,-0.7794,-0.862,-1.2148,0.0,0.0,0.0,0.0,0.0,0.0,0.0,0.0,0.0,0.0,0.0,0.0,0.0,0.0,0.0,0.0,0.0,0.0,0.0,0.0,0.0,0.0,0.0,0.0,0.0,0.0,0.0,0.0,0.0,0.0,0.0,0.0,0.0,0.0,0.0,0.0,0.0,0.0,-0.5894,-0.471,0.0,0.0,0.0,0.0,0.0,0.0,0.0,0.0,0.6558,0.0,0.0,0.0,0.0,0.0,0.0,0.0,0.0,0.0,0.0,0.0,0.0,0.0,0.0,0.0,0.0,0.0,0.0,0.0,0.0,0.0,0.0,0.0,0.0,0.0,0.0,0.0,0.0,0.0,0.0,0.0,0.0,0.0,0.0,0.0,0.0,0.0,0.0,0.0,0.0,0.0,0.0,0.0,0.0,0.0,0.0,0.0,0.0,0.0,0.0,0.0,0.0,0.0,0.0,0.0,0.0,-0.6708,-0.6012,-0.599,-0.6615,-0.6003,-0.6131,-0.7045,-0.5887,-0.5787,-0.7075,0.0,0.0,0.0,0.0,0.0,0.0,0.0,0.0,0.0,0.0,0.0,0.0,0.0,0.0,0.0,0.0,0.0,0.0,0.0,0.0,0.0,0.0,0.0,0.0,0.0,0.0,0.0,0.0,0.0,0.0,0.0,0.0,0.0,0.0,0.0,0.0,0.0,0.0,0.0,-0.4207,-0.285,0.0,0.0,0.0,0.0,0.0,0.0,0.0,0.0,0.7265,0.0,0.0,0.0,0.0,0.0,0.0,0.0,0.0,0.0,0.0,0.0,0.0,0.0,0.0,0.0,0.0,0.0,0.0,0.0,0.0,0.0,0.0,0.0,0.0,0.0,0.0,0.0,0.0,0.0,0.0,0.0,0.0,0.0,0.0,0.0,0.0,0.0,0.0,0.0,0.0,0.0,0.0,0.0,0.0,0.0,0.0,0.0,0.0,0.0,0.0,0.0,0.0,0.0,0.0,0.0,-0.4965,-0.4013,-0.3871,-0.4624,-0.3499,-0.323,-0.3988,-0.2612,-0.25,0.0,0.0,0.0,0.0,0.0,0.0,0.0,0.0,0.0,0.0,0.0,0.0,0.0,0.0,0.0,0.0,0.0,0.0,0.0,0.0,0.0,0.0,0.0,0.0,0.0,0.0,0.0,0.0,0.0,0.0,0.0,0.0,0.0,0.0,0.0,0.0,0.0,0.0,0.0,0.0,-0.2406,-0.0865,0.0917,0.0,0.0,0.0,0.0,0.0,0.0,0.7277,0.7464,0.0,0.0,0.0,0.0,0.0,0.0,0.0,0.0,0.0,0.0,0.0,0.0,0.0,0.0,0.0,0.0,0.0,0.0,0.0,0.0,0.0,0.0,0.0,0.0,0.0,0.0,0.0,0.0,0.0,0.0,0.0,0.0,0.0,0.0,0.0,0.0,0.0,0.0,0.0,0.0,0.0,0.0,0.0,0.0,0.0,0.0,0.0,0.0,0.0,0.0,0.0,0.0,0.0,0.0,0.0,-0.3232,-0.2051,-0.1805,-0.2534,-0.0908,-0.0292,-0.0871,0.062,0.0702,0.0,0.0,0.0,0.0,0.0,0.0,0.0,0.0,0.0,0.0,0.0,0.0,0.0,0.0,0.0,0.0,0.0,0.0,0.0,0.0,0.0,0.0,0.0,0.0,0.0,0.0,0.0,0.0,0.0,0.0,0.0,0.0,0.0,0.0,0.0,0.0,0.0,0.0,0.0,0.0,0.0,0.1316,0.3122,0.485,0.0,0.0,0.0,0.0,0.7389,0.7425,0.0,0.0,0.0,0.0,0.0,0.0,0.0,0.0,0.0,0.0,0.0,0.0,0.0,0.0,0.0,0.0,0.0,0.0,0.0,0.0,0.0,0.0,0.0,0.0,0.0,0.0,0.0,0.0,0.0,0.0,0.0,0.0,0.0,0.0,0.0,0.0,0.0,0.0,0.0,0.0,0.0,0.0,0.0,0.0,0.0,0.0,0.0,0.0,0.0,0.0,0.0,0.0,0.0,0.0,0.0,0.0,-0.1227,0.0145,0.0585,0.0,0.1747,0.2372,0.1706,0.2771,0.3253,0.0,0.0,0.0,0.0,0.0,0.0,0.0,0.0,0.0,0.0,0.0,0.0,0.0,0.0,0.0,0.0,0.0,0.0,0.0,0.0,0.0,0.0,0.0,0.0,0.0,0.0,0.0,0.0,0.0,0.0,0.0,0.0,0.0,0.0,0.0,0.0,0.0,0.0,0.0,0.0,0.0,0.3074,0.5387,0.5823,0.6307,0.0,0.0,0.8032,0.7005,0.6903,0.0,0.0,0.0,0.0,0.0,0.0,0.0,0.0,0.0,0.0,0.0,0.0,0.0,0.0,0.0,0.0,0.0,0.0,0.0,0.0,0.0,0.0,0.0,0.0,0.0,0.0,0.0,0.0,0.0,0.0,0.0,0.0,0.0,0.0,0.0,0.0,0.0,0.0,0.0,0.0,0.0,0.0,0.0,0.0,0.0,0.0,0.0,0.0,0.0,0.0,0.0,0.0,0.0,0.0,0.0,0.1999,0.1336,0.2677,0.2907,0.1971,0.3341,0.3839,0.3254,0.3889,0.4337,0.0,0.0,0.0,0.0,0.0,0.0,0.0,0.0,0.0,0.0,0.0,0.0,0.0,0.0,0.0,0.0,0.0,0.0,0.0,0.0,0.0,0.0,0.0,0.0,0.0,0.0,0.0,0.0,0.0,0.0,0.0,0.0,0.0,0.0,0.0,0.0,0.0,0.0,0.0,0.0,0.0,0.0,0.738,0.7876,0.0,0.0,0.0,0.8753,0.7594,0.0,0.0,0.0,0.0,0.0,0.0,0.0,0.0,0.0,0.0,0.0,0.0,0.0,0.0,0.0,0.0,0.0,0.0,0.0,0.0,0.0,0.0,0.0,0.0,0.0,0.0,0.0,0.0,0.0,0.0,0.0,0.0,0.0,0.0,0.0,0.0,0.0,0.0,0.0,0.0,0.0,0.0,0.0,0.0,0.0,0.0,0.0,0.0,0.0,0.0,0.0,0.0,0.0,0.0,0.0,0.0,0.0,0.37,0.478,0.4781,0.3748,0.4677,0.5051,0.4647,0.4846,0.0,0.0,0.0,0.0,0.0,0.0,0.0,0.0,0.0,0.0,0.0,0.0,0.0,0.0,0.0,0.0,0.0,0.0,0.0,0.0,0.0,0.0,0.0,0.0,0.0,0.0,0.0,-1.071,0.0,0.0,0.0,0.0,0.0,0.0,0.0,0.0,0.0,0.0,0.0,0.0,0.0,0.0,0.678,0.9004,0.9603,0.9955,0.0,0.0,0.9312,0.8268,0.8464,0.8143,0.0,0.0,0.0,0.0,0.0,0.0,0.0,0.0,0.0,0.0,0.0,0.0,0.0,0.0,0.0,0.0,0.0,0.0,0.0,0.0,0.0,0.0,0.0,0.0,0.0,0.0,0.0,0.0,0.0,0.0,0.0,0.0,0.0,0.0,0.0,0.0,0.0,0.0,0.0,0.0,0.0,0.0,0.0,0.0,0.0,0.0,0.0,0.0,0.0,0.0,0.0,0.0,0.0,0.0,0.5446,0.5532,0.5989,0.5918,0.5284,0.5995,0.6285,0.6071,0.6021,0.6501,0.0,0.0,0.0,0.0,0.0,0.0,0.0,0.0,0.0,0.0,0.0,0.0,0.0,0.0,0.0,0.0,0.0,0.0,0.0,0.0,0.0,0.0,0.0,0.0,0.0,0.0,0.0,0.0,0.0,0.0,0.0,0.0,0.0,0.0,0.0,0.0,0.0,0.0,0.0,0.0,0.0,0.7551,1.0124,1.0442,1.0375,0.0,0.9723,0.9263,0.8811,0.8859,0.8324,0.6334,0.0,0.0,0.0,0.0,0.0,0.0,0.0,0.0,0.0,0.0,0.0,0.0,0.0,0.0,0.0,0.0,0.0,0.0,0.0,0.0,0.0,0.0,0.0,0.0,0.0,0.0,0.0,0.0,0.0,0.0,0.0,0.0,0.0,0.0,0.0,0.0,0.0,0.0,0.0,0.0,0.0,0.0,0.0,0.0,0.0,0.0,0.0,0.0,0.0,0.0,0.0,0.0,0.0,0.6779,0.6632,0.7493,0.7425,0.6344,0.7095,0.728,0.6712,0.7481,0.8182,0.0,0.0,0.0,0.0,0.0,0.0,0.0,0.0,0.0,0.0,0.0,0.0,0.0,0.0,0.0,0.0,0.0,0.0,0.0,0.0,0.0,0.0,0.0,0.0,0.0,0.0,0.0,0.0,-1.495,-1.4548,-1.2374,0.0,0.0,0.0,0.0,0.0,0.0,0.0,0.0,0.0,0.0,0.6697,1.0102,1.0937,0.0,0.0,0.9782,0.9295,0.8554,0.8579,0.8184,0.6765,0.5276,0.0,0.0,0.0,0.0,0.0,0.0,0.0,0.0,0.0,0.0,0.0,0.0,0.0,0.0,0.0,0.0,0.0,0.0,0.0,0.0,0.0,0.0,0.0,0.0,0.0,0.0,0.0,0.0,0.0,0.0,0.0,0.0,0.0,0.0,0.0,0.0,0.0,0.0,0.0,0.0,0.0,0.0,0.0,0.0,0.0,0.0,0.0,0.0,0.0,0.0,0.0,0.0,0.7761,0.757,0.8788,0.8545,0.6813,0.7955,0.8001,0.6922,0.8408,0.9509,0.0,0.0,0.0,0.0,0.0,0.0,0.0,0.0,0.0,0.0,0.0,0.0,0.0,0.0,0.0,0.0,0.0,0.0,0.0,0.0,0.0,0.0,0.0,0.0,0.0,0.0,0.0,0.0,-1.6687,-1.6274,-1.3341,0.0,0.0,0.0,0.0,0.0,0.0,0.0,0.0,0.0,0.0,0.4894,0.9688,1.0759,1.0721,0.9869,0.9175,0.8517,0.7916,0.7956,0.7389,0.534,0.0,0.0,0.0,0.0,0.0,0.0,0.0,0.0,0.0,0.0,0.0,0.0,0.0,0.0,0.0,0.0,0.0,0.0,0.0,0.0,0.0,0.0,0.0,0.0,0.0,0.0,0.0,1.6777,0.0,0.0,1.7353,0.0,0.0,0.0,0.0,0.0,0.0,0.0,0.0,0.0,0.0,0.0,0.0,0.0,0.0,0.0,0.0,0.0,0.0,0.0,0.0,0.0,0.0,0.8252,0.8391,0.973,0.9204,0.6877,0.8453,0.8431,0.6595,0.8665,1.0364,1.1387,0.0,0.0,0.0,0.0,0.0,0.0,0.0,0.0,0.0,0.0,0.0,0.0,0.0,0.0,0.0,0.0,0.0,0.0,0.0,0.0,0.0,0.0,0.0,0.0,0.0,0.0,-1.7107,-1.7245,-1.6909,0.0,0.0,0.0,0.0,0.0,0.0,0.0,0.0,0.0,-0.1276,-0.0252,0.2095,0.8816,0.9712,0.9352,0.9094,0.7583,0.6564,0.6856,0.698,0.5677,0.0,0.0,0.0,0.0,0.0,0.0,0.0,0.0,0.0,0.0,0.0,0.0,0.0,0.0,0.0,0.0,0.0,0.0,0.0,0.0,0.0,0.0,0.0,0.0,0.0,0.0,0.0,1.5991,1.6373,0.0,0.0,0.0,0.0,0.0,0.0,0.0,0.0,0.0,0.0,0.0,-1.3113,-1.25,0.0,0.0,0.0,0.0,0.0,0.0,0.0,0.0,0.0,0.0,0.0,0.0,0.9173,0.9713,1.1341,1.0821,0.8161,0.9445,0.9224,0.7215,0.9828,1.235,1.4598,0.0,0.0,0.0,0.0,0.0,0.0,0.0,0.0,0.0,0.0,0.0,0.0,0.0,0.0,0.0,0.0,0.0,0.0,0.0,0.0,0.0,0.0,0.0,0.0,0.0,-1.7766,0.0,0.0,0.0,0.0,0.0,0.0,0.0,0.0,0.0,0.0,0.0,-1.2002,-0.5318,-0.4407,-0.1981,0.448,0.5157,0.4653,0.0,0.0,0.0,0.0,0.0,0.0,0.0,0.0,0.0,0.0,0.0,0.0,0.0,0.0,-0.2129,-0.031,-0.0622,-0.1377,-0.1999,0.0,0.0,0.0,0.0,0.0,0.0,0.0,0.0,0.0,0.0,0.0,0.0,0.0,0.0,1.4981,1.571,1.6972,0.0,0.0,0.0,0.0,0.0,0.0,0.0,0.0,-1.4258,-1.3804,-1.2909,-1.2287,-1.2287,0.0,-1.3362,-1.3071,0.0,0.0,0.0,0.0,0.0,0.0,0.0,0.0,0.7763,0.8761,1.2106,1.2643,1.0237,1.0835,1.0412,0.8839,1.1318,1.3522,1.5186,1.6032,1.6501,0.0,0.0,0.0,0.0,0.0,0.0,0.0,0.0,0.0,0.0,0.0,0.0,0.0,0.0,0.0,0.0,0.0,0.0,0.0,0.0,0.0,0.0,0.0,-1.9292,0.0,0.0,0.0,0.0,0.0,0.0,0.0,0.0,0.0,-1.5555,-1.6146,-1.4471,-0.8434,-0.8184,-0.6144,0.0438,0.0,0.0,0.0,0.0,0.0,0.0,0.0,0.3621,0.2762,0.1959,0.0725,-0.1346,-0.2799,-0.348,-0.2822,0.0,0.0,-0.2217,-0.2471,-0.3134,-0.3639,-0.3684,-0.3478,-0.281,-0.2868,-0.2727,0.0,0.0,0.0,0.0,0.0,0.0,0.0,0.0,1.1439,1.2796,0.0,1.6909,0.0,0.0,0.0,0.0,0.0563,-0.4027,0.0,0.0,-1.3775,-1.3619,-1.2362,-1.2264,-1.217,-1.2156,-1.4311,-1.4656,-1.3168,-1.174,0.0,0.0,0.0,0.0,0.0,0.0,0.4236,0.5916,1.2102,1.4484,1.2734,1.2465,1.1953,1.1049,1.299,1.3852,1.3483,1.615,1.7459,1.7122,1.7767,0.0,0.0,0.0,0.0,0.0,0.0,0.0,0.0,0.0,0.0,0.0,0.0,0.0,0.0,0.0,0.0,0.0,0.0,0.0,0.0,-1.9092,0.0,0.0,0.0,0.0,0.0,0.0,0.0,0.0,0.0,0.0,-1.5332,-1.77,-1.7292,-1.0447,0.0,0.0,0.0,0.0,-0.2947,0.0,-0.0238,-0.0481,0.0385,0.4862,0.7094,0.3876,0.0,0.0,-0.4536,-0.5025,-0.4405,-0.3976,-0.4298,-0.4416,-0.4258,-0.5036,-0.5602,-0.5195,-0.504,-0.4867,-0.4351,-0.3587,-0.2957,0.3479,0.0,0.0,0.0,0.0,0.4097,0.609,0.9775,1.1477,1.3619,1.6048,1.7217,0.0,0.0,0.0,0.0,0.0,0.0,-0.9232,-1.5017,-1.4996,-1.3531,-1.0976,-1.034,-0.9959,-0.9891,-1.1745,-1.2883,-1.3349,-1.3583,-1.3971,-1.4499,0.0,0.0,0.0,0.0,0.5229,0.7276,1.3323,1.5842,1.4344,1.3039,1.2031,1.1337,1.3142,1.4666,1.5671,1.7574,1.8658,1.8767,1.9209,0.0,0.0,0.0,0.0,0.0,0.0,0.0,0.0,0.0,0.0,0.0,0.0,0.0,0.0,0.0,0.0,0.0,0.0,0.0,-1.672,-1.9147,-2.028,0.0,0.0,0.0,0.0,0.0,0.0,0.0,0.0,0.0,-1.7929,-1.812,-1.6969,0.0,0.0,-1.1195,-0.2536,-0.5272,-0.6436,-0.1455,-0.2871,0.0,-0.379,-0.1459,0.0219,-0.009,-0.0709,-0.1223,-0.0951,-0.4069,-0.6698,-0.6953,-0.7201,-0.7208,-0.6646,-0.6345,-0.6105,-0.5681,-0.5358,-0.4795,-0.3922,-0.4724,-0.5828,0.7094,0.4731,0.225,0.2283,0.3811,0.2125,0.4049,0.8413,0.9048,1.175,1.5935,1.7694,1.8241,1.7644,1.4132,0.0,0.0,0.0,-0.5566,-1.0377,-0.9842,-0.8339,-0.6136,-0.6593,-0.6865,-0.6991,-0.7801,-0.935,-1.1562,-1.1387,-1.227,-1.4022,0.0,0.0,-1.1922,-0.1958,0.412,0.6281,1.3914,1.717,1.5524,1.3264,1.1687,1.0932,1.2931,1.4673,1.6046,1.784,1.9085,1.9542,1.9782,1.8808,0.0,0.0,0.0,0.0,0.0,0.0,0.0,0.0,0.0,0.0,0.0,-0.9819,-1.0195,0.0,0.0,0.0,-1.3377,-1.5185,-1.7463,-1.8985,0.0,0.0,0.0,0.0,0.0,0.0,0.0,-1.9962,-2.0249,-2.013,-1.9102,-1.8339,-1.7297,-1.5695,-1.5958,-1.4029,-0.7968,0.0,-1.155,-0.6391,-0.6647,-0.6997,-0.5713,-0.2056,0.0828,0.134,0.2069,0.0923,-0.1529,-0.3497,-0.5485,-0.7817,-0.8837,-0.883,-0.8058,-0.7623,-0.6967,-0.5795,-0.5431,-0.496,-0.3867,-0.5381,-0.7036,1.3043,1.0984,0.1903,0.0727,0.4233,-0.0933,0.1012,0.7516,0.6017,0.9053,1.5415,1.8453,1.8406,1.5838,1.1473,0.0,0.2034,0.1992,0.0738,-0.1238,-0.1086,-0.0427,0.0522,-0.1866,-0.3219,-0.3675,-0.3237,-0.4897,-0.828,-0.6709,-0.7653,-1.1203,-1.3503,-1.4793,-1.459,-0.4329,0.1973,0.3813,1.4084,1.8345,1.6088,1.3116,1.1063,1.0104,1.2405,1.4113,1.5169,1.7366,1.89,1.9617,1.9749,1.8455,1.5516,0.0,0.0,0.0,0.0,0.0,0.0,0.0,0.0,0.0,0.0,0.0,0.0,0.0,0.0,0.0,-1.2478,0.0,-1.7822,-1.7854,0.0,0.0,0.0,-1.925,-2.0322,-2.0306,-2.0228,-2.0258,0.0,0.0,-1.9309,-1.8602,-1.8262,-1.851,-1.8317,-1.7554,-1.5901,-1.6926,-1.6984,-1.2048,-1.0511,-0.858,-0.5938,0.0354,0.5217,0.581,0.8574,0.5802,-0.2422,-0.3431,-0.3463,-0.828,-0.9644,-0.9773,-0.8967,-0.8892,-0.8181,-0.5661,-0.543,-0.5346,-0.4512,-0.5429,-0.6786,1.5472,1.4473,1.0355,0.7943,0.6635,0.4591,0.6431,1.08,1.1545,1.471,1.9583,2.0716,1.8978,1.5147,1.3757,0.9824,0.4089,0.4171,0.2684,0.0026,-0.0246,0.0236,0.1196,0.0231,-0.052,-0.0966,-0.0607,-0.2257,-0.5579,-0.4747,-0.6098,-0.947,-0.9586,-1.0532,-1.2058,-0.227,0.3433,0.4594,1.5147,1.8486,1.4221,1.2059,1.0781,1.0422,1.1678,1.3384,1.5553,1.744,1.8705,1.9225,2.0234,1.8787,1.4502,1.1375,0.0,0.0,0.0,0.0,0.0,0.0,0.0,0.0,0.0,-0.8294,-1.1601,0.0,-1.0294,0.0,-1.0248,-0.8881,-0.9437,-1.0056,0.0,0.0,-1.6322,-1.7283,-1.5037,-1.457,-1.4916,-1.6201,-1.6342,-1.7379,-2.0114,-2.0348,-2.0143,-1.9811,-1.8646,-1.6002,-1.1296,-1.4718,-1.5684,-1.0488,-0.9554,-0.8967,-0.6216,-0.1428,0.3853,0.714,0.4071,0.0477,-0.0306,-0.4357,-0.8242,-1.104,-1.1794,-1.1629,-1.0963,-0.9707,-0.8015,-0.6189,-0.5816,-0.5743,-0.5149,-0.5696,-0.6617,1.8286,1.7751,1.6103,1.4365,1.2465,0.9492,1.0059,1.3147,1.4067,1.6816,2.0726,2.0551,1.8687,1.5599,1.4515,1.2106,0.8864,0.9355,0.871,0.7078,0.6476,0.6327,0.6453,0.4971,0.4363,0.4624,0.5471,0.3925,0.0447,0.1269,-0.0624,-0.5202,-0.4054,-0.3935,-0.4716,0.1691,0.644,0.9286,1.5932,1.7457,1.3568,1.1412,1.019,0.9935,1.0851,1.2485,1.4948,1.639,1.7136,1.7234,1.788,1.5958,1.0994,0.7874,0.3557,0.0,0.0,0.0,0.0,0.0,0.0,0.0,0.0,0.0,0.0,0.0,-1.0504,-1.1457,-0.7491,-0.4538,-0.3679,-0.4536,-0.6024,-0.8228,-1.1302,-1.2652,-1.117,-1.0142,-1.0629,-1.3457,-1.3642,-1.5428,-2.0254,-2.1034,-2.1045,-2.0929,-1.9882,-1.787,-1.4965,-1.7134,-1.7617,-1.3061,-1.0617,-0.7389,-0.2454,0.208,0.5672,0.7525,0.5123,0.2072,0.035,-0.444,-0.9497,-1.3195,-1.4126,-1.3661,-1.2564,-1.098,-0.9059,-0.6817,-0.6039,-0.5617,-0.4747,-0.5377,-0.6448,2.0886,2.0623,1.9766,1.9477,1.9217,1.4346,1.35,1.5459,1.5752,1.777,2.0834,1.9863,1.85,1.6818,1.5185,1.4328,1.4264,1.5369,1.5806,1.5603,1.4614,1.3686,1.272,1.0131,0.9355,1.0291,1.2056,1.0755,0.6771,0.8361,0.6186,0.0649,0.1965,0.3368,0.4665,0.7115,1.0866,1.5819,1.7005,1.647,1.4215,1.1664,1.0278,1.0174,1.0342,1.1663,1.4206,1.4859,1.4978,1.4576,1.4288,1.1869,0.6987,0.3893,0.0174,0.0,-0.7755,0.0,0.0,0.0,0.0,0.0,0.0,0.0,0.0,-1.105,-1.0794,-0.8066,-0.4223,-0.1009,0.1193,0.1221,-0.0315,-0.3937,-0.5666,-0.7165,-0.8761,-0.7399,-0.7729,-1.1651,-1.1759,-1.3878,-1.9621,-2.0744,-2.1043,-2.1491,-2.118,-2.0536,-2.052,-2.0639,-1.9892,-1.7786,-1.1883,-0.4494,0.2366,0.6889,0.8664,0.8031,0.6142,0.4571,-0.1549,-0.5888,-1.0287,-1.5283,-1.6651,-1.6048,-1.4322,-1.284,-1.0705,-0.7799,-0.6695,-0.5774,-0.4639,-0.5118,-0.6171,2.1917,2.2116,2.0637,2.0662,2.1541,2.0732,2.0207,2.0015,2.0797,2.2058,2.343,2.2224,2.0714,1.9119,1.8934,1.83,1.7383,1.8187,1.8001,1.6972,1.53,1.3919,1.2775,1.0785,0.9477,0.9089,1.2695,1.2097,0.7549,1.0635,0.9895,0.5579,0.604,0.8434,1.2542,0.0,0.0,0.0,1.9765,1.8277,1.7804,1.5245,1.4333,1.5229,1.1564,0.0,1.5165,1.4156,1.3214,1.2793,1.1766,0.0,0.0,0.0,0.0,0.0,0.0,0.0,0.0,0.0,0.0,0.0,-1.2373,-1.2255,-1.199,-1.0148,-0.7681,-0.4562,0.032,0.4831,0.8463,1.3484,1.1755,0.0565,-0.1856,-0.4587,-0.981,-0.8675,-0.8391,-1.0734,-1.1089,-1.2894,-1.7466,-1.9031,-1.9905,-2.0716,-2.1149,-2.1093,-2.0652,-1.9838,-1.8591,-1.6121,-0.7959,-0.085,0.3018,0.6637,0.7823,0.4059,-0.0409,-0.3702,-0.6894,-1.2303,-1.6358,-1.9071,-1.9436,-1.9201,-1.8014,-1.5466,-1.2619,-1.0503,-0.8483,-0.6819,-0.5852,-0.5871,-0.6429,2.3074,2.324,2.2401,2.2492,0.0,2.3569,2.3491,2.321,2.375,2.4326,2.4813,2.3652,2.265,2.1779,2.0988,2.0234,1.9466,1.9046,1.8435,1.7598,1.5562,1.4267,1.3623,1.1793,1.1291,1.206,1.4452,1.4702,1.3066,1.3927,1.2843,0.9942,1.1095,1.3149,1.6012,1.9639,2.207,2.3214,2.049,1.8235,1.6466,1.4524,1.3487,1.3394,1.1239,0.0,0.0,0.0,0.0,0.0,0.0,0.0,0.0,0.0596,0.0,-0.4489,-0.7194,-0.9242,-1.0239,-1.1385,-1.2283,-1.2867,-1.2229,-1.1509,-1.0863,-0.8214,-0.4947,-0.0871,0.3533,0.7675,1.144,1.3706,1.1657,0.3985,0.0822,-0.222,-0.5177,-0.4457,-0.4634,-0.7518,-0.8027,-0.9958,-1.5473,-1.672,-1.7304,-1.7847,-1.8549,-1.8643,-1.7744,-1.7861,-1.6105,-0.9471,-0.2787,0.2769,0.5058,0.8391,0.8955,0.4018,-0.1409,-0.5766,-0.877,-1.5397,-2.0656,-2.1507,-2.1762,-2.1627,-2.1033,-1.7206,-1.3085,-1.1335,-0.812,-0.5589,-0.5268,-0.5492,-0.5891,2.409,2.4173,2.4133,2.4251,2.4499,2.4761,2.5012,2.5241,2.5383,0.0,0.0,2.4468,2.3975,2.3725,2.2156,2.1122,2.0453,1.9176,1.8287,1.7736,1.5684,1.4678,1.4527,1.2979,1.3272,1.517,1.604,1.7003,1.7992,1.6949,1.5716,1.4588,1.6185,1.7572,1.8688,2.2959,2.4262,2.2331,2.0704,1.827,1.5048,1.3762,1.2589,1.1472,1.1443,1.1917,1.2904,1.1423,1.0135,0.9107,0.6048,0.3264,0.1045,-0.1473,-0.3682,-0.535,-0.7106,-0.8576,-0.9785,-1.081,-1.1809,-1.2893,-1.1111,-0.9612,-0.8601,-0.5998,-0.2505,0.2201,0.5422,0.8806,1.243,1.054,0.8073,0.592,0.2308,-0.0479,-0.196,-0.1301,-0.2545,-0.5217,-0.5932,-0.7343,-1.2415,-1.369,-1.4101,-1.4206,-1.4954,-1.5022,-1.3664,-1.4302,-1.2012,-0.3521,0.1659,0.5322,0.6923,0.9073,0.9448,0.3923,-0.2038,-0.6915,-1.0788,-1.7188,-2.2169,-2.3174,-2.3329,-2.2989,-2.2419,-1.7384,-1.2925,-1.1543,-0.7119,-0.3614,-0.4488,-0.48,-0.5016,2.4691,2.4869,2.4915,2.5033,2.5165,2.5144,2.5238,2.5386,2.5511,2.555,2.5449,2.4625,2.384,2.311,2.2685,2.1399,1.9537,1.927,1.8474,1.7183,1.5835,1.509,1.4904,1.421,1.376,1.3731,1.5883,1.705,1.7283,1.8273,1.8942,1.9293,2.017,2.1544,2.3521,2.4298,2.3854,2.2328,2.1644,2.0546,1.8993,1.7469,1.6798,1.6958,1.4962,1.4087,1.4332,1.1357,0.9246,0.8155,0.4416,0.1795,0.0628,-0.2318,-0.4294,-0.4809,-0.6004,-0.7041,-0.7778,-0.8949,-0.9853,-1.0161,-0.8275,-0.7055,-0.7017,-0.3838,-0.0425,0.2967,0.5457,0.8396,1.1914,1.0651,0.7935,0.4574,0.1838,-0.1682,-0.6353,-0.7002,-0.6963,-0.7422,-0.7786,-0.7614,-0.8605,-0.9513,-1.0262,-1.0937,-1.1097,-1.0916,-0.9633,-0.917,-0.7354,-0.2552,0.2662,0.5752,0.59,0.6132,0.4674,0.073,-0.6467,-1.2106,-1.4679,-1.9372,-2.281,-2.3287,-2.3171,-2.2287,-1.9975,-1.5748,-1.2404,-1.0473,-0.6652,-0.408,-0.5186,-0.4685,-0.3884,2.4976,2.5066,2.5208,2.5289,2.5303,2.5346,2.5381,2.5405,2.5498,2.5541,2.5464,2.5112,2.4744,2.4322,2.3132,2.2097,2.1138,1.9624,1.8634,1.7984,1.6505,1.5806,1.5756,1.5023,1.4574,1.4577,1.6557,1.7607,1.7829,1.9284,2.0294,2.0776,2.1718,2.3022,2.4457,2.417,2.3093,2.1396,2.0095,1.8842,1.7643,1.57,1.4767,1.493,1.4049,1.3658,1.371,1.1213,0.9167,0.7775,0.3738,0.0874,-0.0538,-0.2925,-0.4197,-0.4158,-0.4555,-0.5066,-0.5522,-0.7746,-0.9014,-0.8732,-0.7638,-0.6379,-0.5089,-0.2163,0.0953,0.3915,0.5819,0.7556,0.9391,0.8346,0.6199,0.2947,0.0827,-0.1938,-0.5439,-0.644,-0.6673,-0.6835,-0.6657,-0.6308,-0.5914,-0.581,-0.5722,-0.6009,-0.6191,-0.6095,-0.5581,-0.5708,-0.5087,-0.2312,0.2164,0.4033,0.284,0.2899,0.0483,-0.5222,-1.1146,-1.5567,-1.8067,-2.086,-2.1211,-2.0301,-2.1234,-2.1207,-1.8016,-1.4043,-1.1434,-1.0232,-0.6393,-0.4356,-0.5224,-0.3959,-0.2117,2.5161,2.5207,2.5381,2.5408,2.5383,2.5464,2.5478,2.5456,2.5454,2.5481,2.5497,2.5515,2.5422,2.5099,2.3466,2.254,2.1949,1.972,1.8519,1.8223,1.6829,1.6269,1.6507,1.584,1.5708,1.6072,1.7202,1.8046,1.869,1.9886,2.0796,2.136,2.232,2.3098,2.3603,2.3079,2.1999,2.0389,1.8429,1.6955,1.601,1.3948,1.289,1.2892,1.3091,1.3238,1.3271,1.1773,1.0039,0.7998,0.4213,0.1157,-0.0881,-0.2721,-0.3504,-0.3143,-0.3215,-0.3629,-0.4499,-0.7004,-0.8335,-0.7855,-0.7253,-0.5814,-0.3251,-0.0529,0.2161,0.4635,0.6109,0.6931,0.7055,0.6142,0.4478,0.2073,0.0166,-0.1546,-0.3247,-0.4039,-0.4568,-0.5127,-0.4687,-0.4127,-0.3652,-0.2771,-0.1796,-0.083,-0.1049,-0.1557,-0.1714,-0.2594,-0.2972,-0.206,0.076,0.1956,-0.0504,-0.1263,-0.375,-1.02,-1.3797,-1.6749,-1.8921,-1.9811,-1.8388,-1.6159,-1.7131,-1.6862,-1.4207,-1.1535,-0.9884,-0.9824,-0.7269,-0.4898,-0.5484,-0.3141,-0.062,2.5293,2.5457,2.5546,2.5583,2.5566,2.5527,2.5523,2.5558,2.5459,2.5449,2.5492,2.5507,2.5077,2.4293,2.3627,2.2354,2.0698,1.9217,1.7968,1.6872,1.6218,1.6177,1.6629,1.7018,1.7268,1.7301,1.7416,1.8057,1.9236,1.968,2.0602,2.186,2.2144,2.1825,2.1175,2.0859,2.0427,1.9858,1.7833,1.678,1.6629,1.5134,1.451,1.49,1.4345,1.4294,1.4516,1.3863,1.2144,0.9542,0.639,0.3553,0.1049,-0.1059,-0.1987,-0.1582,-0.2059,-0.3363,-0.5496,-0.6848,-0.7541,-0.7353,-0.6215,-0.4439,-0.1996,0.1038,0.3486,0.524,0.6314,0.6853,0.6733,0.563,0.43,0.2712,0.0612,-0.0999,-0.1229,-0.2722,-0.3729,-0.3178,-0.2694,-0.2184,-0.1577,-0.0397,0.1348,0.3726,0.302,0.2375,0.2369,0.0379,-0.1588,-0.2459,-0.252,-0.189,-0.1408,-0.5139,-0.804,-0.9927,-1.2872,-1.6018,-1.7654,-1.6307,-1.3882,-1.1285,-1.0496,-0.9653,-0.7811,-0.6113,-0.8373,-1.0911,-0.9781,-0.7722,-0.5723,-0.2773,-0.054,2.5422,2.5517,2.5585,2.558,2.5546,2.5515,2.5517,2.553,2.5488,2.5454,2.5449,2.5483,2.5196,2.4668,2.3504,2.2381,2.1282,1.9232,1.7688,1.6638,1.5882,1.588,1.6505,1.7077,1.7679,1.8219,1.78,1.7777,1.8332,1.894,2.0216,2.1866,2.2039,2.1679,2.1012,2.0406,1.9652,1.8732,1.7588,1.6749,1.6195,1.4989,1.4259,1.4139,1.4029,1.3841,1.366,1.3019,1.1943,1.0318,0.6829,0.4517,0.379,0.0617,-0.07,0.0244,-0.119,-0.3136,-0.5209,-0.6276,-0.6992,-0.7321,-0.5697,-0.359,-0.1126,0.1277,0.4329,0.8165,0.8105,0.7078,0.6384,0.5749,0.4741,0.312,0.1805,0.1014,0.041,-0.0569,-0.119,-0.0837,-0.0653,-0.0117,0.0879,0.2552,0.4879,0.7196,0.6955,0.6304,0.6283,0.4049,0.164,-0.0162,-0.159,-0.2974,-0.3632,-0.8463,-1.1147,-1.1767,-1.4477,-1.7553,-1.4918,-1.2926,-0.9906,-0.6366,-0.6204,-0.5749,-0.4516,-0.7138,-1.0084,-1.2854,-1.2742,-1.0462,-0.6684,-0.2719,0.0432,2.4586,2.3219,2.174,2.1082,2.1172,2.0937,2.176,2.3194,2.3251,2.3996,2.5318,2.5399,2.4912,2.4054,2.2968,2.2087,2.101,1.8505,1.675,1.5721,1.4878,1.4874,1.562,1.6657,1.7617,1.8345,1.8069,1.7498,1.7089,1.7579,1.891,2.0445,2.0546,2.036,2.0063,1.9309,1.8446,1.7488,1.6866,1.6262,1.5564,1.4554,1.3896,1.3768,1.3981,1.3809,1.3159,1.2959,1.216,1.0727,0.8209,0.6514,0.5667,0.3119,0.1715,0.1568,-0.0588,-0.28,-0.4713,-0.5791,-0.6527,-0.6643,-0.5024,-0.2926,-0.0389,0.2517,0.6345,1.0447,1.0919,1.0133,0.7851,0.6501,0.5056,0.3596,0.3,0.2394,0.1972,0.1454,0.1117,0.1371,0.1771,0.2524,0.4005,0.5927,0.8106,1.0549,1.0552,0.9918,0.9569,0.7604,0.507,0.258,0.06,-0.1814,-0.5039,-0.8588,-1.1354,-1.2918,-1.4828,-1.5469,-1.3082,-1.1039,-0.8148,-0.6118,-0.4764,-0.465,-0.5466,-0.865,-1.3235,-1.711,-1.6955,-1.2841,-0.8139,-0.338,0.1118,2.2528,1.7488,1.2,1.0522,1.0584,1.0086,1.2767,1.8121,1.7698,2.04,2.4819,2.4839,2.3811,2.1794,2.1634,2.0908,1.904,1.6618,1.4786,1.3455,1.2806,1.2907,1.3647,1.5636,1.7002,1.7751,1.7817,1.7095,1.5764,1.569,1.6276,1.7454,1.7228,1.7093,1.7429,1.6999,1.6381,1.6176,1.548,1.5,1.4818,1.3966,1.3763,1.4237,1.4744,1.4363,1.375,1.4596,1.3668,1.037,1.1387,1.0482,0.7043,0.7097,0.5754,0.2332,-0.0262,-0.2404,-0.4136,-0.5467,-0.5996,-0.5385,-0.41,-0.2385,0.0393,0.5357,0.9281,1.1013,1.4879,1.5551,1.2555,0.8617,0.5594,0.4524,0.3372,0.307,0.3657,0.3175,0.297,0.3515,0.4482,0.5971,0.829,0.9449,1.1129,1.3079,1.3715,1.333,1.2443,1.0646,0.7999,0.5309,0.2907,0.0551,-0.2536,-0.6258,-0.9031,-1.0804,-1.2117,-1.2976,-1.2867,-1.1906,-0.8625,-0.6462,-0.6222,-0.657,-0.7589,-1.0855,-1.5864,-1.8806,-1.8862,-1.5367,-0.9854,-0.4644,-0.0266,1.7783,1.2121,0.9299,0.8516,0.9079,0.8517,1.1681,1.6764,1.3547,1.7159,2.3512,2.0666,1.9065,1.9776,1.7742,1.6649,1.61,1.4044,1.2589,1.1654,1.1276,1.1711,1.2905,1.439,1.5886,1.7073,1.6909,1.585,1.4444,1.4481,1.4783,1.5374,1.6474,1.681,1.6286,1.6022,1.5823,1.5541,1.4813,1.4283,1.4019,1.3324,1.2773,1.2268,1.3039,1.3001,1.1993,1.2538,1.244,1.1725,1.0891,1.1863,1.4374,1.0773,0.6349,0.2217,-0.0199,-0.2073,-0.3405,-0.4075,-0.4339,-0.4189,-0.2616,-0.0651,0.1959,0.6544,1.1159,1.4703,1.6605,1.7808,1.8134,1.3461,0.8211,0.5393,0.4615,0.4493,0.4928,0.4961,0.5279,0.6266,0.7614,0.9193,1.0667,1.2166,1.369,1.5059,1.5336,1.5012,1.4263,1.2323,0.9825,0.8025,0.5544,0.3069,0.142,-0.3187,-0.6786,-0.8844,-1.0353,-1.0792,-1.0917,-1.044,-0.7766,-0.8198,-0.8075,-0.9343,-1.0808,-1.492,-1.9551,-2.0707,-2.0599,-1.7025,-1.1589,-0.6785,-0.2484,1.0118,0.5878,0.3101,0.2531,0.3248,0.2602,0.5864,1.0818,0.7954,1.2245,1.9616,1.6636,1.5856,1.7278,1.4728,1.2776,1.2162,1.0788,1.0053,0.9696,0.9691,1.0265,1.1442,1.3129,1.4652,1.5611,1.5017,1.3788,1.2434,1.2365,1.2623,1.3143,1.4608,1.5245,1.4949,1.4837,1.4715,1.4571,1.395,1.3421,1.3198,1.2384,1.1443,1.0626,1.0935,1.086,1.0128,1.0779,1.0643,0.9783,0.7941,1.0207,1.6111,1.0209,0.5311,0.3719,0.053,-0.1607,-0.234,-0.281,-0.2875,-0.2463,-0.0783,0.1404,0.4562,0.9295,1.4231,1.8213,2.0788,2.2285,2.1862,1.8571,1.3352,0.8238,0.6181,0.579,0.6295,0.667,0.766,0.9226,1.0688,1.2052,1.3163,1.4646,1.5791,1.6654,1.637,1.578,1.5105,1.312,1.0986,0.9705,0.7149,0.4927,0.2885,-0.0821,-0.4457,-0.6648,-0.9468,-0.9625,-1.0359,-0.951,-0.962,-1.0028,-1.1098,-1.2532,-1.5306,-1.9342,-2.1478,-2.2863,-2.1506,-1.8411,-1.3629,-0.9198,-0.5692,-0.0529,-0.2025,-0.7396,-0.821,-0.7127,-0.7946,-0.5724,-0.0166,0.061,0.6349,1.4598,1.3877,1.4418,1.5389,1.2945,1.0093,0.779,0.7546,0.7527,0.7552,0.8102,0.862,0.927,1.2042,1.3439,1.3644,1.2476,1.1172,0.9918,0.9316,0.9534,1.0623,1.0702,1.1606,1.352,1.2838,1.2886,1.3108,1.2705,1.2478,1.2376,1.1195,1.0096,0.9322,0.8813,0.8399,0.8112,0.9624,0.8508,0.4882,0.3586,0.5948,0.9979,0.4881,0.2629,0.5392,0.186,-0.0935,-0.1072,-0.1942,-0.1671,-0.0266,0.1194,0.3797,0.8012,1.2998,1.7539,2.1162,2.4774,2.6729,2.4034,2.2665,1.9153,1.2901,0.8599,0.7517,0.7775,0.84,0.9563,1.1984,1.358,1.4865,1.5939,1.6696,1.7334,1.7404,1.662,1.5572,1.5037,1.2988,1.11,0.9772,0.7818,0.5711,0.3708,0.148,-0.1636,-0.4618,-0.7713,-0.9613,-1.1757,-1.2052,-1.3789,-1.4586,-1.6554,-1.8014,-1.8955,-2.2377,-2.2424,-2.3058,-2.1341,-1.9771,-1.5959,-1.2066,-0.9893,-0.869,-0.971,-1.119,-1.1418,-1.0769,-1.1722,-0.8856,-0.3675,-0.2645,0.2891,1.0128,1.109,1.1884,1.2499,1.0489,0.803,0.5844,0.6177,0.6456,0.6699,0.7299,0.8227,0.931,1.0889,1.1964,1.2247,1.1572,1.0104,0.832,0.69,0.6547,0.6913,0.6676,0.7545,0.9628,0.9913,1.0491,1.1426,1.1545,1.1323,1.0768,1.0046,0.8978,0.7682,0.7704,0.7192,0.5717,0.5939,0.4688,0.1862,0.1173,0.1372,0.1733,0.0422,-0.02,0.0344,-0.1798,-0.2728,-0.1205,-0.0804,-0.0067,0.16,0.293,0.4598,0.7333,1.1445,1.552,1.9207,2.2667,2.4817,2.5897,2.4098,1.9821,1.2762,1.3126,1.2424,1.0968,1.2609,1.4106,1.4544,1.5743,1.6702,1.7115,1.7798,1.8125,1.7557,1.6426,1.5375,1.4568,1.2552,1.1023,1.0245,0.8106,0.5883,0.3838,0.1123,-0.2166,-0.4967,-0.7694,-1.0551,-1.2688,-1.5092,-1.701,-1.8922,-2.1015,-2.2439,-2.3509,-2.3885,-2.3719,-2.3056,-2.1741,-1.9878,-1.7776,-1.5775,-1.3857,-1.417,-1.5201,-1.4713,-1.3644,-1.2049,-1.042,-0.7745,-0.4542,-0.1186,0.3578,0.843,0.9819,1.1588,1.2919,1.0825,0.9102,0.8126,0.7007,0.6594,0.7326,0.7955,0.8583,0.9065,0.9615,1.0057,1.0292,0.9679,0.8488,0.6956,0.5037,0.4068,0.4073,0.4301,0.527,0.6764,0.7501,0.8462,0.9608,0.9662,0.9761,0.9769,0.9017,0.7589,0.5952,0.5544,0.4662,0.3139,0.2226,0.1204,-0.03,-0.1991,-0.2831,-0.1914,-0.2797,-0.2383,0.0537,-0.1439,-0.2296,0.1086,0.1256,0.1404,0.307,0.4397,0.6231,0.8459,1.1509,1.4422,1.7535,2.0257,2.2945,2.5053,2.4519,2.0739,1.6559,1.5743,1.5202,1.3097,1.5265,1.6794,1.6642,1.7438,1.8187,1.8606,1.8689,1.8642,1.7491,1.6003,1.4832,1.3793,1.1821,1.0711,0.9296,0.6907,0.5088,0.3767,0.0749,-0.2892,-0.5593,-0.8196,-1.1086,-1.37,-1.658,-1.8916,-2.0679,-2.2643,-2.316,-2.4098,-2.4146,-2.3996,-2.3008,-2.2276,-2.1129,-1.9797,-1.9939,-1.8555,-1.725,-1.8519,-1.7216,-1.4816,-1.1895,-0.5588,-0.3326,-0.3252,0.298,0.6501,0.7787,1.0343,1.3153,1.5469,1.3198,1.2328,1.2544,0.9355,0.822,0.9223,0.9766,0.9735,0.8815,0.8758,0.8665,0.8348,0.7371,0.6492,0.5665,0.3881,0.2329,0.2345,0.3523,0.4492,0.4998,0.5627,0.6748,0.77,0.7461,0.8078,0.9366,0.776,0.5724,0.3629,0.2379,0.1362,0.0302,-0.1017,-0.1789,-0.2134,-0.5657,-0.5861,-0.3137,-0.6135,-0.4074,0.4098,0.0234,0.0488,0.3773,0.3759,0.3087,0.4504,0.5875,0.7884,1.0652,1.185,1.3772,1.6373,1.8143,2.0283,2.2507,2.3524,2.2989,2.1906,1.81,1.5154,1.3951,1.6896,1.8285,1.8196,1.8881,1.9764,1.9786,1.96,1.865,1.7211,1.5481,1.4207,1.2976,1.1253,0.933,0.7404,0.5333,0.2986,0.1274,-0.214,-0.5724,-0.8573,-1.0894,-1.3384,-1.5848,-1.8613,-2.1012,-2.2769,-2.3741,-2.4174,-2.4413,-2.457,-2.4403,-2.3777,-2.3158,-2.2625,-2.2393,-2.2281,-2.2275,-1.8522,-1.9701,-1.2689,-0.9314,-0.7952,-0.1582,0.0409,-0.0299,0.507,0.7064,0.6716,1.2293,1.4857,1.4651,1.5024,1.4589,1.3723,1.2274,1.1377,1.1599,1.2155,1.1196,0.9497,0.8538,0.8277,0.8171,0.6675,0.5584,0.451,0.3812,0.2765,0.1383,0.2442,0.2627,0.2363,0.4031,0.5107,0.5703,0.6453,0.6345,0.5991,0.465,0.2564,0.017,-0.1071,-0.208,-0.2972,-0.3485,-0.4069,-0.4712,-0.6689,-0.8561,-0.8448,-1.0839,-1.0216,-0.7003,-0.4089,-0.2911,-0.0494,0.3696,0.6302,0.6544,0.6796,0.7927,0.8629,0.9004,1.0677,1.2984,1.4467,1.6964,2.1395,2.319,2.3193,2.2855,2.0625,1.9711,2.0751,2.1661,2.1345,2.0128,2.0221,2.0108,1.9711,1.9039,1.8225,1.6677,1.5016,1.3441,1.2394,1.0404,0.8302,0.5849,0.3577,0.0859,-0.1985,-0.5393,-0.8702,-1.1734,-1.4327,-1.6861,-1.9165,-2.1526,-2.3528,-2.5299,-2.5194,-2.5489,-2.5352,-2.5324,-2.4906,-2.4305,-2.3976,-2.3473,-2.3867,-2.3964,-2.4292,-1.713,-1.5601,-0.9977,-0.5702,-0.2034,0.4157,0.5868,0.5595,1.0132,1.0809,0.9665,1.3705,1.6434,1.6383,1.6501,1.7162,1.7416,1.514,1.4016,1.3997,1.3727,1.2303,1.035,0.8683,0.7629,0.7112,0.5384,0.4149,0.3649,0.3711,0.299,0.2152,0.2169,0.1893,0.1344,0.2398,0.3512,0.3831,0.4198,0.3627,0.2142,0.0685,-0.2372,-0.5124,-0.6637,-0.7079,-0.6307,-0.6225,-0.6381,-0.6627,-0.7782,-0.9581,-1.1574,-1.3209,-1.3072,-1.0984,-0.8333,-0.684,-0.3994,0.0712,0.338,0.4326,0.5587,0.7126,0.7603,0.7709,0.9088,0.9789,1.1341,1.4588,1.8492,2.1629,2.3184,2.34,2.3534,2.3432,2.3305,2.2844,2.2449,2.144,2.0731,2.0495,1.9884,1.8931,1.7671,1.6352,1.473,1.3386,1.2074,0.9576,0.6757,0.4079,0.0511,-0.2849,-0.6193,-0.9613,-1.2534,-1.5462,-1.8195,-2.062,-2.1946,-2.4003,-2.4961,-2.6116,-2.6401,-2.6464,-2.6055,-2.5594,-2.4994,-2.4545,-2.4413,-2.4436,-2.4656,-2.4946,-2.54,-1.3426,-0.8411,-0.699,-0.2138,0.5145,1.1068,1.2729,1.221,1.6131,1.644,1.4084,1.5199,1.707,1.9421,1.7825,1.9196,2.1898,1.7057,1.5825,1.5226,1.4511,1.2864,1.1326,0.9039,0.7341,0.5967,0.3512,0.3301,0.3703,0.3907,0.3443,0.2995,0.2656,0.207,0.1434,0.1484,0.1784,0.1992,0.1212,-0.0056,-0.1889,-0.3687,-0.6801,-1.0386,-1.2167,-1.1226,-0.9707,-0.9247,-0.9252,-0.7922,-0.9177,-1.0628,-1.2096,-1.3648,-1.3172,-1.0575,-1.1306,-1.0144,-0.708,-0.4832,-0.1928,0.0761,0.3793,0.6578,0.8115,0.9316,0.906,0.9119,1.0296,1.3216,1.5944,2.0308,2.308,2.382,2.5144,2.4333,2.2113,2.2288,2.3033,2.2008,2.1027,2.0707,2.0249,1.9222,1.7451,1.6655,1.4885,1.3256,1.1185,0.8388,0.5027,0.1451,-0.2637,-0.7113,-1.0497,-1.3932,-1.6637,-1.9413,-2.2135,-2.4221,-2.4472,-2.5736,-2.609,-2.6671,-2.725,-2.7,-2.621,-2.5667,-2.5004,-2.4792,-2.4647,-2.4726,-2.4898,-2.5238,-2.5649,-0.6606,-0.4816,0.55,1.0279,1.216,1.8194,1.9978,1.8163,1.8231,1.7224,1.561,1.6272,1.6826,1.7157,1.819,1.9372,1.9667,1.7279,1.6174,1.5162,1.4323,1.3476,1.2334,1.039,0.8354,0.6524,0.4526,0.4529,0.5498,0.4918,0.4072,0.3265,0.3674,0.3224,0.1335,0.0846,0.0507,-0.0,-0.1458,-0.3175,-0.5165,-0.8052,-1.0823,-1.3409,-1.4777,-1.443,-1.3008,-1.2966,-1.3382,-1.3155,-1.2426,-1.265,-1.4226,-1.6012,-1.7033,-1.689,-1.3626,-1.2328,-1.2246,-0.8075,-0.2055,0.1321,0.1294,0.4662,1.3593,1.1079,1.0893,1.1766,1.3279,1.4754,1.6844,2.0744,2.2991,2.3902,2.5242,2.5931,2.4747,2.4328,2.3941,2.3097,2.2014,2.1132,2.0649,1.8979,1.7629,1.6766,1.5104,1.3208,1.0275,0.7072,0.276,-0.1424,-0.5725,-1.0105,-1.336,-1.6532,-1.9063,-2.1455,-2.4162,-2.6295,-2.6593,-2.6976,-2.7155,-2.7628,-2.8272,-2.7602,-2.6452,-2.5525,-2.4829,-2.4853,-2.4881,-2.4965,-2.5113,-2.5488,-2.561,-0.0216,0.3585,1.2493,1.756,1.989,2.2511,2.2953,2.1553,1.9777,1.8101,1.6709,1.6332,1.6181,1.6547,1.7353,1.783,1.8005,1.7015,1.586,1.5003,1.4314,1.3795,1.3008,1.1799,1.0082,0.7712,0.6286,0.6179,0.623,0.6023,0.5262,0.3987,0.4427,0.3202,0.1346,0.066,-0.0193,-0.1659,-0.49,-0.7388,-0.8981,-1.3202,-1.5792,-1.6293,-1.6806,-1.6145,-1.5184,-1.5322,-1.5827,-1.6111,-1.5882,-1.572,-1.6606,-1.8195,-2.0066,-2.059,-1.9591,-1.7451,-1.7303,-1.3892,-0.8966,-0.4329,-0.3945,0.1801,0.7736,0.8806,1.0812,1.3326,1.5461,1.7278,1.9214,2.0327,2.2308,2.3904,2.5221,2.5823,2.5273,2.4871,2.4418,2.3465,2.2241,2.107,1.9925,1.8524,1.7344,1.6351,1.3762,1.1684,0.8091,0.46,-0.0397,-0.4749,-0.903,-1.29,-1.6027,-1.879,-2.1026,-2.295,-2.4652,-2.6344,-2.7139,-2.7566,-2.7967,-2.8203,-2.8261,-2.7582,-2.6499,-2.5589,-2.4793,-2.4707,-2.4748,-2.4996,-2.5335,-2.5739,-2.565,0.5408,1.0751,1.5959,2.0768,2.3994,2.2472,2.1607,2.1611,2.025,1.8632,1.7998,1.613,1.6071,1.627,1.5893,1.6407,1.6853,1.6716,1.5649,1.479,1.4868,1.4164,1.3316,1.2502,1.1396,0.9042,0.7936,0.7263,0.6924,0.6617,0.6243,0.5393,0.473,0.3975,0.2267,0.1797,0.0784,-0.1677,-0.6488,-1.0901,-1.3372,-1.7918,-2.0165,-1.9257,-1.8644,-1.7818,-1.7517,-1.7796,-1.8131,-1.8389,-1.9766,-1.9835,-1.9617,-2.0139,-2.138,-2.2179,-2.256,-2.2674,-2.2095,-1.9712,-1.6733,-1.4796,-1.0198,-0.3453,0.2461,0.6451,0.9139,1.2767,1.5722,1.8074,2.0705,2.1458,2.1956,2.3338,2.4776,2.5061,2.4515,2.4329,2.3493,2.292,2.1657,2.0485,1.9368,1.8171,1.6988,1.5466,1.2753,0.9519,0.5745,0.1152,-0.4325,-0.8942,-1.3357,-1.5232,-1.8023,-1.9536,-2.1971,-2.3041,-2.4676,-2.5706,-2.6805,-2.6952,-2.7083,-2.7752,-2.771,-2.6937,-2.6235,-2.5366,-2.4775,-2.4579,-2.4738,-2.5084,-2.5522,-2.5989,-2.5702,0.8766,0.6762,1.6349,1.7979,1.4191,1.3965,1.5641,1.7018,1.7403,1.7933,1.8988,1.7729,1.6383,1.558,1.5058,1.5085,1.5537,1.5782,1.5698,1.5079,1.5209,1.4916,1.3982,1.3263,1.2183,1.0902,0.9643,0.8829,0.8425,0.784,0.7267,0.6937,0.6691,0.5842,0.5873,0.6725,0.3482,-0.2446,-0.7196,-1.1645,-1.6706,-2.0124,-2.1477,-1.9975,-1.9628,-1.9666,-1.9983,-2.092,-2.1716,-2.1701,-2.2899,-2.287,-2.2345,-2.2421,-2.2994,-2.3705,-2.4091,-2.4267,-2.3975,-2.3336,-1.8864,-1.4164,-1.1462,-0.5099,0.2763,0.6454,0.7793,1.0795,1.3417,1.5325,1.6837,1.8573,2.1439,2.2355,2.2773,2.3496,2.2985,2.2121,2.1224,2.0598,2.0027,1.938,1.7924,1.6556,1.5106,1.2854,0.9862,0.5602,0.0997,-0.4163,-0.9888,-1.4088,-1.8022,-1.8898,-1.9832,-2.0667,-2.201,-2.2359,-2.3473,-2.4282,-2.5133,-2.5533,-2.5989,-2.6799,-2.6765,-2.6012,-2.5377,-2.4919,-2.47,-2.4457,-2.4802,-2.5251,-2.5534,-2.5799,-2.57,0.7205,0.7048,1.3275,1.4084,1.1665,1.1833,1.4083,1.7029,1.708,1.8447,1.9974,1.9533,1.806,1.677,1.6031,1.5572,1.5229,1.5647,1.5825,1.5594,1.6064,1.5965,1.5056,1.4236,1.3387,1.2381,1.128,1.0086,0.9581,0.9202,0.8538,0.8118,0.8412,0.8197,0.6836,0.6039,0.3034,-0.348,-0.9312,-1.4845,-2.0015,-2.2679,-2.2273,-2.1539,-2.0808,-2.1101,-2.1914,-2.2968,-2.3846,-2.4078,-2.4594,-2.479,-2.4398,-2.3889,-2.3826,-2.4094,-2.4387,-2.4314,-2.4122,-2.3454,-2.0638,-1.632,-1.3831,-0.8259,-0.0752,0.271,0.4876,0.7132,0.6451,0.7601,1.0004,1.2801,1.4189,1.612,1.8092,1.9291,1.902,1.8285,1.7572,1.7187,1.723,1.6488,1.5476,1.4119,1.29,1.0289,0.6917,0.1971,-0.3463,-0.8625,-1.4057,-1.7123,-2.0148,-2.0344,-2.0541,-2.088,-2.1576,-2.1957,-2.2217,-2.3029,-2.3765,-2.4285,-2.5156,-2.6111,-2.5707,-2.5228,-2.5032,-2.4769,-2.455,-2.4498,-2.5144,-2.5608,-2.5543,-2.5538,-2.55,0.2781,0.4451,0.7323,0.8165,0.7724,0.8223,1.0849,1.4648,1.4491,1.6054,1.9522,1.8682,1.765,1.7357,1.7054,1.6553,1.5594,1.6107,1.6384,1.6655,1.7586,1.7534,1.653,1.5778,1.492,1.366,1.2439,1.1494,1.0598,1.0621,1.0173,1.0203,1.0816,1.0514,0.8817,0.7521,0.1481,-0.529,-1.188,-1.8039,-2.2058,-2.3096,-2.2903,-2.2318,-2.1465,-2.1723,-2.2878,-2.4177,-2.3317,-2.2801,-2.2722,-2.3222,-2.3345,-2.272,-2.2632,-2.3346,-2.4093,-2.3849,-2.3223,-2.2151,-2.0684,-1.798,-1.4538,-0.9985,-0.5827,-0.1789,0.0422,0.164,0.0804,-0.0167,0.2864,0.4087,0.5945,0.8429,1.1503,1.348,1.3215,1.2687,1.1935,1.2225,1.351,1.2906,1.1157,0.985,0.8215,0.5197,0.1806,-0.2527,-0.777,-1.1877,-1.6474,-1.9225,-2.1222,-2.1285,-2.1135,-2.063,-2.1091,-2.1309,-2.1309,-2.1616,-2.2435,-2.3184,-2.4169,-2.5066,-2.5315,-2.4946,-2.4765,-2.4714,-2.4602,-2.4834,-2.559,-2.5836,-2.5582,-2.5568,-2.5615,-0.4662,-0.7449,-0.2238,-0.2112,-0.466,-0.3614,-0.0279,0.4532,0.5826,0.7695,1.2291,1.2324,1.3371,1.4707,1.6818,1.7038,1.6877,1.7108,1.7444,1.7638,1.9105,1.9282,1.8182,1.7634,1.6286,1.4891,1.3284,1.2219,1.1804,1.2212,1.2421,1.2433,1.349,1.3571,1.0677,0.9852,0.656,-0.2667,-0.8972,-1.5109,-2.0608,-2.0416,-1.9249,-1.9371,-2.0394,-2.2041,-2.3557,-2.4611,-2.3024,-1.66,-1.6976,-1.6273,-1.4546,-1.4092,-1.7639,-2.1067,-2.3332,-2.3385,-2.2432,-2.0928,-1.9157,-1.7527,-1.4697,-1.1787,-0.8266,-0.6572,-0.5378,-0.5824,-0.5887,-0.5849,-0.4913,-0.175,0.0718,0.2299,0.3859,0.5885,0.668,0.7247,0.65,0.5349,0.6025,0.6384,0.5729,0.4598,0.3125,-0.0059,-0.3473,-0.7644,-1.1764,-1.5719,-1.8202,-2.0763,-2.1662,-2.1675,-2.1061,-2.0655,-2.0512,-2.0714,-2.0534,-2.0447,-2.129,-2.2186,-2.294,-2.3694,-2.4228,-2.5017,-2.5227,-2.514,-2.481,-2.4977,-2.5501,-2.5553,-2.5443,-2.5516,-2.564,-1.5162,-1.5727,-1.1011,-0.9666,-1.0442,-0.8611,-0.4624,-0.0116,0.181,0.4982,0.885,1.0214,1.1864,1.3895,1.5733,1.6365,1.6724,1.7399,1.8061,1.8678,1.9922,2.0417,1.9846,1.8931,1.762,1.6064,1.4798,1.3961,1.3541,1.3149,1.3271,1.4492,1.5614,1.4731,1.1174,1.0692,0.3672,-0.4616,-1.1244,-1.5841,-1.8723,-1.8339,-1.7562,-1.9256,-2.1285,-2.3165,-2.4847,-2.5546,-2.2583,-1.6546,-1.5449,-1.425,-1.2498,-1.1968,-1.3786,-2.0344,-2.0094,-2.0097,-2.0642,-1.9111,-1.7258,-1.4506,-1.1996,-0.9,-0.8316,-1.0214,-1.2493,-1.4853,-1.6373,-1.6473,-1.5494,-1.3193,-1.0195,-0.761,-0.3914,-0.1255,0.0418,0.1099,0.1002,-0.0315,-0.1513,-0.1117,-0.0612,-0.085,-0.2227,-0.4652,-0.7375,-1.0516,-1.4723,-1.8936,-2.0719,-2.1816,-2.2058,-2.1858,-2.0948,-2.0221,-1.9923,-1.9938,-1.9767,-1.9819,-2.0428,-2.1207,-2.2287,-2.3487,-2.4599,-2.5245,-2.5625,-2.5371,-2.4879,-2.503,-2.5297,-2.534,-2.5393,-2.5356,-2.5303,-2.3192,-2.1691,-1.7657,-1.5192,-1.3776,-1.146,-0.7953,-0.3717,-0.2143,0.1042,0.5058,0.7544,1.0378,1.3042,1.4543,1.6036,1.6683,1.7435,1.8349,1.9416,2.0488,2.1055,2.0526,1.9681,1.8459,1.6908,1.5371,1.4652,1.4346,1.4312,1.4617,1.5263,1.5647,1.3863,1.0521,0.7317,0.1773,-0.573,-0.9489,-1.2719,-1.4971,-1.3923,-1.615,-1.9219,-2.2287,-2.431,-2.6016,-2.5642,-2.2089,-1.4326,-1.1488,-0.9556,-0.7277,-0.6825,-0.964,-1.4977,-1.5953,-1.6048,-1.6368,-1.5543,-1.4293,-1.1868,-1.0164,-0.9666,-1.2079,-1.5139,-1.854,-2.1319,-2.3779,-2.533,-2.5859,-2.2959,-1.9508,-1.5273,-1.1571,-0.8546,-0.5815,-0.4845,-0.4443,-0.5474,-0.6901,-0.8657,-0.8017,-0.704,-0.7854,-0.9623,-1.1737,-1.382,-1.7282,-2.1337,-2.1978,-2.2486,-2.2214,-2.1927,-2.122,-2.0347,-1.9871,-1.9472,-1.9272,-1.945,-2.0193,-2.1223,-2.24,-2.3626,-2.4762,-2.5152,-2.5378,-2.5146,-2.4965,-2.5197,-2.537,-2.5369,-2.5374,-2.5278,-2.4822,-2.5815,-2.4924,-2.0849,-1.7989,-1.6008,-1.462,-1.2483,-0.9536,-0.8316,-0.6276,-0.2711,0.2226,0.6887,0.9624,1.3358,1.5669,1.6634,1.8249,1.8733,1.9786,2.1337,2.144,2.0787,1.9814,1.8768,1.7081,1.5535,1.4606,1.4773,1.5848,1.5142,1.4245,1.5819,1.1844,0.7286,0.3324,-0.0628,-0.5264,-0.5805,-0.6882,-0.8736,-0.9362,-1.1527,-1.8605,-2.1735,-2.3516,-2.5016,-2.374,-1.8532,-0.8724,-0.6864,-0.4407,-0.257,-0.2175,-0.5698,-1.0101,-1.1672,-1.1367,-1.0725,-1.1964,-1.1972,-1.0942,-1.0923,-1.2652,-1.6692,-1.9101,-2.2212,-2.5153,-2.742,-2.8648,-2.8808,-2.7903,-2.4607,-2.0855,-1.669,-1.3709,-1.139,-1.0427,-1.0239,-1.0778,-1.187,-1.3182,-1.4243,-1.2995,-1.1802,-1.3332,-1.4722,-1.6782,-1.8933,-2.2178,-2.2345,-2.2542,-2.2277,-2.1949,-2.156,-2.0881,-2.0098,-1.9831,-1.9737,-1.9843,-2.0247,-2.1392,-2.2677,-2.3373,-2.4358,-2.4736,-2.5154,-2.5203,-2.5271,-2.5372,-2.5435,-2.5385,-2.5023,-2.4689,-2.4074,-2.5157,-2.4527,-2.2425,-2.0583,-1.8838,-1.6847,-1.5084,-1.3453,-1.1764,-0.8803,-0.5163,-0.0101,0.398,0.7211,0.9929,1.2958,1.4637,1.5929,1.7245,1.879,2.0127,2.0728,2.0194,1.9623,1.8632,1.6847,1.5308,1.4533,1.4678,1.6041,1.36,1.309,1.5905,1.4439,0.9235,-0.1205,-0.6672,-0.656,-0.4624,-0.4066,-1.054,-0.7005,-0.8841,-1.8933,-2.0985,-2.2229,-2.2806,-2.1233,-1.5141,-0.9407,-0.6274,-0.3604,-0.1244,-0.1211,-0.3515,-0.7148,-0.7498,-0.5797,-0.6318,-0.8401,-1.0757,-1.1973,-1.2887,-1.5416,-2.0334,-2.2138,-2.4859,-2.7531,-2.9527,-3.0603,-3.0747,-2.9585,-2.7097,-2.4005,-2.0894,-1.7851,-1.6081,-1.4702,-1.4366,-1.4255,-1.5505,-1.6994,-1.7988,-1.8618,-1.7447,-1.6822,-1.8228,-1.9629,-2.1485,-2.2664,-2.2849,-2.2811,-2.2563,-2.1886,-2.1444,-2.0855,-2.0269,-2.0261,-2.0251,-2.0362,-2.0689,-2.1845,-2.2982,-2.3534,-2.4166,-2.4927,-2.5401,-2.5493,-2.5527,-2.5517,-2.5437,-2.5346,-2.4841,-2.4223,-2.3429,-2.4619,-2.4272,-2.353,-2.2299,-2.0644,-1.8576,-1.6998,-1.572,-1.3806,-1.0294,-0.5534,-0.2085,0.1388,0.4606,0.7517,1.0268,1.2928,1.4677,1.6195,1.7899,1.9436,1.9928,1.976,1.9213,1.8304,1.658,1.5356,1.4633,1.5382,1.5414,1.3097,1.2571,1.4164,1.1164,0.4056,-0.52,-1.1748,-0.8807,-0.6688,-0.4599,-1.1758,-0.9431,-1.0017,-1.9297,-2.1123,-2.1396,-2.1077,-1.9419,-1.5738,-1.1608,-0.9006,-0.7375,-0.5747,-0.4834,-0.53,-0.5131,-0.406,-0.1413,-0.1726,-0.5996,-1.0031,-1.2379,-1.565,-1.8313,-2.1537,-2.4689,-2.7429,-2.9691,-3.1229,-3.1903,-3.1747,-3.0044,-2.7945,-2.4761,-2.1883,-1.9084,-1.8312,-1.7248,-1.7349,-1.7472,-1.9035,-2.0477,-2.0723,-2.1409,-2.1022,-1.9977,-2.0054,-2.1227,-2.2547,-2.337,-2.3355,-2.3196,-2.292,-2.2125,-2.128,-2.1036,-2.0929,-2.1232,-2.1167,-2.0934,-2.1355,-2.2458,-2.3187,-2.3668,-2.436,-2.5265,-2.5554,-2.5533,-2.5546,-2.5569,-2.5443,-2.5284,-2.4615,-2.3936,-2.3021,-2.4764,-2.465,-2.4172,-2.2914,-2.1259,-1.9778,-1.8415,-1.6907,-1.4654,-1.1382,-0.7269,-0.4122,-0.097,0.2378,0.5428,0.8563,1.176,1.3879,1.5522,1.6916,1.8786,1.9408,1.9091,1.8449,1.8201,1.6917,1.5209,1.4658,1.572,1.1961,1.0347,0.7583,0.5206,0.2333,-0.4626,-0.8813,-0.867,-0.5142,-0.6496,-0.7845,-1.056,-1.1589,-1.5267,-2.021,-2.1306,-2.1274,-2.0659,-1.8742,-1.6041,-1.4635,-1.3616,-1.2175,-1.0451,-1.1063,-0.9827,-0.6051,-0.4662,-0.0469,0.4738,-0.3333,-0.9834,-1.48,-1.9016,-2.2122,-2.5523,-2.7981,-2.9376,-3.1254,-3.1815,-3.1838,-3.1149,-2.9887,-2.7758,-2.5447,-2.2594,-2.101,-2.0188,-2.003,-2.008,-2.0588,-2.2257,-2.3651,-2.3612,-2.3702,-2.3801,-2.3259,-2.2576,-2.2944,-2.3917,-2.4168,-2.4139,-2.3984,-2.3711,-2.3173,-2.2454,-2.1787,-2.1623,-2.1971,-2.2,-2.1667,-2.1852,-2.2718,-2.3359,-2.3824,-2.4505,-2.5346,-2.549,-2.5515,-2.5562,-2.5578,-2.5366,-2.5066,-2.4385,-2.3667,-2.2831,-2.5096,-2.5476,-2.448,-2.379,-2.3074,-2.137,-1.9745,-1.7855,-1.4675,-1.1648,-0.9075,-0.6276,-0.3013,0.0183,0.2626,0.5854,0.9739,1.1256,1.2887,1.5081,1.731,1.7329,1.7167,1.7627,1.7862,1.6441,1.4516,1.1849,1.0959,0.7406,0.2512,-0.1025,-0.5668,-0.8122,-0.839,-1.1386,-1.5091,-1.4189,-1.2909,-1.2478,-1.7267,-1.5808,-1.6625,-2.3075,-2.2063,-2.1424,-2.1245,-1.9077,-1.8614,-1.8752,-1.8331,-1.8147,-1.6978,-1.7625,-1.4263,-0.9541,-0.697,-0.505,-0.3508,-0.8734,-1.4431,-1.9246,-2.2863,-2.563,-2.854,-3.0093,-3.1285,-3.1856,-3.1964,-3.169,-3.0734,-2.9241,-2.7313,-2.5484,-2.3373,-2.2689,-2.2086,-2.2398,-2.2734,-2.3722,-2.5078,-2.5864,-2.6135,-2.5342,-2.523,-2.5311,-2.4558,-2.4367,-2.5112,-2.5123,-2.508,-2.4977,-2.4738,-2.4298,-2.3768,-2.3136,-2.2762,-2.2994,-2.2713,-2.2175,-2.2573,-2.3218,-2.372,-2.4288,-2.4832,-2.5336,-2.5478,-2.5592,-2.5609,-2.5559,-2.5392,-2.5028,-2.4422,-2.3637,-2.2743,-2.5088,-2.5539,-2.4815,-2.4363,-2.3903,-2.2065,-2.0184,-1.8137,-1.516,-1.2867,-1.0949,-0.8707,-0.5576,-0.2375,0.0064,0.2776,0.7236,0.9179,1.0503,1.2642,1.4816,1.4923,1.5156,1.5645,1.4919,1.3917,1.1473,0.8831,0.7484,0.3047,-0.3776,-1.1605,-1.7512,-1.6725,-1.5648,-1.7919,-2.0155,-1.9967,-1.9344,-1.9591,-2.2163,-2.203,-2.0944,-2.3125,-2.33,-2.2567,-2.1931,-2.1668,-2.1925,-2.2857,-2.3631,-2.4032,-2.3372,-2.1296,-1.8481,-1.4334,-0.9497,-0.8513,-0.9353,-1.1844,-1.772,-2.4291,-2.6514,-2.811,-2.9772,-3.0822,-3.1479,-3.1925,-3.19,-3.1253,-3.0216,-2.8705,-2.707,-2.5218,-2.4543,-2.3845,-2.4081,-2.4369,-2.508,-2.6088,-2.6907,-2.7701,-2.7783,-2.7209,-2.6459,-2.6539,-2.6482,-2.6357,-2.6142,-2.598,-2.5955,-2.5933,-2.5798,-2.5446,-2.5048,-2.4584,-2.4265,-2.412,-2.3581,-2.2939,-2.3301,-2.3958,-2.4354,-2.4713,-2.5161,-2.5502,-2.5611,-2.568,-2.5648,-2.5606,-2.5507,-2.5047,-2.4452,-2.3654,-2.2792,-2.4771,-2.5037,-2.5166,-2.4743,-2.3731,-2.2166,-2.0038,-1.7868,-1.6657,-1.4972,-1.3018,-1.1372,-0.833,-0.4775,-0.2447,0.0629,0.4246,0.7075,0.8808,1.0346,1.2363,1.2294,1.2234,1.2201,1.182,0.9543,0.7004,0.5064,0.4145,-0.4315,-1.2996,-1.8669,-2.1778,-2.2795,-2.3331,-2.3463,-2.4272,-2.5085,-2.566,-2.5596,-2.6479,-2.7565,-2.613,-2.6168,-2.5022,-2.4716,-2.4326,-2.4142,-2.5154,-2.6213,-2.7289,-2.7296,-2.6266,-2.4056,-2.2192,-1.8568,-1.2332,-1.1667,-1.3662,-1.6557,-2.0145,-2.6157,-2.86,-2.9459,-2.9911,-3.0768,-3.1159,-3.1149,-3.0939,-3.0527,-2.9804,-2.8311,-2.6806,-2.5926,-2.5356,-2.5329,-2.5769,-2.6311,-2.7067,-2.788,-2.8545,-2.8807,-2.7796,-2.7229,-2.6578,-2.7149,-2.7169,-2.7344,-2.7075,-2.6623,-2.6674,-2.6873,-2.6716,-2.6556,-2.6173,-2.5618,-2.5356,-2.5069,-2.4457,-2.3954,-2.4347,-2.4616,-2.4888,-2.5178,-2.5453,-2.5644,-2.5652,-2.5655,-2.5643,-2.5586,-2.5525,-2.5212,-2.4655,-2.3831,-2.2972,-2.4875,-2.5634,-2.5733,-2.5846,-2.5749,-2.4095,-2.2061,-1.9887,-1.7781,-1.5988,-1.4859,-1.3361,-1.0754,-0.7592,-0.6244,-0.2693,0.1028,0.4263,0.6419,0.825,0.9982,1.014,0.9959,0.9556,0.8907,0.6774,0.3973,0.0549,-0.3547,-1.1901,-1.7679,-2.2154,-2.4844,-2.7444,-2.8936,-2.9389,-2.9307,-2.9264,-2.9735,-2.9649,-2.9431,-2.9897,-2.8816,-2.7612,-2.6901,-2.6864,-2.7233,-2.7531,-2.8594,-2.9637,-2.9748,-2.913,-2.6486,-2.4866,-2.3056,-1.9583,-1.5793,-1.4573,-1.9023,-2.0799,-2.3273,-2.7146,-2.942,-2.9983,-3.0167,-3.0204,-3.0507,-3.024,-2.9792,-2.9311,-2.8897,-2.7693,-2.6583,-2.5983,-2.5814,-2.645,-2.688,-2.7625,-2.8333,-2.8459,-2.9181,-2.813,-2.7205,-2.6381,-2.5977,-2.7025,-2.7748,-2.8034,-2.8063,-2.7597,-2.7405,-2.7609,-2.737,-2.7118,-2.6849,-2.635,-2.6194,-2.5935,-2.5355,-2.498,-2.5243,-2.5452,-2.5497,-2.5534,-2.5639,-2.5644,-2.5615,-2.5619,-2.566,-2.5591,-2.5517,-2.5224,-2.4807,-2.3933,-2.3234,-2.4689,-2.5447,-2.5805,-2.636,-2.6645,-2.4961,-2.3349,-2.1973,-1.9428,-1.7684,-1.6677,-1.5264,-1.3097,-1.053,-0.8871,-0.5818,-0.1041,0.143,0.378,0.6181,0.7759,0.6965,0.6691,0.598,0.4389,0.2483,-0.0246,-0.3893,-0.8218,-1.3487,-1.9359,-2.3193,-2.6515,-2.9572,-3.1453,-3.2353,-3.2885,-3.2564,-3.2356,-3.2175,-3.1696,-3.1044,-2.9939,-2.8904,-2.852,-2.8982,-3.0065,-3.0624,-3.134,-3.2078,-3.1849,-2.9691,-2.6783,-2.4607,-2.3121,-2.0268,-1.9872,-2.0286,-2.3382,-2.4881,-2.6885,-2.8562,-2.9612,-2.9484,-2.949,-2.9372,-2.9393,-2.9206,-2.8558,-2.7992,-2.7645,-2.7164,-2.6486,-2.5802,-2.6538,-2.7322,-2.8061,-2.8794,-2.8932,-2.8916,-2.8279,-2.7145,-2.6226,-2.5459,-2.5626,-2.7018,-2.8182,-2.8782,-2.8876,-2.8687,-2.8408,-2.8414,-2.7968,-2.7528,-2.7306,-2.7133,-2.6929,-2.6696,-2.6273,-2.6056,-2.6231,-2.595,-2.5683,-2.5647,-2.5704,-2.5681,-2.5632,-2.5656,-2.5671,-2.5598,-2.5464,-2.5209,-2.4725,-2.3939,-2.3347,-2.4365,-2.4837,-2.5524,-2.6417,-2.6961,-2.5045,-2.4305,-2.4375,-2.1495,-1.9578,-1.8336,-1.6975,-1.495,-1.2292,-1.0282,-0.6777,-0.2653,0.026,0.2686,0.4411,0.4974,0.4499,0.3039,0.1188,0.0584,-0.2475,-0.5071,-0.6708,-0.9826,-1.447,-1.9245,-2.3155,-2.6905,-2.9902,-3.1928,-3.362,-3.4067,-3.3898,-3.354,-3.325,-3.2892,-3.2138,-3.0964,-2.9825,-2.954,-2.9774,-3.1482,-3.247,-3.3101,-3.3405,-3.2498,-3.0106,-2.6658,-2.3636,-2.2168,-2.2587,-2.289,-2.4549,-2.6323,-2.7758,-2.8785,-2.9565,-2.9538,-2.8856,-2.8561,-2.7928,-2.7698,-2.7624,-2.7024,-2.7037,-2.6794,-2.6637,-2.6133,-2.6126,-2.665,-2.7179,-2.7648,-2.8316,-2.8763,-2.8545,-2.7754,-2.6674,-2.6133,-2.553,-2.6139,-2.7438,-2.8666,-2.9493,-2.9944,-2.9887,-2.9719,-2.9485,-2.8822,-2.8363,-2.809,-2.7909,-2.7643,-2.7361,-2.7005,-2.6986,-2.7073,-2.6493,-2.574,-2.5812,-2.5901,-2.5728,-2.5664,-2.5653,-2.5611,-2.5546,-2.54,-2.5171,-2.4617,-2.3872,-2.3447,-2.421,-2.4515,-2.5532,-2.6641,-2.7456,-2.5879,-2.5218,-2.5167,-2.2799,-2.0797,-1.9059,-1.7667,-1.5641,-1.3049,-1.0379,-0.6543,-0.185,0.0389,0.2938,0.4217,0.4435,0.2863,0.1401,-0.04,-0.2063,-0.3643,-0.5864,-0.8715,-1.1792,-1.5473,-1.9147,-2.3102,-2.6601,-2.9206,-3.1702,-3.338,-3.3963,-3.4176,-3.4039,-3.3729,-3.3379,-3.1848,-3.0349,-2.9539,-2.9146,-3.0157,-3.1482,-3.2286,-3.3012,-3.3494,-3.1736,-2.8886,-2.5273,-2.301,-2.3167,-2.4654,-2.5642,-2.7044,-2.8438,-2.9536,-3.0076,-2.9928,-2.9429,-2.8289,-2.7313,-2.633,-2.5807,-2.5746,-2.5811,-2.5941,-2.6013,-2.5962,-2.596,-2.6279,-2.6598,-2.6814,-2.7141,-2.7796,-2.8423,-2.8008,-2.7261,-2.6694,-2.6169,-2.6349,-2.6923,-2.8031,-2.9484,-3.0546,-3.1323,-3.1547,-3.1331,-3.0975,-2.9926,-2.9386,-2.9017,-2.8602,-2.8285,-2.7948,-2.7595,-2.769,-2.7844,-2.7281,-2.6602,-2.6225,-2.6084,-2.5976,-2.5798,-2.552,-2.548,-2.545,-2.5236,-2.498,-2.4498,-2.3798,-2.3491,-2.4191,-2.4408,-2.5159,-2.6325,-2.7247,-2.6439,-2.5953,-2.5681,-2.4694,-2.3143,-2.0982,-1.8836,-1.6411,-1.3431,-1.0245,-0.6097,-0.1263,0.1094,0.3194,0.4534,0.363,0.1995,0.02,-0.1605,-0.3199,-0.4788,-0.7179,-1.0061,-1.3039,-1.5728,-1.8965,-2.2405,-2.5442,-2.8412,-3.0957,-3.2228,-3.321,-3.378,-3.377,-3.3754,-3.334,-3.1533,-3.0046,-2.9196,-2.8881,-2.9926,-3.1474,-3.2336,-3.3093,-3.2612,-3.078,-2.8226,-2.5612,-2.4256,-2.4895,-2.6373,-2.7584,-2.8467,-2.9725,-3.0352,-3.0416,-2.996,-2.8903,-2.7604,-2.6195,-2.5255,-2.4371,-2.4318,-2.4891,-2.5103,-2.504,-2.4964,-2.5121,-2.5329,-2.5581,-2.5781,-2.6714,-2.7793,-2.8574,-2.9063,-2.8365,-2.7733,-2.7415,-2.7662,-2.8254,-2.9075,-3.0477,-3.1695,-3.2464,-3.291,-3.2793,-3.2399,-3.1316,-3.0263,-2.9625,-2.9214,-2.8829,-2.8523,-2.8072,-2.8038,-2.7973,-2.7823,-2.7506,-2.7065,-2.6649,-2.6347,-2.6126,-2.5668,-2.5393,-2.5321,-2.506,-2.4756,-2.4237,-2.3667,-2.3101,-2.4164,-2.4379,-2.4742,-2.5741,-2.6906,-2.6665,-2.6488,-2.6463,-2.6554,-2.5618,-2.3656,-2.0487,-1.7925,-1.4445,-1.0394,-0.5971,-0.2336,0.0258,0.2808,0.3208,0.219,0.0666,-0.0867,-0.2538,-0.4015,-0.5994,-0.8235,-1.0559,-1.3038,-1.562,-1.8291,-2.1176,-2.4354,-2.7596,-2.9493,-3.1193,-3.2337,-3.2975,-3.328,-3.36,-3.2573,-3.1141,-2.9955,-2.8854,-2.825,-2.8959,-3.1073,-3.2479,-3.315,-3.1892,-2.9971,-2.7761,-2.6399,-2.5595,-2.6414,-2.7587,-2.8292,-2.9071,-2.9911,-3.0152,-3.0046,-2.9546,-2.8142,-2.674,-2.5323,-2.4253,-2.3357,-2.3116,-2.3709,-2.4015,-2.3943,-2.3926,-2.4076,-2.4101,-2.425,-2.4769,-2.6059,-2.7467,-2.8509,-2.943,-2.9208,-2.8493,-2.8716,-2.8922,-2.9615,-3.0431,-3.1439,-3.2625,-3.3525,-3.3707,-3.3744,-3.3349,-3.2615,-3.1567,-3.0483,-2.9773,-2.9382,-2.8631,-2.821,-2.8157,-2.813,-2.8063,-2.7954,-2.7794,-2.7393,-2.6842,-2.6229,-2.5708,-2.5469,-2.5178,-2.5047,-2.4723,-2.3997,-2.3367,-2.2539,-2.4136,-2.447,-2.4726,-2.5473,-2.6356,-2.6226,-2.6494,-2.7013,-2.6515,-2.5669,-2.4587,-2.3474,-2.0793,-1.6252,-1.1815,-0.7801,-0.4704,-0.158,-0.0257,0.0128,0.0131,-0.0861,-0.2002,-0.3339,-0.4667,-0.6623,-0.8635,-1.0282,-1.2755,-1.5265,-1.7823,-2.0548,-2.2611,-2.5124,-2.6913,-2.8892,-3.1076,-3.1844,-3.3261,-3.3958,-3.2684,-3.132,-2.9988,-2.9185,-2.8771,-2.975,-3.0983,-3.1707,-3.2038,-3.1222,-2.939,-2.7698,-2.689,-2.6625,-2.7181,-2.7662,-2.8425,-2.8639,-2.9087,-2.9273,-2.9117,-2.8217,-2.6874,-2.5878,-2.4581,-2.3444,-2.2532,-2.1731,-2.2105,-2.2353,-2.2381,-2.2429,-2.2488,-2.2297,-2.2309,-2.3431,-2.4614,-2.6361,-2.784,-2.8713,-2.9273,-2.9154,-2.9419,-2.9941,-3.0788,-3.1657,-3.2643,-3.3672,-3.3516,-3.3993,-3.4568,-3.4082,-3.3567,-3.2638,-3.1423,-3.0408,-2.9782,-2.896,-2.836,-2.8406,-2.8424,-2.8368,-2.8289,-2.8397,-2.7788,-2.7102,-2.6486,-2.6043,-2.527,-2.4983,-2.502,-2.4734,-2.3916,-2.3063,-2.2194]},{"header":{"parameterUnit":"m.s-1","parameterCategory":1,"la1":31.0,"la2":29.5877,"lo1":-88.7671,"lo2":-86.6584,"dy":0.0162,"dx":0.0185,"nx":115,"ny":88,"refTime":"2023-09-11T12:00:00:Z","depth":0,"parameterNumber":3,"parameterNumberName":"V-component_of_WINDS"},"data":[0.0,0.0,0.0,0.0,0.0,0.0,0.0,0.0,0.0,0.0,0.0,0.0,0.0,0.0,0.0,0.0,0.0,0.0,0.0,0.0,0.0,0.0,0.0,0.0,0.0,0.0,0.0,0.0,0.0,0.0,0.0,0.0,0.0,0.0,0.0,0.0,0.0,0.0,0.0,0.0,0.0,0.0,0.0,0.0,0.0,0.0,0.0,0.0,0.0,0.0,0.0,0.0,0.0,0.0,0.0,0.0,0.0,0.0,0.0,0.0,0.0,0.0,0.0,0.0,0.0,0.0,0.0,0.0,0.0,0.0,0.0,0.0,0.0,0.0,0.0,0.0,0.0,0.0,0.0,0.0,0.0,0.0,0.0,0.0,0.0,0.0,0.0,0.0,0.0,0.0,0.0,0.0,0.0,0.0,0.0,0.0,0.0,0.0,0.0,0.0,0.0,0.0,0.0,0.0,0.0,0.0,0.0,0.0,0.0,0.0,0.0,0.0,0.0,0.0,0.0,0.0,0.0,0.0,0.0,0.0,0.0,0.0,0.0,0.0,0.0,0.0,0.0,0.0,0.0,0.0,0.0,0.0,0.0,0.0,0.0,0.0,0.0,0.0,0.0,0.0,0.0,0.0,0.0,0.0,0.0,0.0,0.0,0.0,0.0,0.0,0.0,0.0,0.0,0.0,0.0,0.0,0.0,0.0,0.0,0.0,0.0,0.0,0.0,0.0,0.0,0.0,0.0,0.0,0.0,0.0,0.0,0.0,0.0,0.0,0.0,0.0,0.0,0.0,0.0,0.0,0.0,0.0,0.0,0.0,0.0,0.0,0.0,0.0,0.0,0.0,0.0,0.0,0.0,0.0,0.0,0.0,0.0,0.0,0.0,0.0,0.0,0.0,0.0,0.0,0.0,0.0,0.0,0.0,0.0,0.0,0.0,0.0,0.0,0.0,0.0,0.0,0.0,0.0,0.0,0.0,0.0,0.0,0.0,0.0,0.0,0.0,0.0,0.0,0.0,0.0,0.0,0.0,0.0,0.0,0.0,0.0,0.0,0.0,0.0,0.0,0.0,0.0,0.0,0.0,0.0,0.0,0.0,0.0,0.0,0.0,0.0,0.0,0.0,0.0,0.0,0.0,0.0,0.0,0.0,0.0,0.0,0.0,0.0,0.0,0.0,0.0,0.0,0.0,0.0,0.0,0.0,0.0,0.0,0.0,0.0,0.0,0.0,0.0,0.0,0.0,0.0,0.0,0.0,0.0,0.0,0.0,0.0,0.0,0.0,0.0,0.0,0.0,0.0,0.0,0.0,0.0,0.0,0.0,0.0,0.0,0.0,0.0,0.0,0.0,0.0,0.0,0.0,0.0,0.0,0.0,0.0,0.0,0.0,0.0,0.0,0.0,0.0,0.0,0.0,0.0,0.0,0.0,0.0,0.0,0.0,0.0,0.0,0.0,0.0,0.0,0.0,0.0,0.0,0.0,0.0,0.0,0.0,0.0,0.0,0.0,0.0,0.0,0.0,0.0,0.0,0.0,0.0,0.0,0.0,0.0,0.0,0.0,0.0,0.0,0.0,0.0,0.0,0.0,0.0,0.0,0.0,0.0,0.0,0.0,0.0,0.0,0.0,0.0,0.0,0.0,0.0,0.0,0.0,0.0,0.0,0.0,0.0,0.0,0.0,0.0,0.0,0.0,0.0,0.0,0.0,0.0,0.0,0.0,0.0,0.0,0.0,0.0,0.0,0.0,0.0,0.0,0.0,0.0,0.0,0.0,0.0,0.0,0.0,0.0,0.0,0.0,0.0,0.0,0.0,0.0,0.0,0.0,0.0,0.0,0.0,0.0,0.0,0.0,0.0,0.0,0.0,0.0,0.0,0.0,0.0,0.0,0.0,0.0,0.0,0.0,0.0,0.0,0.0,0.0,0.0,0.0,0.0,0.0,0.0,0.0,0.0,0.0,0.0,0.0,0.0,0.0,0.0,0.0,0.0,0.0,0.0,0.0,0.0,0.0,0.0,0.0,0.0,0.0,0.0,0.0,0.0,0.0,0.0,0.0,0.0,0.0,0.0,0.0,0.0,0.0,0.0,0.0,0.0,0.0,0.0,0.0,0.0,0.0,0.0,0.0,0.0,0.0,0.0,0.0,0.0,0.0,0.0,0.0,0.0,0.0,0.0,0.0,0.0,0.0,0.0,0.0,0.0,0.0,0.0,0.0,0.0,0.0,0.0,0.0,0.0,0.0,0.0,0.0,0.0,0.0,0.0,0.0,0.0,0.0,0.0,0.0,0.0,0.0,0.0,0.0,0.0,0.0,0.0,0.0,0.0,0.0,0.0,0.0,0.0,0.0,0.0,0.0,0.0,0.0,0.0,0.0,0.0,0.0,0.0,0.0,0.0,0.0,0.0,0.0,0.0,0.0,0.0,0.0,0.0,0.0,0.0,0.0,0.0,0.0,0.0,0.0,0.0,0.0,0.0,0.0,0.0,0.0,0.0,0.0,0.0,0.0,0.0,0.0,0.0,0.0,0.0,0.0,0.0,0.0,0.0,0.0,0.0,0.0,0.0,0.0,0.0,0.0,0.0,0.0,0.0,0.0,0.0,0.0,0.0,0.0,0.0,0.0,0.0,0.0,0.0,0.0,0.0,0.0,0.0,0.0,0.0,0.0,0.0,0.0,0.0,0.0,0.0,0.0,0.0,0.0,0.0,0.0,0.0,0.0,0.0,0.0,0.0,0.0,0.0,0.0,0.0,0.0,0.0,0.0,0.0,0.0,0.0,0.0,0.0,0.0,0.0,0.0,0.0,0.0,0.0,0.0,0.0,0.0,0.0,0.0,0.0,0.0,0.0,0.0,0.0,0.0,0.0,0.0,0.0,0.0,0.0,0.0,0.0,0.0,0.0,0.0,0.0,0.0,0.0,0.0,0.0,0.0,0.0,0.0,0.0,0.0,0.0,0.0,0.0,0.0,0.0,0.0,0.0,0.0,0.0,0.0,0.0,0.0,0.0,0.0,0.0,0.0,0.0,0.0,0.0,0.0,0.0,0.0,0.0,0.0,0.0,0.0,0.0,0.0,0.0,0.0,0.0,0.0,0.0,0.0,0.0,0.0,0.0,0.0,0.0,0.0,0.0,0.0,0.0,0.0,0.0,0.0,0.0,0.0,0.0,0.0,0.0,0.0,0.0,0.0,0.0,0.0,0.0,0.0,0.0,0.0,0.0,0.0,0.0,0.0,0.0,0.0,0.0,0.0,0.0,0.0,0.0,0.0,0.0,0.0,0.0,0.0,0.0,0.0,0.0,0.0,0.0,0.0,0.0,0.0,0.0,0.0,0.0,0.0,0.0,0.0,0.0,0.0,0.0,0.0,0.0,0.0,0.0,0.0,0.0,0.0,0.0,0.0,0.0,0.0,0.0,0.0,0.0,0.0,0.0,0.0,0.0,0.0,0.0,0.0,0.0,0.0,0.0,0.0,0.0,0.0,0.0,0.0,0.0,0.0,0.0,0.0,0.0,0.0,0.0,0.0,0.0,0.0,0.0,0.0,0.0,0.0,0.0,0.0,0.0,0.0,0.0,0.0,0.0,0.0,0.0,0.0,0.0,0.0,0.0,0.0,0.0,0.0,0.0,0.0,0.0,0.0,0.0,0.0,0.0,0.0,0.0,0.0,0.0,0.0,0.0,0.0,0.0,0.0,0.0,0.0,0.0,0.0,0.0,0.0,0.0,0.0,0.0,0.0,0.0,0.0,0.0,0.0,0.0,0.0,0.0,0.0,0.0,0.0,0.0,0.0,0.0,0.0,0.0,0.0,0.0,0.0,0.0,0.0,0.0,0.0,0.0,0.0,0.0,0.0,0.0,0.0,0.0,0.0,0.0,0.0,0.0,0.0,0.0,0.0,0.0,0.0,0.0,0.0,0.0,0.0,0.0,0.0,0.0,0.0,0.0,0.0,0.0,0.0,0.0,0.0,0.0,0.0,0.0,0.0,0.0,0.0,0.0,0.0,0.0,0.0,0.0,0.0,0.0,0.0,0.0,0.0,0.0,0.0,0.0,0.0,0.0,0.0,0.0,0.0,0.0,0.0,0.0,0.0,0.0,0.0,0.0,0.0,0.0,0.0,0.0,0.0,0.0,0.0,0.0,0.0,0.0,0.0,0.0,0.0,0.0,0.0,0.0,0.0,0.0,0.0,0.0,0.0,0.0,0.0,0.0,0.0,0.0,0.0,0.0,0.0,0.0,0.0,0.0,0.0,0.0,0.0,0.0,0.0,0.0,0.0,-0.0066,0.0,0.0,0.0,0.0,0.0,0.0,0.0,0.0,0.0,0.0,0.0,0.0,0.0,0.0,0.0,0.0,0.0,0.0,0.0,0.0,0.0,0.0,0.0,0.0,0.0,0.0,0.0,0.0,0.0,0.0,0.0,0.0,0.0,0.0,0.0,0.0,0.0,0.0,0.0,0.0,0.0,0.0,0.0,0.0,0.0,0.0,0.0,0.0,0.0,0.0,0.0,0.0,0.0,0.0,0.0,0.0,0.0,0.0,0.0,0.0,0.0,0.0,0.0,0.0,0.0,0.0,0.0,0.0,0.0,0.0,0.0,0.0,0.0,0.0,0.0,0.0,0.0,0.0,0.0,0.0,0.0,0.0,0.0,0.0,0.0,0.0,0.0,0.0,0.0,0.0,0.0,0.0,0.0,0.0,0.0,0.0,0.0,0.0,0.0,0.0,0.0,0.0,0.0,0.0,0.0,0.0,0.0,0.0,0.0,0.0,0.3445,0.2841,0.0791,-0.0154,0.0134,0.0,0.0,0.0,0.0,0.0,0.0,0.0,0.0,0.0,0.0,0.0,0.0,0.0,0.0,0.0,0.0,0.0,0.0,0.0,0.0,0.0,0.0,0.0,0.0,0.0,0.0,0.0,0.0,0.0,0.0,0.0,0.0,0.0,0.0,0.0,0.0,0.0,0.0,0.0,0.0,0.0,0.0,0.0,0.0,0.0,0.0,0.0,0.0,0.0,0.0,0.0,0.0,0.0,0.0,0.0,0.0,0.0,0.0,0.0,0.0,0.0,0.0,0.0,0.0,0.0,0.0,0.0,0.0,0.0,0.0,0.0,0.0,0.0,0.0,0.0,0.0,0.0,0.0,0.0,0.0,0.0,0.0,0.0,0.0,0.0,0.0,0.0,0.0,0.0,0.0,0.0,0.0,0.0,0.0,0.0,0.0,0.0,0.0,0.0,0.0,0.0,0.0,0.0,0.0,0.0,0.0,0.0,0.0,0.0,0.0,0.0,0.0,0.1071,-0.0158,-0.0164,0.0,0.0,0.0,0.0,0.0,0.0,0.0,0.0,0.0,0.0,0.0,0.0,0.0,0.0,0.0,0.0,0.0,0.0,0.0,0.0,0.0,0.0,0.0,0.0,0.0,0.0,0.0,0.0,0.0,0.0,0.0,0.0,0.0,0.0,0.0,0.0,0.0,0.0,0.0,0.0,0.0,0.0,0.0,0.0,0.0,0.0,0.0,0.0,0.0,0.0,0.0,0.0,0.0,0.0,0.0,0.0,0.0,0.0,0.0,0.0,0.0,0.0,0.0,0.0,0.0,0.0,0.0,0.0,0.0,0.0,0.0,0.0,0.0,0.0,0.0,0.0,0.0,0.0,0.0,0.0,0.0,0.0,0.0,0.0,0.0,0.0,0.0,0.0,0.0,0.0,0.0,0.0,0.0,0.0,0.0,0.0,0.0,0.0,0.0,0.0,0.0,0.0,0.0,0.0,0.0,0.0,0.0,0.0,0.0,0.0,0.4258,0.3166,0.1694,0.0,-0.1525,0.0,0.0,0.0,0.0,0.0,0.0,0.0,0.0,0.0,0.0,0.0,0.0,0.0,0.0,0.0,0.0,0.0,0.0,0.0,0.0,0.0,0.0,0.0,0.0,0.0,0.0,0.0,0.0,0.0,0.0,0.0,0.0,0.0,0.0,0.0,0.0,0.0,0.0,0.0,0.0,0.0,0.0,0.0,0.0,0.0,0.0,0.0,0.0,0.0,0.0,0.0,0.0,0.0,0.0,0.0,0.0,0.0,0.0,0.0,0.0,0.0,0.0,0.0,0.0,0.0,0.0,0.0,0.0,0.0,0.0,0.0,0.0,0.0,0.0,0.0,0.0,0.0,0.0,0.0,0.0,0.0,0.0,0.0,0.0,0.0,0.0,0.0,0.0,0.0,0.0,0.0,0.0,0.0,0.0,0.0,0.0,0.0,0.0,0.0,0.0,0.0,0.0,0.0,0.0,0.0,0.0,0.0,0.0,0.0,0.0,0.5445,0.4061,0.1603,-0.0098,0.0,0.0,0.0,0.0,0.0,0.0,0.0,0.0,0.0,0.0,0.0,0.0,0.0,0.0,0.0,0.0,0.0,0.0,0.0,0.0,0.0,0.0,0.0,0.0,0.0,0.0,0.0,0.0,0.0,0.0,0.0,0.0,0.0,0.0,0.0,0.0,0.0,0.0,0.0,0.0,0.0,0.0,0.0,0.0,0.0,0.0,0.0,0.0,0.0,0.0,0.0,0.0,0.0,0.0,0.0,0.0,0.0,0.0,0.0,0.0,0.0,0.0,0.0,0.0,0.0,0.0,0.0,0.0,0.0,0.0,0.0,0.0,0.0,0.0,0.0,0.0,0.0,0.0,0.0,0.0,0.0,0.0,0.0,0.0,0.0,0.0,0.0,0.0,0.0,0.0,0.0,0.0,0.0,0.0,0.0,0.0,0.0,0.0,0.0,0.0,0.0,0.0,0.0,0.0,0.0,0.0,0.0,0.0,0.0,0.0,0.6779,0.6067,0.4043,0.0775,-0.066,0.0,0.0,0.0,0.0,0.0,0.0,0.0,0.0,0.0,0.0,0.0,0.0,0.0,0.0,0.0,0.0,0.0,0.0,0.0,0.0,0.0,0.0,0.0,0.0,0.0,0.0,0.0,0.0,0.0,0.0,0.0,0.0,0.0,0.0,0.0,0.0,0.0,0.0,0.0,0.0,0.0,0.0,0.0,0.0,0.0,0.0,0.0,0.0,0.0,0.0,0.0,0.0,0.0,0.0,0.0,0.0,0.0,0.0,0.0,0.0,0.0,0.0,0.0,0.0,0.0,0.0,0.0,0.0,0.0,0.0,0.0,0.0,0.0,0.0,0.0,0.0,0.0,0.0,0.0,0.0,0.0,0.0,0.0,0.0,0.0,0.0,0.0,0.0,0.0,0.0,0.0,0.0,0.0,0.0,0.0,0.0,0.0,0.0,0.0,0.0,0.0,0.0,0.0,0.0,0.0,0.0,0.0,0.0,0.0,0.7575,0.7258,0.5624,0.2652,-0.0876,-0.1742,0.0,0.0,0.0,0.0,0.0,0.0,0.0,0.0,0.0,0.0,0.0,0.0,0.0,0.0,0.0,0.0,0.0,0.0,0.0,0.0,0.0,0.0,0.0,0.0,0.0,0.0,0.0,0.0,0.0,0.0,0.0,0.0,0.0,0.0,0.0,0.0,0.0,0.0,0.0,0.0,0.0,0.0,0.0,0.0,0.0,0.0,0.0,0.0,0.0,0.0,0.0,0.0,0.0,0.0,0.0,0.0,0.0,0.0,0.0,0.0,0.0,0.0,0.0,0.0,0.0,0.0,0.0,0.0,0.0,0.0,0.0,0.0,0.0,0.0,0.0,0.0,0.0,0.0,0.0,0.0,0.0,0.0,0.0,0.0,0.0,0.0,0.0,0.0,0.0,0.0,0.0,0.0,0.0,0.0,0.0,0.0,0.0,0.0,0.0,0.0,0.0,0.0,0.0,0.0,0.0,0.0,0.0,0.0,0.0,0.8144,0.5522,0.396,0.3575,-0.1203,-0.2371,0.0,0.0,0.0,0.0,0.0,0.0,0.0,0.0,0.0,0.0,0.0,0.0,0.0,0.0,0.0,0.0,0.0,0.0,0.0,0.0,0.0,0.0,0.0,0.0,0.0,0.0,0.0,0.0,0.0,0.0,0.0,0.0,0.0,0.0,0.0,0.0,0.0,0.0,0.0,0.0,0.0,0.0,0.0,0.0,0.0,0.0,0.0,0.0,0.0,0.0,0.0,0.0,0.0,0.0,0.0,0.0,0.0,0.0,0.0,0.0,0.0,0.0,0.0,0.0,0.0,0.0,0.0,0.0,0.0,0.0,0.0,0.0,0.0,0.0,0.0,0.0,0.0,0.0,0.0,0.0,0.0,0.0,0.0,0.0,0.0,0.0,0.0,0.0,0.0,0.0,0.0,0.0,0.0,0.0,0.0,0.0,0.0,0.0,0.0,0.0,0.0,0.0,0.0,0.0,0.0,0.0,0.0,0.0,0.0,0.9424,0.0,0.2283,0.2794,-0.224,-0.3308,0.0,0.0,0.0,0.0,0.0,0.0,0.0,0.0,0.0,0.0,0.0,0.0,0.0,0.0,0.0,0.0,0.0,0.0,0.0,0.0,0.0,0.0,0.0,0.0,0.0,0.0,0.0,0.0,0.0,0.0,0.0,0.0,0.0,0.0,0.0,0.0,0.0,0.0,0.0,0.0,0.0,0.0,0.0,0.0,0.0,0.0,0.0,0.0,0.0,0.0,0.0,0.0,0.0,0.0,0.0,0.0,0.0,0.0,0.0,0.0,0.0,0.0,0.0,0.0,0.0,0.0,0.0,0.0,0.0,0.0,0.0,0.0,0.0,0.0,0.0,0.0,0.0,0.0,0.0,0.0,0.0,0.0,0.0,0.0,0.0,0.0,0.0,0.0,0.0,0.0,0.0,0.0,0.0,0.0,0.0,0.0,0.0,0.0,0.0,0.0,0.0,0.0,0.0,0.0,0.0,0.0,0.0,0.0,0.9702,1.1369,0.4793,0.09,-0.0066,-0.4089,-0.4667,0.0,0.0,0.0,0.0,0.0,0.0,0.0,0.0,0.0,0.0,0.0,0.0,0.0,0.0,0.0,0.0,0.0,0.0,0.0,0.0,0.0,0.0,0.0,0.0,0.0,0.0,0.0,0.0,0.0,0.0,0.0,0.0,0.0,0.0,0.0,0.0,0.0,0.0,0.0,0.0,0.0,0.0,0.0,0.0,0.0,0.0,0.0,0.0,0.0,0.0,0.0,0.0,0.0,0.0,0.0,0.0,0.0,0.0,0.0,0.0,0.0,0.0,0.0,0.0,0.0,0.0,0.0,0.0,0.0,0.0,0.0,0.0,0.0,0.0,0.0,0.0,0.0,0.0,0.0,0.0,0.0,0.0,0.0,0.0,0.0,0.0,0.0,0.0,0.0,0.0,0.0,0.0,0.0,0.0,0.0,0.0,0.0,0.0,0.0,0.0,0.0,0.0,0.0,0.0,0.0,0.0,0.0,0.0,0.0,1.3231,0.4865,0.108,0.2375,-0.5029,-0.656,0.0,0.0,0.0,0.0,0.0,0.0,0.0,0.0,0.0,0.0,0.0,0.0,0.0,0.0,0.0,0.0,0.0,0.0,0.0,0.0,0.0,0.0,0.0,0.0,0.0,0.0,0.0,0.0,0.0,0.0,0.0,0.0,0.0,0.0,0.0,0.0,0.0,0.0,0.0,0.0,0.0,0.0,0.0,0.0,0.0,0.0,0.0,0.0,0.0,0.0,0.0,0.0,0.0,0.0,0.0,0.0,0.0,0.0,0.0,0.0,0.0,0.0,0.0,0.0,0.0,0.0,0.0,0.0,0.0,0.0,0.0,0.0,0.0,0.0,0.0,0.0,0.0,0.0,0.0,0.0,0.0,0.0,0.0,0.0,0.0,0.0,0.0,0.0,0.0,0.0,0.0,0.0,0.0,0.0,0.0,0.0,0.0,0.0,0.0,0.0,0.0,0.0,0.0,0.0,0.0,0.0,0.0,0.0,0.0,1.3571,0.5588,0.1475,0.2172,-0.4044,-0.5548,-0.169,0.0,0.0,0.0,0.0,0.0,0.0,0.0,0.0,0.0,0.0,0.0,0.0,0.0,0.0,0.0,0.0,0.0,0.0,0.0,0.0,0.0,0.0,0.0,0.0,0.0,0.0,0.0,0.0,0.0,0.0,0.0,0.0,0.0,0.0,0.0,0.0,0.0,0.0,0.0,0.0,0.0,0.0,0.0,0.0,0.0,0.0,0.0,0.0,0.0,0.0,0.0,0.0,0.0,0.0,0.0,0.0,0.0,0.0,0.0,0.0,0.0,0.0,0.0,0.0,0.0,0.0,0.0,0.0,0.0,0.0,0.0,0.0,0.0,0.0,0.0,0.0,0.0,0.0,0.0,0.0,0.0,0.0,0.0,0.0,0.0,0.0,0.0,0.0,0.0,0.0,0.0,0.0,0.0,0.0,0.0,0.0,0.0,0.0,0.0,0.0,0.0,0.0,0.0,0.0,0.0,0.0,0.0,0.0,1.3186,0.6868,0.2268,-0.0338,-0.1573,-0.2279,0.0,0.0,0.0,0.0,0.0,0.0,0.0,0.0,0.0,0.0,0.0,0.0,0.0,0.0,0.0,0.0,0.0,0.0,0.0,0.0,0.0,0.0,0.0,0.0,0.0,0.0,0.0,0.0,0.0,0.0,0.0,0.0,0.0,0.0,0.0,0.0,0.0,0.0,0.0,0.0,0.0,0.0,0.0,0.0,0.0,0.0,0.0,0.0,0.0,0.0,0.0,0.0,0.0,0.0,0.0,0.0,0.0,0.0,0.0,0.0,0.0,0.0,0.0,0.0,0.0,0.0,0.0,0.0,0.0,0.0,0.0,0.0,0.0,0.0,0.0,0.0,0.0,0.0,0.0,0.0,0.0,0.0,0.0,0.0,0.0,0.0,0.0,0.0,0.0,0.0,0.0,0.0,0.0,0.0,0.0,0.0,0.0,0.0,0.0,0.0,0.0,0.0,0.0,0.0,0.0,0.0,0.0,0.0,0.0,1.1937,0.8254,0.5466,0.3795,-0.0207,-0.1384,0.0,0.0,0.0,0.0,0.0,0.0,0.0,0.0,0.0,0.0,0.0,0.0,0.0,0.0,0.0,0.0,0.0,0.0,0.0,0.0,0.0,0.0,0.0,0.0,0.0,0.0,0.0,0.0,0.0,0.0,0.0,0.0,0.0,0.0,0.0,0.0,0.0,0.0,0.0,0.0,0.0,0.0,0.0,0.0,0.0,0.0,0.0,0.0,0.0,0.0,0.0,0.0,0.0,0.0,0.0,0.0,0.0,0.0,0.0,0.0,0.0,0.0,0.0,0.0,0.0,0.0,0.0,0.0,0.0,0.0,0.0,0.0,0.0,0.0,0.0,0.0,0.0,0.0,0.0,0.0,0.0,0.0,0.0,0.0,0.0,0.0,0.0,0.0,0.0,0.0,0.0,0.0,0.0,0.0,0.0,0.0,0.0,0.0,0.0,0.0,0.0,0.0,0.0,0.0,0.0,0.0,0.0,0.0,1.2363,1.1112,0.9157,0.7544,0.6274,0.2729,0.1281,0.0,0.0,0.0,0.0,0.0,0.0,0.0,0.0,0.0,0.0,0.0,0.0,0.0,0.0,0.0,0.0,0.0,0.0,0.0,0.0,0.0,0.0,0.0,0.0,0.0,0.0,0.0,0.0,0.0,0.0,0.0,0.0,0.0,0.0,0.0,0.0,0.0,0.0,0.0,0.0,0.0,0.0,0.0,0.0,0.0,0.0,0.0,0.0,0.0,0.0,0.0,0.0,0.0,0.0,0.0,0.0,0.0,0.0,0.0,0.0,0.0,0.0,0.0,0.0,0.0,0.0,0.0,0.0,0.0,0.0,0.0,0.0,0.0,0.0,0.0,0.0,0.0,0.0,0.0,0.0,0.0,0.0,0.0,0.0,0.0,0.0,0.0,0.0,0.0,0.0,0.0,0.0,0.0,0.0,0.0,0.0,0.0,0.0,0.0,0.0,0.0,0.0,0.0,0.0,0.0,0.0,0.0,0.0,1.197,1.051,0.9675,0.8661,0.7448,0.6199,0.4793,0.0,0.0,0.0,0.0,0.0,0.0,0.0,0.0,0.0,0.0,0.0,0.0,0.0,0.0,0.0,0.0,0.0,0.0,0.0,0.0,0.0,0.0,0.0,0.0,0.0,0.0,0.0,0.0,0.0,0.0,0.0,0.0,0.0,0.0,0.0,0.0,0.0,0.0,0.0,0.0,0.0,0.0,0.0,0.0,0.0,0.0,0.0,0.0,0.0,0.0,0.0,0.0,0.0,0.0,0.0,0.0,0.0,0.0,0.0,0.0,0.0,0.0,0.0,0.0,0.0,0.0,0.0,0.0,0.0,0.0,0.0,0.0,0.0,0.0,0.0,0.0,0.0,0.0,0.0,0.0,0.0,0.0,0.0,0.0,0.0,0.0,0.0,0.0,0.0,0.0,0.0,0.0,0.0,0.0,0.0,0.0,0.0,0.0,0.0,0.0,0.0,0.0,0.0,0.0,0.0,0.0,0.0,0.0,1.1634,1.1031,0.968,0.873,0.8186,0.7585,0.6683,0.0,0.0,0.0,0.0,0.0,0.0,0.0,0.0,0.0,0.0,0.0,0.0,0.0,0.0,0.0,0.0,0.0,0.0,0.0,0.0,0.0,0.0,0.0,0.0,0.0,0.0,0.0,0.0,0.0,0.0,0.0,0.0,0.0,0.0,0.0,0.0,0.0,0.0,0.0,0.0,0.0,0.0,0.0,0.0,0.0,0.0,0.0,0.0,1.734,0.0,0.0,0.0,0.0,0.0,0.0,0.0,0.0,0.0,0.0,0.0,0.0,0.0,0.0,0.0,0.0,0.0,0.0,0.0,0.0,0.0,0.0,0.0,0.0,0.0,0.0,0.0,0.0,0.0,0.0,0.0,0.0,0.0,0.0,0.0,0.0,0.0,0.0,0.0,0.0,0.0,0.0,0.0,0.0,0.0,0.0,0.0,0.0,0.0,0.0,0.0,0.0,0.0,0.0,0.0,0.0,0.0,0.0,0.0,1.216,1.1409,1.0606,0.994,0.9318,0.9478,0.8949,0.0,0.0,0.0,0.0,0.0,0.0,0.0,0.0,0.0,0.0,0.0,0.0,0.0,0.0,0.0,0.0,0.0,0.0,0.0,0.0,0.0,0.0,0.0,0.0,0.0,0.0,0.0,0.0,0.0,0.0,0.0,0.0,0.0,0.0,0.0,0.0,0.0,0.0,0.0,0.0,0.0,0.0,0.0,0.0,0.0,0.0,0.0,0.0,0.0,0.0,0.0,0.0,0.0,0.0,0.0,0.0,0.0,0.0,0.0,0.0,0.0,0.0,0.0,0.0,0.0,0.0,0.0,0.0,0.0,0.0,0.0,0.0,0.0,0.0,0.0,0.0,0.0,0.0,0.0,0.0,0.0,0.0,0.0,0.0,0.0,0.0,0.0,0.0,0.0,0.0,0.0,0.0,0.0,0.0,0.0,0.0,0.0,0.0,0.0,0.0,0.0,0.0,0.0,0.0,0.0,0.0,0.0,1.4178,1.3012,1.1929,1.1845,1.1448,1.0624,1.134,1.1234,1.0104,0.0,0.0,0.0,0.0,0.0,0.0,0.0,0.0,0.0,0.0,0.0,0.0,0.0,0.0,0.0,0.0,0.0,0.0,0.0,0.0,0.0,0.0,0.0,0.0,0.0,0.0,0.0,0.0,0.0,0.0,0.0,0.0,0.0,0.0,0.0,0.0,0.0,0.0,1.4143,1.4714,0.0,0.0,0.0,0.0,0.0,0.0,0.0,0.0,1.593,0.0,0.0,0.0,0.0,0.0,0.0,0.0,0.0,0.0,0.0,0.0,0.0,0.0,0.0,0.0,0.0,0.0,0.0,0.0,0.0,0.0,0.0,0.0,0.0,0.0,0.0,0.0,0.0,0.0,0.0,0.0,0.0,0.0,0.0,0.0,0.0,0.0,0.0,0.0,0.0,0.0,0.0,0.0,0.0,0.0,0.0,0.0,0.0,0.0,0.0,0.0,0.0,0.0,0.0,0.0,0.0,1.5335,1.4337,1.3613,1.3124,1.2728,1.2297,1.1842,1.2274,1.2998,1.3811,0.0,0.0,0.0,0.0,0.0,0.0,0.0,0.0,0.0,0.0,0.0,0.0,0.0,0.0,0.0,0.0,0.0,0.0,0.0,0.0,0.0,0.0,0.0,0.0,0.0,0.0,0.0,0.0,0.0,0.0,0.0,0.0,0.0,0.0,0.0,0.0,0.0,0.0,0.0,1.5301,1.5958,0.0,0.0,0.0,0.0,0.0,0.0,0.0,0.0,1.6317,0.0,0.0,0.0,0.0,0.0,0.0,0.0,0.0,0.0,0.0,0.0,0.0,0.0,0.0,0.0,0.0,0.0,0.0,0.0,0.0,0.0,0.0,0.0,0.0,0.0,0.0,0.0,0.0,0.0,0.0,0.0,0.0,0.0,0.0,0.0,0.0,0.0,0.0,0.0,0.0,0.0,0.0,0.0,0.0,0.0,0.0,0.0,0.0,0.0,0.0,0.0,0.0,0.0,0.0,0.0,1.624,1.4848,1.4077,1.4023,1.3902,1.3717,1.3465,1.3758,1.4364,0.0,0.0,0.0,0.0,0.0,0.0,0.0,0.0,0.0,0.0,0.0,0.0,0.0,0.0,0.0,0.0,0.0,0.0,0.0,0.0,0.0,0.0,0.0,0.0,0.0,0.0,0.0,0.0,0.0,0.0,0.0,0.0,0.0,0.0,0.0,0.0,0.0,0.0,0.0,0.0,1.4776,1.4662,1.3984,0.0,0.0,0.0,0.0,0.0,0.0,1.5969,1.5915,0.0,0.0,0.0,0.0,0.0,0.0,0.0,0.0,0.0,0.0,0.0,0.0,0.0,0.0,0.0,0.0,0.0,0.0,0.0,0.0,0.0,0.0,0.0,0.0,0.0,0.0,0.0,0.0,0.0,0.0,0.0,0.0,0.0,0.0,0.0,0.0,0.0,0.0,0.0,0.0,0.0,0.0,0.0,0.0,0.0,0.0,0.0,0.0,0.0,0.0,0.0,0.0,0.0,0.0,0.0,1.7229,1.5578,1.4704,1.4745,1.4845,1.487,1.4769,1.4948,1.5306,0.0,0.0,0.0,0.0,0.0,0.0,0.0,0.0,0.0,0.0,0.0,0.0,0.0,0.0,0.0,0.0,0.0,0.0,0.0,0.0,0.0,0.0,0.0,0.0,0.0,0.0,0.0,0.0,0.0,0.0,0.0,0.0,0.0,0.0,0.0,0.0,0.0,0.0,0.0,0.0,0.0,1.3667,1.2638,1.3147,0.0,0.0,0.0,0.0,1.6892,1.6105,0.0,0.0,0.0,0.0,0.0,0.0,0.0,0.0,0.0,0.0,0.0,0.0,0.0,0.0,0.0,0.0,0.0,0.0,0.0,0.0,0.0,0.0,0.0,0.0,0.0,0.0,0.0,0.0,0.0,0.0,0.0,0.0,0.0,0.0,0.0,0.0,0.0,0.0,0.0,0.0,0.0,0.0,0.0,0.0,0.0,0.0,0.0,0.0,0.0,0.0,0.0,0.0,0.0,0.0,0.0,0.0,1.7545,1.6581,1.577,1.5166,1.5045,1.4979,1.4971,1.495,1.5642,0.0,0.0,0.0,0.0,0.0,0.0,0.0,0.0,0.0,0.0,0.0,0.0,0.0,0.0,0.0,0.0,0.0,0.0,0.0,0.0,0.0,0.0,0.0,0.0,0.0,0.0,0.0,0.0,0.0,0.0,0.0,0.0,0.0,0.0,0.0,0.0,0.0,0.0,0.0,0.0,0.0,1.4941,1.4219,1.3718,1.3448,0.0,0.0,1.4641,1.546,1.6463,0.0,0.0,0.0,0.0,0.0,0.0,0.0,0.0,0.0,0.0,0.0,0.0,0.0,0.0,0.0,0.0,0.0,0.0,0.0,0.0,0.0,0.0,0.0,0.0,0.0,0.0,0.0,0.0,0.0,0.0,0.0,0.0,0.0,0.0,0.0,0.0,0.0,0.0,0.0,0.0,0.0,0.0,0.0,0.0,0.0,0.0,0.0,0.0,0.0,0.0,0.0,0.0,0.0,0.0,0.0,1.7896,1.7459,1.5998,1.5133,1.4968,1.4763,1.4712,1.4833,1.477,1.5508,0.0,0.0,0.0,0.0,0.0,0.0,0.0,0.0,0.0,0.0,0.0,0.0,0.0,0.0,0.0,0.0,0.0,0.0,0.0,0.0,0.0,0.0,0.0,0.0,0.0,0.0,0.0,0.0,0.0,0.0,0.0,0.0,0.0,0.0,0.0,0.0,0.0,0.0,0.0,0.0,0.0,0.0,1.4027,1.3574,0.0,0.0,0.0,1.4496,1.6285,0.0,0.0,0.0,0.0,0.0,0.0,0.0,0.0,0.0,0.0,0.0,0.0,0.0,0.0,0.0,0.0,0.0,0.0,0.0,0.0,0.0,0.0,0.0,0.0,0.0,0.0,0.0,0.0,0.0,0.0,0.0,0.0,0.0,0.0,0.0,0.0,0.0,0.0,0.0,0.0,0.0,0.0,0.0,0.0,0.0,0.0,0.0,0.0,0.0,0.0,0.0,0.0,0.0,0.0,0.0,0.0,0.0,1.7224,1.5275,1.4393,1.4625,1.4396,1.4362,1.4518,1.4484,0.0,0.0,0.0,0.0,0.0,0.0,0.0,0.0,0.0,0.0,0.0,0.0,0.0,0.0,0.0,0.0,0.0,0.0,0.0,0.0,0.0,0.0,0.0,0.0,0.0,0.0,0.0,1.1947,0.0,0.0,0.0,0.0,0.0,0.0,0.0,0.0,0.0,0.0,0.0,0.0,0.0,0.0,1.5687,1.3539,1.3278,1.3151,0.0,0.0,1.4759,1.7046,1.745,1.8182,0.0,0.0,0.0,0.0,0.0,0.0,0.0,0.0,0.0,0.0,0.0,0.0,0.0,0.0,0.0,0.0,0.0,0.0,0.0,0.0,0.0,0.0,0.0,0.0,0.0,0.0,0.0,0.0,0.0,0.0,0.0,0.0,0.0,0.0,0.0,0.0,0.0,0.0,0.0,0.0,0.0,0.0,0.0,0.0,0.0,0.0,0.0,0.0,0.0,0.0,0.0,0.0,0.0,0.0,1.6888,1.6777,1.4917,1.4027,1.4226,1.4037,1.3952,1.4047,1.41,1.4775,0.0,0.0,0.0,0.0,0.0,0.0,0.0,0.0,0.0,0.0,0.0,0.0,0.0,0.0,0.0,0.0,0.0,0.0,0.0,0.0,0.0,0.0,0.0,0.0,0.0,0.0,0.0,0.0,0.0,0.0,0.0,0.0,0.0,0.0,0.0,0.0,0.0,0.0,0.0,0.0,0.0,1.5744,1.3194,1.2894,1.2985,0.0,1.428,1.5647,1.6926,1.7964,1.8807,1.9495,0.0,0.0,0.0,0.0,0.0,0.0,0.0,0.0,0.0,0.0,0.0,0.0,0.0,0.0,0.0,0.0,0.0,0.0,0.0,0.0,0.0,0.0,0.0,0.0,0.0,0.0,0.0,0.0,0.0,0.0,0.0,0.0,0.0,0.0,0.0,0.0,0.0,0.0,0.0,0.0,0.0,0.0,0.0,0.0,0.0,0.0,0.0,0.0,0.0,0.0,0.0,0.0,0.0,1.6165,1.5623,1.38,1.3191,1.384,1.3415,1.3338,1.3687,1.3707,1.396,0.0,0.0,0.0,0.0,0.0,0.0,0.0,0.0,0.0,0.0,0.0,0.0,0.0,0.0,0.0,0.0,0.0,0.0,0.0,0.0,0.0,0.0,0.0,0.0,0.0,0.0,0.0,0.0,0.77,0.7413,0.8074,0.0,0.0,0.0,0.0,0.0,0.0,0.0,0.0,0.0,0.0,1.6369,1.4907,1.4514,0.0,0.0,1.5282,1.643,1.7156,1.8088,1.9049,2.0072,2.004,0.0,0.0,0.0,0.0,0.0,0.0,0.0,0.0,0.0,0.0,0.0,0.0,0.0,0.0,0.0,0.0,0.0,0.0,0.0,0.0,0.0,0.0,0.0,0.0,0.0,0.0,0.0,0.0,0.0,0.0,0.0,0.0,0.0,0.0,0.0,0.0,0.0,0.0,0.0,0.0,0.0,0.0,0.0,0.0,0.0,0.0,0.0,0.0,0.0,0.0,0.0,0.0,1.5565,1.4698,1.3214,1.2789,1.3517,1.2855,1.2804,1.3439,1.339,1.3393,0.0,0.0,0.0,0.0,0.0,0.0,0.0,0.0,0.0,0.0,0.0,0.0,0.0,0.0,0.0,0.0,0.0,0.0,0.0,0.0,0.0,0.0,0.0,0.0,0.0,0.0,0.0,0.0,0.5828,0.5406,0.5905,0.0,0.0,0.0,0.0,0.0,0.0,0.0,0.0,0.0,0.0,1.529,1.5503,1.5582,1.5454,1.4981,1.5891,1.6715,1.6976,1.7559,1.8522,2.0104,0.0,0.0,0.0,0.0,0.0,0.0,0.0,0.0,0.0,0.0,0.0,0.0,0.0,0.0,0.0,0.0,0.0,0.0,0.0,0.0,0.0,0.0,0.0,0.0,0.0,0.0,0.0,0.4732,0.0,0.0,-0.1939,0.0,0.0,0.0,0.0,0.0,0.0,0.0,0.0,0.0,0.0,0.0,0.0,0.0,0.0,0.0,0.0,0.0,0.0,0.0,0.0,0.0,0.0,1.5277,1.4245,1.3331,1.3023,1.321,1.2415,1.2441,1.3374,1.3154,1.3206,1.357,0.0,0.0,0.0,0.0,0.0,0.0,0.0,0.0,0.0,0.0,0.0,0.0,0.0,0.0,0.0,0.0,0.0,0.0,0.0,0.0,0.0,0.0,0.0,0.0,0.0,0.0,0.7887,0.434,0.2114,0.0,0.0,0.0,0.0,0.0,0.0,0.0,0.0,0.0,0.9376,1.0515,1.2036,1.4457,1.5695,1.6116,1.5362,1.5988,1.6454,1.625,1.6345,1.709,0.0,0.0,0.0,0.0,0.0,0.0,0.0,0.0,0.0,0.0,0.0,0.0,0.0,0.0,0.0,0.0,0.0,0.0,0.0,0.0,0.0,0.0,0.0,0.0,0.0,0.0,0.0,0.586,0.3183,0.0,0.0,0.0,0.0,0.0,0.0,0.0,0.0,0.0,0.0,0.0,-1.0714,-1.0168,0.0,0.0,0.0,0.0,0.0,0.0,0.0,0.0,0.0,0.0,0.0,0.0,1.4823,1.4132,1.2003,1.1965,1.4064,1.1928,1.1754,1.386,1.3343,1.2958,1.2858,0.0,0.0,0.0,0.0,0.0,0.0,0.0,0.0,0.0,0.0,0.0,0.0,0.0,0.0,0.0,0.0,0.0,0.0,0.0,0.0,0.0,0.0,0.0,0.0,0.0,0.7043,0.0,0.0,0.0,0.0,0.0,0.0,0.0,0.0,0.0,0.0,0.0,0.6215,0.8938,1.0446,1.251,1.5884,1.6999,1.7366,0.0,0.0,0.0,0.0,0.0,0.0,0.0,0.0,0.0,0.0,0.0,0.0,0.0,0.0,1.9837,2.0271,2.0342,2.0324,2.0292,0.0,0.0,0.0,0.0,0.0,0.0,0.0,0.0,0.0,0.0,0.0,0.0,0.0,0.0,0.5085,0.2243,-0.0148,0.0,0.0,0.0,0.0,0.0,0.0,0.0,0.0,-0.9754,-1.0931,-1.0407,-1.0634,-1.0634,0.0,-0.9753,-0.7097,0.0,0.0,0.0,0.0,0.0,0.0,0.0,0.0,1.3583,1.2808,1.1044,1.1235,1.3341,1.1568,1.1768,1.4283,1.3488,1.2776,1.2298,1.1809,1.1879,0.0,0.0,0.0,0.0,0.0,0.0,0.0,0.0,0.0,0.0,0.0,0.0,0.0,0.0,0.0,0.0,0.0,0.0,0.0,0.0,0.0,0.0,0.0,0.6037,0.0,0.0,0.0,0.0,0.0,0.0,0.0,0.0,0.0,0.2152,0.0917,0.079,0.3888,0.6481,0.9737,1.4329,0.0,0.0,0.0,0.0,0.0,0.0,0.0,1.7411,1.821,1.7537,1.7485,1.925,1.9606,1.9735,2.0076,0.0,0.0,2.024,2.0122,2.0069,2.0123,2.0124,2.024,2.0649,2.0089,1.9715,0.0,0.0,0.0,0.0,0.0,0.0,0.0,0.0,0.8738,0.5138,0.0,-0.0701,0.0,0.0,0.0,0.0,0.7802,0.4376,0.0,0.0,-0.9248,-1.2049,-1.1328,-1.2264,-1.233,-1.1535,-1.0882,-0.8462,-0.4502,-0.1338,0.0,0.0,0.0,0.0,0.0,0.0,1.1719,1.051,1.052,1.0815,1.1266,1.1273,1.2378,1.4662,1.3629,1.2637,1.1981,1.2448,1.2919,1.3138,1.2441,0.0,0.0,0.0,0.0,0.0,0.0,0.0,0.0,0.0,0.0,0.0,0.0,0.0,0.0,0.0,0.0,0.0,0.0,0.0,0.0,0.8451,0.0,0.0,0.0,0.0,0.0,0.0,0.0,0.0,0.0,0.0,-0.2635,-0.7286,-0.9734,-0.5352,0.0,0.0,0.0,0.0,1.7151,1.7529,1.8211,1.8382,1.7632,1.5188,1.3998,1.569,0.0,0.0,1.8364,1.9429,2.0079,2.0944,2.1608,2.1704,2.025,1.9829,1.9697,1.9909,2.003,2.0273,2.1149,2.1153,2.1043,1.3575,0.0,0.0,0.0,0.0,1.5563,1.4262,1.2625,0.9212,0.5781,0.2363,-0.0564,0.0,0.0,0.0,0.0,0.0,0.0,0.0808,-0.6259,-0.9739,-1.1971,-1.3315,-1.3973,-1.4223,-1.3996,-1.0482,-0.7664,-0.536,0.0178,0.3258,0.3919,0.0,0.0,0.0,0.0,1.1953,1.1701,0.9724,0.8826,0.9182,1.0005,1.1875,1.4775,1.3373,1.236,1.1917,1.1577,1.1715,1.2304,1.1771,0.0,0.0,0.0,0.0,0.0,0.0,0.0,0.0,0.0,0.0,0.0,0.0,0.0,0.0,0.0,0.0,0.0,0.0,0.0,0.9316,0.8375,0.7181,0.0,0.0,0.0,0.0,0.0,0.0,0.0,0.0,0.0,-0.9037,-0.9584,-0.9023,0.0,0.0,-0.1375,0.2854,0.8818,1.2908,1.3024,1.7629,0.0,2.0701,2.0231,2.0106,2.0713,2.029,1.9307,1.7425,1.9352,2.1244,2.1399,2.1522,2.1541,2.1404,2.1251,2.129,2.1579,2.1692,2.1853,2.2245,2.1759,2.1378,1.5933,1.6635,1.5284,1.599,1.7929,1.6997,1.609,1.51,1.2062,0.8076,0.3423,0.085,-0.0239,0.0308,0.7514,0.0,0.0,0.0,0.1702,-0.5991,-0.9714,-1.2363,-1.4029,-1.5438,-1.5789,-1.5079,-1.0591,-0.695,-0.4094,0.2008,0.5918,0.7534,0.0,0.0,1.1665,1.1247,1.1168,1.1391,0.8821,0.7961,0.9145,1.1787,1.3867,1.5185,1.3686,1.2532,1.1873,1.1365,1.1354,1.1976,1.1711,1.2331,0.0,0.0,0.0,0.0,0.0,0.0,0.0,0.0,0.0,0.0,0.0,1.7267,1.7569,0.0,0.0,0.0,1.2474,1.0982,0.9383,0.8403,0.0,0.0,0.0,0.0,0.0,0.0,0.0,-0.7863,-0.9282,-1.0816,-1.2111,-1.1853,-1.1179,-1.0241,-0.8131,-0.5632,-0.2685,0.0,0.8508,1.048,1.585,2.0179,2.151,2.1356,2.1077,2.1149,1.9686,1.9216,1.9422,1.9831,2.0651,2.2075,2.2434,2.2415,2.2756,2.2782,2.2613,2.2407,2.2408,2.2607,2.3106,2.2631,2.2315,1.8286,1.8555,1.3332,1.4484,1.9497,1.7808,1.7823,1.8839,1.5776,1.0837,0.4823,0.2717,0.2097,0.3222,1.3918,0.0,1.2492,0.8299,0.3016,-0.3007,-0.9528,-1.305,-1.4072,-1.6703,-1.7162,-1.5608,-1.0927,-0.6212,-0.1404,0.4336,0.9884,1.5071,1.2265,1.182,1.3665,1.1278,1.0032,1.0199,0.7727,0.7693,1.0298,1.5021,1.7035,1.6014,1.4461,1.3103,1.1959,1.1714,1.1753,1.2022,1.2162,1.2803,1.3971,0.0,0.0,0.0,0.0,0.0,0.0,0.0,0.0,0.0,0.0,0.0,0.0,0.0,0.0,0.0,1.2643,0.0,1.0342,0.7625,0.0,0.0,0.0,-0.3524,0.0089,-0.4641,-0.843,-0.9073,0.0,0.0,-1.242,-1.3639,-1.4722,-1.5739,-1.2589,-0.9482,-0.7584,-0.1891,0.3882,0.8089,1.3039,1.7208,2.0373,2.0261,1.9641,1.9005,1.5791,1.6614,2.1259,2.0506,1.9896,2.3061,2.372,2.3593,2.3984,2.3783,2.3592,2.2703,2.2619,2.293,2.3765,2.3753,2.3665,1.6376,1.6649,1.5137,1.6747,2.027,2.0087,1.9082,1.7284,1.3281,0.8927,0.4431,0.1767,0.3091,0.7635,1.1801,1.2919,1.1388,0.7188,0.1223,-0.6045,-1.0231,-1.3533,-1.6088,-1.7635,-1.8323,-1.7688,-0.9923,-0.4429,-0.1034,0.8433,1.4999,1.8388,1.8317,1.788,1.7141,1.4333,1.207,1.044,0.5776,0.5432,0.9547,1.2763,1.5185,1.676,1.5497,1.4104,1.2651,1.2613,1.2557,1.2425,1.3077,1.4546,1.6831,1.6628,0.0,0.0,0.0,0.0,0.0,0.0,0.0,0.0,0.0,1.7888,1.6339,0.0,1.4977,0.0,0.9515,0.7064,0.7047,0.0505,0.0,0.0,-0.0463,0.0264,0.7012,0.5339,0.263,0.0,-0.2007,-0.5148,-1.0083,-1.1571,-1.3019,-1.5201,-1.5302,-1.4857,-1.4074,-0.7785,-0.2414,0.0458,0.9226,1.6954,1.8577,2.1789,2.2722,2.0025,2.0946,2.187,2.0046,2.0948,2.1899,2.2387,2.2298,2.234,2.2729,2.2869,2.3278,2.3929,2.4224,2.4391,2.4753,2.4673,2.4483,1.5141,1.5498,1.5756,1.6819,1.8308,1.8629,1.7961,1.6308,1.25,0.8338,0.4076,0.266,0.453,0.8781,1.0888,1.1388,1.0332,0.5649,0.0152,-0.5783,-1.0313,-1.3804,-1.6382,-1.7775,-1.7662,-1.5995,-0.8266,-0.2165,0.2638,1.1591,1.787,2.1258,2.0382,1.9559,1.8742,1.456,1.1043,0.8324,0.4269,0.48,1.0132,1.4031,1.6548,1.747,1.624,1.5146,1.431,1.3875,1.3815,1.4144,1.4479,1.5751,1.8117,1.8108,1.8738,0.0,0.0,0.0,0.0,0.0,0.0,0.0,0.0,0.0,0.0,0.0,1.6408,1.4731,1.1646,0.8955,0.6992,0.0208,-0.3374,-0.1581,-0.2095,-0.0331,0.5298,0.6307,0.5801,0.3732,0.1796,-0.0977,-0.5191,-0.7243,-0.937,-1.2206,-1.4051,-1.533,-1.5497,-1.1287,-0.7433,-0.5444,0.2281,1.0359,1.5065,1.9381,2.1167,1.8983,1.8473,1.7839,1.6051,1.7482,1.9152,1.9747,2.008,2.0446,2.1013,2.1433,2.2007,2.3015,2.3565,2.409,2.5003,2.4765,2.4275,1.4022,1.444,1.5099,1.5217,1.4947,1.4791,1.4928,1.506,1.1924,0.7819,0.33,0.3861,0.5524,0.8112,1.0003,1.0267,0.887,0.3584,-0.1036,-0.507,-1.0472,-1.3988,-1.5849,-1.7459,-1.662,-1.3411,-0.7066,-0.0587,0.5964,1.3315,1.904,2.2881,2.0404,1.91,1.8885,1.3105,0.8151,0.435,0.2693,0.4452,0.9679,1.4929,1.7191,1.6282,1.5699,1.5337,1.5167,1.5055,1.5375,1.6259,1.6149,1.6951,1.8938,1.9349,1.995,0.0,2.1599,0.0,0.0,0.0,0.0,0.0,0.0,0.0,0.0,1.9935,1.879,1.7906,1.5762,1.2479,0.7751,0.2012,-0.2175,-0.3852,-0.3575,-0.1654,0.243,0.5677,0.7176,0.6293,0.5113,0.3557,0.1028,-0.1542,-0.4233,-0.7505,-1.033,-1.2708,-1.4502,-1.3403,-1.1542,-0.9607,-0.5573,0.2192,1.1627,1.5843,1.757,1.7223,1.5203,1.1907,1.3594,1.3955,1.4828,1.6606,1.7546,1.8139,1.9007,1.9677,2.0454,2.1428,2.19,2.2735,2.4436,2.4341,2.3863,1.1531,1.207,1.1676,1.169,1.1879,0.9015,0.9209,1.1209,0.8035,0.4488,0.1125,0.1652,0.3606,0.6444,0.6473,0.5902,0.4739,0.0476,-0.4697,-1.0451,-1.239,-1.4226,-1.5918,-1.7259,-1.8109,-1.7936,-0.9308,-0.3185,0.0379,1.1206,1.8319,2.1767,2.0892,1.9398,1.7105,0.0,0.0,0.0,-0.0086,0.1398,0.1754,0.5511,0.7146,0.6386,1.0186,0.0,1.052,1.4852,1.7298,1.7054,1.7777,0.0,0.0,0.0,0.0,0.0,0.0,0.0,0.0,0.0,0.0,0.0,2.0592,2.0196,1.9281,1.9599,2.0545,2.1933,1.6315,1.03,0.5085,-0.2835,-0.6054,-0.2164,-0.0608,0.443,1.5252,1.8604,1.8958,1.5989,1.4583,1.2076,0.7685,0.5412,0.24,-0.236,-0.5815,-0.9117,-1.3094,-1.448,-1.5122,-1.4452,-0.9036,-0.0125,1.1465,1.4479,1.7265,2.1634,2.0846,1.8401,1.796,1.5818,1.4346,1.5102,1.5254,1.5549,1.6507,1.787,1.9156,2.0394,2.0734,2.1462,2.3471,2.3768,2.3785,0.9973,1.0226,0.9682,0.9317,0.0,0.5822,0.4886,0.5305,0.3127,0.069,-0.1572,0.0155,0.1435,0.2241,0.2996,0.244,0.0807,-0.2846,-0.7076,-1.1648,-1.3116,-1.4582,-1.6092,-1.6921,-1.6979,-1.6077,-0.8598,-0.2924,0.1344,1.0979,1.7357,2.0271,1.8466,1.6457,1.4104,0.6428,0.0048,-0.4829,-0.1658,0.0796,0.2534,0.6657,0.9664,1.1339,1.4257,0.0,0.0,0.0,0.0,0.0,0.0,0.0,0.0,2.2746,0.0,2.3928,2.2992,2.2175,2.171,2.1188,2.1167,2.1844,2.2641,2.2709,2.1788,2.2877,2.4047,2.4955,2.0835,1.6182,1.1292,0.4586,0.0866,0.1965,0.4783,0.952,1.5362,2.0528,2.2526,2.0657,1.938,1.7423,1.4178,1.2259,0.9592,0.5075,-0.1419,-0.674,-0.9886,-1.4207,-1.7575,-1.8892,-1.2836,-0.4453,0.4555,0.9238,1.303,1.8124,1.7904,1.563,1.39,1.3502,1.316,1.2669,1.2501,1.2676,1.2889,1.5156,1.7286,1.7371,1.9129,2.123,2.2818,2.3096,2.3411,0.859,0.8265,0.8016,0.7184,0.5882,0.359,0.153,-0.0386,-0.1164,0.0,0.0,-0.048,-0.0,-0.1088,0.0338,-0.0184,-0.2421,-0.568,-0.882,-1.1739,-1.3514,-1.5067,-1.642,-1.6838,-1.6029,-1.3901,-0.8709,-0.3421,0.1931,0.9347,1.472,1.7462,1.4961,1.219,0.9267,0.1153,-0.406,-0.562,-0.2542,0.0878,0.4386,0.9109,1.3324,1.6928,1.8402,1.9257,1.9495,1.9588,2.0328,2.185,2.1266,2.1837,2.3942,2.4086,2.4273,2.4641,2.4183,2.3722,2.3334,2.292,2.2929,2.338,2.5102,2.588,2.5338,2.6508,2.7258,2.7206,2.5784,2.2792,1.7917,1.3798,0.9924,0.6575,1.0201,1.2921,1.3945,1.9204,2.324,2.2599,2.1947,2.1175,1.9868,1.8333,1.6222,1.2026,0.2907,-0.6146,-0.9702,-1.5677,-2.0091,-2.1619,-1.7225,-1.0616,-0.3471,0.2688,0.7448,1.3352,1.3638,1.1624,0.9545,1.0226,1.1235,1.0683,1.0144,0.9288,0.8494,1.0394,1.3039,1.2708,1.6083,1.9988,2.2058,2.2581,2.3104,0.6443,0.5627,0.5467,0.4583,0.3146,0.1263,-0.0881,-0.2948,-0.2513,-0.1955,-0.1222,0.043,0.1145,0.106,-0.0049,-0.1684,-0.3798,-0.6871,-0.9874,-1.2831,-1.4447,-1.5971,-1.7297,-1.7784,-1.8427,-1.8813,-1.4176,-0.9305,-0.4309,0.1679,0.7653,1.2891,1.1704,0.7735,0.1851,-0.3903,-0.735,-0.8404,-0.2658,0.0134,-0.0166,0.3993,0.6702,0.7908,1.217,1.4211,1.427,1.9185,2.1781,2.1524,2.1953,2.281,2.3996,2.4068,2.4351,2.503,2.4771,2.476,2.5245,2.4926,2.5014,2.5795,2.7278,2.778,2.6892,2.731,2.7838,2.8233,2.6823,2.2758,1.5955,1.4593,1.3539,1.1612,1.2877,1.6006,2.0779,2.2725,2.3889,2.3903,2.3787,2.3607,2.317,2.2548,2.0582,1.5839,0.6246,-0.5442,-1.6517,-2.2003,-2.2973,-2.3779,-2.2489,-1.7969,-1.0429,-0.2446,0.4634,1.1138,1.4191,1.5152,1.4363,1.2341,1.1064,1.0551,0.8491,0.5868,0.3792,0.2318,0.4638,0.7714,1.0802,1.3998,2.0607,2.2526,2.3212,0.4516,0.3523,0.3039,0.2157,0.0994,-0.0885,-0.2444,-0.357,-0.2736,-0.1674,-0.05,0.0493,0.1026,0.1062,-0.0353,-0.2567,-0.5319,-0.8279,-1.1252,-1.4114,-1.5392,-1.6584,-1.7653,-1.7824,-1.8405,-1.9083,-1.4843,-1.1599,-0.9084,-0.224,0.3396,0.7154,0.6485,0.3595,-0.1121,-0.5747,-0.8865,-1.0263,-0.1802,0.2397,0.1893,0.9574,1.3891,1.423,1.6818,1.8125,1.8111,2.0759,2.2406,2.2741,2.295,2.3568,2.4672,2.471,2.5081,2.5889,2.5832,2.6065,2.684,2.6793,2.694,2.7484,2.8506,2.9074,2.8861,2.9109,2.9105,2.8768,2.8285,2.6137,2.1218,2.1189,2.0927,1.9426,1.9934,2.1612,2.4281,2.4681,2.469,2.5071,2.4846,2.4615,2.4632,2.4436,2.3834,2.0617,0.958,-0.4388,-1.6679,-2.1875,-2.4457,-2.5158,-2.4132,-2.0277,-1.3803,-0.6747,0.0938,0.8734,1.2488,1.458,1.5431,1.3547,1.2745,1.2624,0.8311,0.3787,0.1695,-0.0736,0.0175,0.416,0.793,1.265,1.9498,2.2744,2.3606,0.2478,0.1376,0.0997,0.0333,-0.0609,-0.2284,-0.3241,-0.3408,-0.2395,-0.1168,0.0167,0.078,0.0943,0.0657,-0.0717,-0.3318,-0.6868,-0.9779,-1.2728,-1.5564,-1.6466,-1.737,-1.8173,-1.7983,-1.815,-1.8326,-1.5353,-1.3537,-1.2137,-0.6032,-0.0772,0.2481,0.2839,0.1869,0.0103,-0.4853,-0.839,-0.9834,-0.2467,0.1707,0.2214,1.295,1.8668,1.8583,2.0549,2.1815,2.1978,2.191,2.2415,2.3562,2.3592,2.4093,2.5229,2.5352,2.5749,2.6553,2.6662,2.7112,2.801,2.8357,2.8595,2.8812,2.9362,2.9909,3.0295,3.0288,2.9961,2.9264,2.9371,2.8596,2.6559,2.6605,2.6757,2.5619,2.5419,2.5285,2.5979,2.5502,2.5264,2.5774,2.56,2.534,2.5186,2.5298,2.4172,2.0022,0.9581,-0.2516,-1.2195,-2.0038,-2.4646,-2.5464,-2.4861,-2.2356,-1.6506,-1.0874,-0.4074,0.4435,0.9003,1.2169,1.4258,1.4861,1.3731,1.2911,0.7052,0.0884,-0.1682,-0.5533,-0.5311,-0.045,0.3947,0.9823,1.9284,2.2349,2.3664,-0.0,-0.0778,-0.0167,-0.0391,-0.1228,-0.2233,-0.2683,-0.263,-0.1724,-0.0111,0.1671,0.2007,0.1424,0.0424,-0.1083,-0.4194,-0.8468,-1.1207,-1.4229,-1.717,-1.7934,-1.861,-1.9214,-1.8817,-1.8681,-1.8717,-1.8193,-1.633,-1.3594,-1.1825,-0.6299,0.2491,0.3458,0.4788,0.6222,-0.0137,-0.4857,-0.6789,-0.698,-0.6399,-0.4573,0.6076,1.1439,1.0337,1.6502,2.032,2.0258,2.1144,2.1685,2.2896,2.3239,2.4134,2.53,2.5544,2.5969,2.6819,2.6913,2.7392,2.8608,2.9368,2.9692,2.9769,2.9878,3.0153,3.0452,2.9738,2.9453,2.934,2.9078,2.8544,2.778,2.7067,2.64,2.5805,2.5491,2.542,2.5595,2.5362,2.5332,2.5427,2.618,2.6286,2.5792,2.6013,2.2851,1.6138,0.729,-0.1924,-1.0798,-1.9303,-2.4225,-2.4967,-2.503,-2.4703,-2.2231,-1.6677,-1.0063,-0.4498,0.315,0.8971,1.2768,1.5074,1.583,1.0205,0.3563,-0.2722,-0.9646,-1.5519,-1.3664,-0.4858,0.0299,0.4872,1.662,2.1423,2.2493,-0.0943,-0.1226,-0.0726,-0.0558,-0.0725,-0.1058,-0.1003,-0.0613,-0.0,0.1111,0.2338,0.2062,0.121,-0.0054,-0.216,-0.558,-0.998,-1.2911,-1.5718,-1.8317,-1.9181,-1.9523,-1.941,-1.8882,-1.8387,-1.8061,-1.8352,-1.7855,-1.5796,-1.1101,-0.5181,0.062,0.3737,0.591,0.6324,-0.1472,-0.648,-0.7855,-1.2201,-1.4432,-1.2882,-0.1807,0.453,0.4323,0.688,0.844,0.8619,0.9074,1.1334,1.5515,1.7116,1.9964,2.4622,2.5686,2.6739,2.7929,2.8696,2.9227,2.9544,2.9845,2.9987,2.9918,2.9653,2.9775,3.034,2.924,2.7335,2.4763,2.6718,2.8389,2.7651,2.7341,2.689,2.6359,2.5806,2.582,2.6843,2.6068,2.5959,2.7389,2.7189,2.6914,2.6851,2.6498,2.3981,1.7589,0.8743,-0.1297,-0.645,-1.6241,-2.3458,-2.4697,-2.5096,-2.5127,-2.43,-2.0182,-1.5064,-1.0735,-0.502,0.1613,0.9186,0.8354,0.7066,0.8372,0.0461,-0.6413,-1.0835,-1.6714,-1.7734,-0.8268,0.3744,1.1073,1.7078,1.9982,2.1988,-0.0805,0.0405,0.1425,0.2589,0.3591,0.3692,0.369,0.357,0.3891,0.3747,0.3109,0.1887,-0.0054,-0.2263,-0.4205,-0.7605,-1.2008,-1.5119,-1.7574,-1.9588,-2.0478,-2.0566,-1.9993,-1.8994,-1.8243,-1.7793,-1.799,-1.8439,-1.8167,-1.2772,-0.6511,-0.1474,0.1122,0.359,0.5189,-0.3188,-0.8552,-0.9844,-1.5935,-1.9639,-1.8797,-1.072,-0.5544,-0.4943,-0.1686,-0.0724,-0.2469,-0.0708,0.2585,0.7546,1.1043,1.5535,2.1148,2.4519,2.7075,2.8727,2.9945,3.0467,3.0181,3.0142,3.0061,2.9966,2.9626,2.971,2.9724,2.7394,2.3888,2.0839,2.1781,2.2758,2.5089,2.6821,2.7617,2.686,2.6333,2.669,2.7341,2.664,2.694,2.8541,2.7952,2.7472,2.7621,2.6463,2.4052,1.913,0.8815,-0.1021,-0.4641,-1.5251,-2.3852,-2.4542,-2.5003,-2.5159,-2.4766,-2.2519,-1.9085,-1.5192,-1.0287,-0.4545,0.3659,0.1282,-0.1364,0.0549,-0.6964,-1.1655,-1.4147,-1.8033,-1.7564,-0.7573,0.2875,1.0919,1.1203,1.5245,1.765,0.0246,0.4727,0.7682,1.0205,1.2954,1.3026,1.2168,0.989,1.0477,0.8242,0.3986,0.1628,-0.224,-0.6872,-0.7714,-1.0482,-1.5078,-1.7899,-1.9891,-2.1429,-2.1959,-2.1911,-2.1319,-1.9569,-1.8554,-1.8222,-1.8131,-1.8575,-1.9467,-1.8616,-1.2716,-0.1912,-0.5308,-0.2822,0.3904,-0.4357,-1.0088,-1.1222,-1.7192,-2.074,-2.087,-2.0511,-1.9295,-1.7271,-0.7716,-0.446,-0.8059,-0.4532,-0.1497,-0.0475,0.6247,1.1693,1.485,2.168,2.6781,2.8822,3.0009,3.055,3.0394,3.0232,3.0142,3.0158,3.0123,3.0307,3.0017,2.3919,1.9679,1.9565,1.3814,1.2762,1.7602,2.3676,2.7493,2.7036,2.746,2.7475,2.6871,2.7336,2.7673,2.8121,2.83,2.8093,2.7763,2.5961,2.1609,1.5246,0.6359,-0.1844,-0.9419,-1.7631,-2.2746,-2.445,-2.5027,-2.5238,-2.5185,-2.3982,-2.1405,-1.8434,-1.483,-1.023,-0.5428,-0.2261,-0.4324,-0.587,-0.8804,-1.2356,-1.6556,-1.6401,-1.2904,-0.6891,-0.2233,0.2883,0.47,0.7219,1.0172,0.9857,1.2717,1.2799,1.324,1.3782,1.4387,1.286,1.0173,1.2305,0.9268,0.3357,0.1536,-0.3105,-1.0295,-1.3614,-1.6649,-1.9444,-2.1118,-2.2364,-2.3248,-2.3119,-2.2617,-2.1799,-2.0551,-1.9443,-1.8714,-1.8862,-1.9661,-2.0249,-1.7335,-1.3194,-0.8742,-0.6324,-0.3078,-0.1032,-0.6966,-1.1131,-1.1765,-1.7732,-2.1275,-2.1485,-2.1957,-2.2124,-2.1906,-1.7382,-1.5772,-1.8119,-1.6266,-1.3635,-0.997,-0.5913,0.0726,1.0831,2.1374,2.806,2.984,3.0458,3.0604,3.0474,3.0441,3.0395,3.0288,2.9896,2.9827,2.8918,2.2821,1.6621,1.3239,1.0376,0.8257,0.7838,1.5691,2.4016,2.7424,2.7952,2.7971,2.7948,2.7783,2.7804,2.8559,2.8664,2.8084,2.6908,2.565,2.1488,1.3265,0.5431,-0.2918,-1.1295,-1.8977,-2.4015,-2.526,-2.5808,-2.5932,-2.6006,-2.5052,-2.3472,-2.2168,-1.9369,-1.5129,-1.0542,-1.1001,-1.2924,-0.9307,-1.0814,-1.2742,-1.6642,-1.3913,-1.0177,-0.8524,-0.3911,-0.2811,-0.1449,0.1473,0.4982,1.6271,1.7568,1.8284,1.8007,1.7315,1.8223,1.6333,1.3065,1.496,1.1123,0.3902,0.1455,-0.4472,-1.3079,-1.8269,-2.1908,-2.413,-2.423,-2.427,-2.4614,-2.3985,-2.333,-2.2579,-2.1424,-2.0353,-1.9714,-2.011,-2.103,-2.1756,-1.8505,-1.5588,-1.3028,-1.0613,-0.8494,-0.7658,-1.2123,-1.4909,-1.5694,-1.9378,-2.1795,-2.1965,-2.2456,-2.295,-2.3318,-2.3056,-2.3026,-2.3432,-2.3248,-2.1701,-1.8113,-1.4779,-0.5953,0.8885,1.8804,2.5817,2.9237,3.0386,3.0661,3.0584,3.0584,3.0558,3.0447,2.9902,2.9234,2.6901,1.9488,1.2535,0.7266,0.3014,0.0097,0.1194,0.7129,1.5912,2.3924,2.7317,2.846,2.8692,2.8327,2.8338,2.8186,2.5645,2.4848,2.5152,2.0345,1.4597,0.8486,0.1576,-0.6739,-1.5237,-2.0496,-2.4388,-2.5616,-2.5998,-2.5952,-2.5826,-2.5084,-2.4649,-2.3573,-2.2578,-1.889,-1.6822,-1.8269,-1.7445,-1.3802,-1.288,-1.4416,-1.3781,-1.1167,-0.9788,-0.8891,-0.8526,-0.7532,-0.5856,-0.4023,0.0112,1.8645,1.9269,2.4004,2.4717,2.3494,2.4454,2.3392,1.9042,1.8642,1.2734,0.3775,0.0727,-0.715,-1.6146,-2.1124,-2.5297,-2.809,-2.6536,-2.5616,-2.57,-2.4753,-2.4173,-2.3837,-2.2064,-2.1196,-2.1111,-2.1608,-2.2408,-2.3225,-2.2915,-2.0445,-1.7084,-1.9814,-1.8484,-1.4,-1.868,-2.1446,-2.1391,-2.2006,-2.2281,-2.2327,-2.2953,-2.3499,-2.3817,-2.4051,-2.422,-2.4245,-2.397,-2.386,-2.3472,-1.8235,-0.6694,0.6236,1.3594,1.9314,2.6209,2.9365,3.0591,3.0694,3.0651,3.0609,3.0536,3.0377,2.7897,2.2783,1.5559,0.846,0.2131,-0.4368,-0.7791,-0.2738,-0.0247,0.5993,1.6738,2.4284,2.6879,2.78,2.8586,2.9001,2.7236,2.2601,1.9637,2.0401,1.4134,0.5093,0.0532,-0.5601,-1.33,-2.0508,-2.3673,-2.4357,-2.513,-2.5774,-2.6031,-2.5572,-2.5093,-2.4956,-2.4619,-2.3739,-2.1718,-1.9959,-2.0158,-1.8382,-1.517,-1.2417,-1.3513,-1.1959,-0.9788,-1.0043,-0.961,-1.0466,-1.1243,-0.9972,-0.765,-0.3822,2.3399,2.3587,2.4842,2.491,2.4046,2.3771,2.0737,1.6079,1.5003,0.8579,-0.0619,-0.5171,-1.1884,-1.9433,-2.3839,-2.6679,-2.9047,-2.7578,-2.7153,-2.7376,-2.6098,-2.5133,-2.4575,-2.3218,-2.2384,-2.2208,-2.2348,-2.2963,-2.3823,-2.4263,-2.3215,-2.2436,-2.3281,-2.3394,-2.1625,-2.2663,-2.3154,-2.3427,-2.303,-2.2835,-2.2962,-2.3382,-2.3855,-2.4364,-2.5002,-2.5499,-2.579,-2.4977,-2.5292,-2.6624,-2.4425,-1.7936,-0.6643,0.6431,1.5243,1.9684,2.6541,3.0415,3.0679,3.0693,3.0635,3.0534,3.0426,2.9448,2.6666,2.0229,1.3255,0.6334,-0.0643,-0.5275,-0.761,-0.4793,0.3495,1.7646,1.734,1.8594,2.1998,2.1406,2.2795,2.6104,2.4243,2.1378,1.719,0.9166,0.2386,-0.6608,-1.1342,-1.656,-2.3428,-2.5452,-2.5811,-2.6517,-2.6513,-2.6263,-2.6067,-2.5718,-2.5396,-2.497,-2.4217,-2.3019,-2.1756,-2.0028,-1.8321,-1.5948,-1.3324,-1.1372,-0.9798,-0.9228,-0.9463,-1.0447,-1.1257,-1.2062,-1.2915,-0.9953,-0.5043,2.4057,2.386,2.366,2.3279,2.266,2.1364,1.7919,1.3381,1.1285,0.4226,-0.4891,-0.7036,-1.2052,-1.8885,-2.2318,-2.4184,-2.5576,-2.6613,-2.7733,-2.8074,-2.6854,-2.5838,-2.5248,-2.41,-2.3409,-2.3254,-2.3368,-2.3805,-2.446,-2.5035,-2.533,-2.5359,-2.5361,-2.5337,-2.5465,-2.4533,-2.4063,-2.4082,-2.3765,-2.3566,-2.3732,-2.4278,-2.4823,-2.5275,-2.5808,-2.6438,-2.7025,-2.6097,-2.6252,-2.7537,-2.7614,-2.3482,-1.5045,-0.3565,0.5139,1.1188,1.8812,2.4983,2.6188,2.8762,3.0622,3.049,3.0327,2.8697,2.6228,2.142,1.659,0.972,0.477,-0.1052,-0.6246,-0.5492,0.1723,0.9754,1.2805,1.507,1.9976,1.8436,1.7774,2.0828,2.0782,1.6738,1.0742,0.3802,-0.1222,-1.1632,-1.6285,-1.9417,-2.5403,-2.655,-2.6848,-2.6999,-2.6951,-2.6797,-2.6807,-2.6405,-2.5884,-2.5227,-2.4495,-2.2984,-2.1505,-1.9242,-1.7258,-1.4014,-1.1228,-1.0191,-0.8771,-0.861,-0.8793,-1.0244,-1.1412,-1.1058,-1.0693,-0.8157,-0.3775,2.1492,2.0567,2.07,2.0487,1.9797,1.7857,1.4266,1.0555,0.7106,-0.0199,-0.7652,-0.7378,-1.0002,-1.581,-1.8762,-1.9634,-2.0774,-2.4693,-2.6887,-2.7169,-2.6833,-2.6387,-2.5419,-2.4393,-2.397,-2.4072,-2.4491,-2.488,-2.5291,-2.5971,-2.6617,-2.6802,-2.6761,-2.6487,-2.6327,-2.538,-2.4751,-2.442,-2.4403,-2.4318,-2.424,-2.5383,-2.6088,-2.6235,-2.6524,-2.7114,-2.7713,-2.7403,-2.7295,-2.7897,-2.8118,-2.5136,-1.8743,-1.5184,-0.7744,0.0521,0.9763,1.5989,1.9412,2.4785,2.9369,3.0134,2.9877,2.7495,2.2973,2.1824,1.8443,1.2005,0.9748,0.572,-0.0737,-0.2888,-0.2214,-0.1436,0.6993,1.5762,2.3449,1.765,1.4094,1.4539,1.3655,1.0233,0.3045,-0.466,-1.0021,-1.5909,-2.1114,-2.4983,-2.6604,-2.7166,-2.6718,-2.6697,-2.6809,-2.6728,-2.6532,-2.5751,-2.5298,-2.5254,-2.4183,-2.2275,-2.0285,-1.7896,-1.5619,-1.2362,-1.02,-0.9099,-0.8526,-0.852,-0.8761,-0.9788,-0.995,-0.9199,-0.7493,-0.5247,-0.2096,2.1591,2.1219,1.8462,1.6296,1.4272,1.0586,0.6462,0.2128,-0.2957,-0.795,-1.2499,-1.2674,-1.552,-2.1722,-1.7669,-1.8506,-2.2068,-2.3832,-2.4821,-2.59,-2.779,-2.7031,-2.5402,-2.445,-2.421,-2.4421,-2.4912,-2.5449,-2.6246,-2.6702,-2.7459,-2.8785,-2.8636,-2.859,-2.8437,-2.7381,-2.6584,-2.5723,-2.4951,-2.4756,-2.4955,-2.5716,-2.6036,-2.5947,-2.7264,-2.7989,-2.8272,-2.8902,-2.8954,-2.8539,-2.8974,-2.8222,-2.4534,-1.8039,-1.2283,-0.7543,0.1319,1.032,1.6155,1.9944,2.3728,2.9217,2.9731,2.9075,2.7578,2.7108,2.3702,1.8543,1.6068,1.0704,0.028,-0.3466,-0.3881,-0.3773,0.0135,0.3387,0.5174,0.1943,0.2526,1.1797,1.2513,0.7921,0.0473,-0.4134,-1.0522,-1.9699,-2.4746,-2.7256,-2.7674,-2.746,-2.6943,-2.6381,-2.6281,-2.6236,-2.594,-2.5101,-2.4745,-2.5022,-2.361,-2.1103,-1.8589,-1.5712,-1.3447,-1.0804,-1.0115,-0.9089,-0.8978,-0.8968,-0.9374,-0.9574,-0.8905,-0.8197,-0.5455,-0.2995,0.0477,2.0505,1.7175,1.4932,1.1756,0.7866,0.3598,-0.0359,-0.4371,-0.9325,-1.4023,-1.6826,-1.5906,-1.6724,-1.8599,-1.6145,-1.6004,-1.8677,-2.1623,-2.3558,-2.4866,-2.6796,-2.6997,-2.5941,-2.5217,-2.4954,-2.5217,-2.5602,-2.6572,-2.772,-2.8184,-2.9055,-2.9844,-3.0068,-2.9881,-2.9325,-2.8111,-2.7137,-2.6423,-2.5774,-2.5406,-2.5114,-2.6163,-2.6447,-2.6362,-2.7381,-2.7875,-2.816,-2.9287,-2.9703,-2.9289,-2.9297,-2.9057,-2.7942,-2.2764,-1.8241,-1.6209,-0.747,0.0689,0.6918,1.3037,1.9673,2.4226,2.7156,2.9684,2.9666,2.981,2.7358,2.4693,2.3511,1.7386,0.7945,0.0283,-0.3568,-0.439,-0.7195,-0.6608,-0.1272,-0.3261,-0.3055,0.2633,0.5603,0.2789,-0.7385,-0.7987,-1.3498,-2.2098,-2.6303,-2.7599,-2.8102,-2.7615,-2.71,-2.6504,-2.604,-2.6016,-2.5549,-2.472,-2.3574,-2.3809,-2.1588,-1.9313,-1.7069,-1.4069,-1.2377,-1.0751,-1.0002,-0.9436,-0.9419,-0.9315,-0.9221,-0.9055,-0.8287,-0.6605,-0.4015,-0.1635,0.1999,1.831,1.1111,1.0363,0.6678,0.1283,-0.2504,-0.5767,-0.9159,-1.2774,-1.695,-1.9654,-1.7104,-1.5236,-1.2135,-1.4563,-1.3566,-1.2579,-1.9708,-2.3026,-2.4846,-2.6179,-2.6669,-2.7009,-2.6065,-2.5812,-2.6104,-2.6674,-2.7891,-2.9111,-3.0188,-3.0814,-3.1106,-3.1137,-3.0555,-2.9848,-2.8311,-2.7217,-2.6801,-2.6427,-2.5859,-2.5418,-2.6236,-2.6535,-2.62,-2.6393,-2.7103,-2.7797,-2.8673,-2.9122,-2.931,-2.9105,-2.8617,-2.7986,-2.7077,-2.517,-2.2048,-1.5141,-0.9669,-0.5531,0.6869,1.4895,1.6604,2.3613,2.7937,2.6337,2.5947,2.6883,2.6296,2.8676,2.3479,1.7098,0.5252,-0.2477,-0.4792,-1.0544,-0.9037,-0.2519,-0.373,-0.8213,-0.8503,-0.333,-0.8419,-1.4645,-1.8162,-1.6779,-2.335,-2.6853,-2.7791,-2.8037,-2.7652,-2.7126,-2.6572,-2.6186,-2.5866,-2.5185,-2.4376,-2.3111,-2.2137,-1.9073,-1.6724,-1.544,-1.3184,-1.189,-1.0708,-1.0324,-0.9961,-0.9734,-0.9596,-0.9473,-0.8597,-0.789,-0.5595,-0.3002,-0.0881,0.2188,1.4665,1.1556,0.4125,-0.0832,-0.4069,-0.7444,-1.0455,-1.3196,-1.5434,-1.7836,-1.9277,-1.6486,-1.69,-1.9478,-1.5331,-1.4664,-1.81,-2.1054,-2.3533,-2.7213,-2.708,-2.7327,-2.738,-2.6545,-2.6098,-2.6413,-2.7788,-2.9004,-3.0028,-3.1048,-3.2008,-3.2424,-3.2242,-3.2016,-3.0586,-2.9812,-2.9058,-2.7803,-2.6698,-2.586,-2.5388,-2.5343,-2.5344,-2.4956,-2.5466,-2.6302,-2.6968,-2.7032,-2.6839,-2.6973,-2.7424,-2.7439,-2.6756,-2.575,-2.41,-2.1912,-1.9642,-1.4692,-0.7877,-0.2939,0.1605,0.7591,1.4424,1.7707,1.2843,1.7904,2.0487,2.1336,2.1251,2.0122,1.7443,0.5124,-0.186,-0.4972,-1.0715,-1.5047,-1.3158,-1.3975,-1.3271,-1.0284,-0.9119,-1.0023,-1.4059,-1.5925,-1.8096,-2.4168,-2.6697,-2.7847,-2.7852,-2.7594,-2.6821,-2.6084,-2.5047,-2.4396,-2.3375,-2.2547,-2.1547,-2.0449,-1.7716,-1.5335,-1.3991,-1.2651,-1.1457,-1.1023,-1.0853,-1.0526,-1.0088,-1.0313,-1.0285,-0.8923,-0.7429,-0.542,-0.325,-0.0723,0.151,1.4168,0.922,0.2203,-0.3573,-0.7885,-0.9847,-1.1632,-1.3533,-1.5244,-1.7102,-1.8557,-1.7591,-1.8451,-1.972,-1.7353,-1.783,-1.9649,-2.2075,-2.4307,-2.6653,-2.7063,-2.7221,-2.7271,-2.7136,-2.6966,-2.7118,-2.8064,-2.9387,-3.0623,-3.135,-3.1873,-3.2471,-3.2532,-3.1802,-3.083,-3.0237,-2.9443,-2.8135,-2.5808,-2.4547,-2.4676,-2.2982,-2.287,-2.3486,-2.4567,-2.5713,-2.6168,-2.5883,-2.5577,-2.5411,-2.5417,-2.5528,-2.5208,-2.4146,-2.2681,-2.1509,-2.0111,-1.8389,-1.3763,-0.9108,-0.4894,-0.1694,0.5961,0.7502,0.652,0.9199,1.0718,1.179,1.2188,1.2438,1.2657,0.8472,0.1072,-0.5245,-1.156,-1.6372,-1.7451,-1.7987,-1.7579,-1.4877,-1.5501,-1.6462,-1.7551,-1.7579,-1.9691,-2.579,-2.7009,-2.8034,-2.7537,-2.7122,-2.5993,-2.5012,-2.3678,-2.257,-2.1463,-2.0505,-1.9607,-1.8585,-1.7182,-1.521,-1.3828,-1.249,-1.1228,-1.111,-1.099,-1.0795,-1.0505,-1.0796,-1.0397,-0.8749,-0.7155,-0.5599,-0.3843,-0.1631,0.0448,1.4961,0.8287,0.2958,-0.2734,-0.7393,-0.741,-0.824,-1.0424,-1.2108,-1.404,-1.738,-1.9394,-1.8817,-1.815,-1.9714,-1.9467,-1.9819,-2.2082,-2.5044,-2.5876,-2.6684,-2.6921,-2.7002,-2.7432,-2.7857,-2.8246,-2.886,-2.9962,-3.0914,-3.147,-3.1745,-3.1802,-3.165,-3.1242,-3.0511,-2.9388,-2.7645,-2.559,-2.3394,-2.1166,-2.1193,-1.9383,-2.0341,-2.2748,-2.3863,-2.4751,-2.4786,-2.4382,-2.406,-2.4073,-2.2839,-2.2818,-2.307,-2.2564,-2.1474,-2.1047,-1.9611,-1.8691,-1.7496,-1.3422,-0.9709,-0.9563,-0.3313,-0.0401,-0.0585,-0.0749,0.0459,0.2165,0.3485,0.5873,0.5548,0.3543,0.0863,-0.4854,-1.242,-1.6983,-1.8306,-1.8584,-1.9109,-1.9837,-1.9845,-2.0574,-2.2085,-2.2844,-2.4833,-2.6387,-2.7348,-2.7842,-2.7322,-2.6391,-2.5168,-2.4077,-2.279,-2.1653,-2.0551,-1.9451,-1.8436,-1.76,-1.6488,-1.5218,-1.3731,-1.2425,-1.1426,-1.1213,-1.1055,-1.0883,-1.0666,-1.0572,-0.9821,-0.8344,-0.6977,-0.5561,-0.4042,-0.2445,-0.0729,1.5495,1.6426,0.5789,0.2848,0.5377,0.5256,0.1506,-0.2733,-0.4704,-0.9137,-1.5792,-1.7806,-1.9013,-1.9763,-2.0443,-2.1051,-2.1484,-2.3398,-2.4759,-2.5471,-2.621,-2.6635,-2.7148,-2.7344,-2.7852,-2.8775,-2.9458,-3.0292,-3.0903,-3.1741,-3.1477,-3.1291,-3.1145,-3.0769,-2.9867,-2.8284,-2.4016,-2.0666,-1.887,-1.6786,-1.5042,-1.6961,-1.994,-2.2878,-2.3495,-2.3438,-2.2988,-2.1949,-2.1247,-2.1512,-1.9906,-1.9969,-2.0656,-2.0545,-1.9901,-1.9111,-1.8653,-1.8537,-1.7985,-1.7745,-1.7286,-1.6657,-1.2185,-1.1658,-1.343,-1.2735,-1.0342,-0.701,-0.2245,0.2496,0.4081,-0.0243,-0.3877,-0.8192,-1.3482,-1.9027,-1.9718,-2.0538,-2.141,-2.2186,-2.2937,-2.351,-2.4445,-2.5252,-2.6032,-2.65,-2.6912,-2.7232,-2.6876,-2.5562,-2.4021,-2.299,-2.196,-2.0896,-1.9832,-1.8772,-1.7744,-1.7157,-1.6208,-1.5247,-1.386,-1.2453,-1.1639,-1.1445,-1.1224,-1.0975,-1.0772,-1.0449,-0.942,-0.8124,-0.682,-0.5483,-0.4273,-0.3111,-0.2588,1.8175,1.8602,1.0371,0.7847,0.9321,0.9841,0.616,0.0297,-0.1157,-0.5861,-1.1942,-1.5193,-1.6989,-1.8462,-1.9361,-2.0203,-2.1548,-2.3088,-2.3909,-2.4478,-2.5337,-2.618,-2.6747,-2.6916,-2.7447,-2.8139,-2.9007,-2.9712,-2.993,-3.0334,-3.0528,-3.0298,-3.0076,-2.9811,-2.7936,-2.3141,-2.0005,-1.6372,-1.3054,-1.0835,-1.0364,-1.5011,-1.9107,-2.1259,-2.251,-2.2236,-2.107,-1.9102,-1.8714,-1.9239,-1.7787,-1.7358,-1.7807,-1.858,-1.9037,-1.8825,-1.846,-1.8572,-1.8931,-1.9768,-2.0281,-2.1365,-1.9391,-2.0572,-2.2986,-2.2474,-2.0311,-1.6599,-0.93,-0.5007,-0.9087,-0.8473,-0.9752,-1.4262,-1.8735,-2.1053,-2.227,-2.309,-2.3747,-2.4207,-2.438,-2.4793,-2.5254,-2.6004,-2.6597,-2.6804,-2.6747,-2.6519,-2.6306,-2.4699,-2.294,-2.1431,-2.0413,-1.9646,-1.8823,-1.815,-1.7472,-1.6848,-1.629,-1.5315,-1.4279,-1.3049,-1.2134,-1.1557,-1.1311,-1.0969,-1.0305,-0.9757,-0.8814,-0.7842,-0.6444,-0.521,-0.4619,-0.3874,-0.3301,1.9786,2.0499,1.5528,1.339,1.3515,1.4242,1.0944,0.5151,0.3985,-0.0175,-0.7154,-0.9213,-1.1353,-1.45,-1.6906,-1.8709,-2.005,-2.1866,-2.2655,-2.3135,-2.4317,-2.5275,-2.5699,-2.6259,-2.6778,-2.7399,-2.8103,-2.8449,-2.892,-2.8984,-2.8927,-2.8813,-2.8547,-2.6863,-2.406,-1.7505,-1.5378,-0.935,-0.6383,-0.3999,-0.9591,-1.5071,-1.8796,-2.0541,-2.1843,-2.1628,-2.0064,-1.7245,-1.5727,-1.5163,-1.372,-1.2674,-1.4236,-1.5615,-1.7523,-1.9503,-1.9079,-1.9399,-2.001,-2.1205,-2.1891,-2.2808,-2.5828,-2.7065,-2.7415,-2.7295,-2.7614,-2.4212,-1.753,-1.2723,-1.6452,-1.4615,-1.5092,-1.8931,-2.2097,-2.3947,-2.4594,-2.5308,-2.6038,-2.6216,-2.5952,-2.6028,-2.6444,-2.6521,-2.7082,-2.6736,-2.6658,-2.5657,-2.5217,-2.3563,-2.1763,-1.9908,-1.8693,-1.8099,-1.7656,-1.7542,-1.7156,-1.7026,-1.6648,-1.6068,-1.4991,-1.3861,-1.2851,-1.1755,-1.0942,-1.0461,-0.9818,-0.8934,-0.7934,-0.6887,-0.5849,-0.4964,-0.4281,-0.3935,-0.3543,1.71,2.4947,2.0032,2.0978,2.484,2.455,2.1297,1.5676,1.433,1.104,0.2979,0.2312,-0.176,-0.7094,-1.368,-1.6964,-1.8258,-1.8589,-1.9459,-2.029,-2.1978,-2.3288,-2.4571,-2.542,-2.6063,-2.6727,-2.754,-2.8103,-2.8322,-2.8085,-2.7897,-2.7763,-2.6193,-2.2811,-1.6923,-1.1234,-0.3146,0.5921,0.5025,-0.1521,-1.0557,-1.7983,-2.1852,-2.3086,-2.265,-2.1192,-1.9076,-1.5983,-1.3226,-0.878,-0.5393,-0.5683,-0.8914,-0.9685,-1.4094,-1.7993,-1.9927,-1.9363,-2.0198,-2.1766,-2.3239,-2.4347,-2.679,-2.7938,-2.8361,-2.7909,-2.7666,-2.6546,-2.1595,-1.8983,-1.9347,-1.8599,-1.9352,-2.0988,-2.3375,-2.4749,-2.583,-2.6811,-2.7604,-2.784,-2.7462,-2.7381,-2.7545,-2.7479,-2.743,-2.6963,-2.6384,-2.5398,-2.412,-2.2553,-2.1312,-1.9617,-1.8257,-1.763,-1.7362,-1.7102,-1.6984,-1.7,-1.6927,-1.6632,-1.5539,-1.4339,-1.2979,-1.1943,-1.0914,-0.9603,-0.8563,-0.7686,-0.6939,-0.5939,-0.4842,-0.4333,-0.3916,-0.3756,-0.3718,1.3414,2.3317,2.2205,2.3193,2.5525,2.5551,2.2229,1.7705,1.6866,1.3505,0.8436,0.7053,0.4436,0.0212,-0.4105,-0.5715,-0.6546,-0.8299,-1.1122,-1.4462,-1.6132,-1.8627,-2.2432,-2.4122,-2.5048,-2.6085,-2.6835,-2.74,-2.761,-2.7723,-2.7513,-2.6145,-2.4627,-2.0368,-1.0284,-0.4374,0.2882,0.7387,0.5393,-0.1456,-0.9284,-1.6585,-2.1591,-2.2646,-2.1472,-1.9611,-1.7157,-1.5048,-0.9354,-0.4317,-0.1556,-0.4459,-0.7509,-0.9692,-1.3488,-1.9306,-2.2025,-2.2418,-2.2331,-2.3391,-2.4419,-2.5902,-2.7923,-2.9436,-2.9241,-2.7688,-2.6045,-2.4719,-2.1435,-1.9373,-1.922,-2.0123,-2.1375,-2.2745,-2.4365,-2.6122,-2.7399,-2.7967,-2.8684,-2.8856,-2.8876,-2.8425,-2.803,-2.7819,-2.7527,-2.7074,-2.6371,-2.5389,-2.3792,-2.1879,-2.081,-1.9816,-1.8591,-1.7543,-1.7422,-1.727,-1.7016,-1.7029,-1.7183,-1.6778,-1.5888,-1.4712,-1.3325,-1.1392,-0.9628,-0.8386,-0.7287,-0.6502,-0.5801,-0.4865,-0.3837,-0.3674,-0.3512,-0.3903,-0.4348,0.9845,1.869,2.1324,2.2629,2.3041,2.3366,2.1413,1.8069,1.845,1.6451,1.309,1.1344,0.9762,0.7836,0.5008,0.2504,0.3017,0.2528,-0.1042,-0.5112,-0.9229,-1.3478,-1.808,-2.1105,-2.4608,-2.5546,-2.6623,-2.7126,-2.7267,-2.6776,-2.5446,-2.2628,-1.976,-1.2984,-0.4092,0.3708,1.0456,1.1186,0.5341,-0.1844,-0.9174,-1.6593,-2.0033,-2.0973,-2.0155,-1.8319,-1.5709,-1.4805,-0.9319,-0.4278,-0.404,-0.6816,-0.9272,-1.1587,-1.5579,-2.0708,-2.3988,-2.5069,-2.4966,-2.5488,-2.6187,-2.7457,-2.8703,-2.9748,-2.9709,-2.7171,-2.3945,-2.227,-1.883,-1.7247,-1.7442,-1.9265,-2.1012,-2.3185,-2.5838,-2.7737,-2.9232,-2.9349,-2.9294,-2.9178,-2.9025,-2.854,-2.8189,-2.7975,-2.7616,-2.7175,-2.6363,-2.5322,-2.3463,-2.1337,-2.0405,-1.9547,-1.8557,-1.7598,-1.7492,-1.7378,-1.7122,-1.6927,-1.7125,-1.6833,-1.5919,-1.486,-1.3592,-1.1396,-0.8829,-0.7272,-0.6151,-0.546,-0.4683,-0.371,-0.3003,-0.3171,-0.3284,-0.3891,-0.5389,0.6736,1.1293,1.5998,1.8956,2.0582,2.0783,2.1299,2.1292,2.2392,2.2632,2.1313,1.846,1.5651,1.4004,1.0769,0.7727,0.5405,0.4592,0.4024,0.0605,-0.5123,-0.9322,-1.422,-1.9642,-2.4681,-2.5443,-2.6505,-2.7184,-2.6927,-2.5736,-2.0842,-1.437,-1.4057,-0.1376,0.8092,1.3332,1.5993,1.4462,0.7073,-0.2006,-0.9874,-1.7153,-2.1909,-2.1687,-2.0989,-1.9558,-1.7274,-1.6933,-1.422,-0.8243,-0.8327,-1.0074,-1.2492,-1.3735,-1.7668,-2.3231,-2.576,-2.6779,-2.7053,-2.7191,-2.7699,-2.8321,-2.883,-2.9097,-2.8623,-2.4893,-2.1828,-1.9563,-1.6557,-1.4993,-1.5317,-1.6683,-1.975,-2.256,-2.5456,-2.7952,-2.9289,-3.0069,-2.9948,-2.9613,-2.9013,-2.8269,-2.7508,-2.7093,-2.7305,-2.6886,-2.5499,-2.4418,-2.2765,-2.0863,-2.0032,-1.9168,-1.8282,-1.7695,-1.7616,-1.7289,-1.6642,-1.6566,-1.6708,-1.643,-1.5818,-1.4702,-1.3491,-1.1086,-0.8566,-0.6802,-0.4889,-0.3598,-0.2656,-0.2331,-0.2169,-0.25,-0.4187,-0.5757,-0.7533,0.4719,0.9048,1.2176,1.5231,1.8112,1.9126,2.0108,2.1118,2.2125,2.3388,2.4551,2.3193,2.2572,2.155,2.0701,1.868,1.7915,1.7537,1.4406,0.8762,0.2516,-0.4453,-1.0737,-1.7903,-2.4391,-2.5575,-2.6648,-2.719,-2.7034,-2.4235,-1.4584,-0.8954,-0.8953,-0.2222,0.7818,1.9699,2.2345,1.8655,0.9533,-0.0967,-0.5342,-1.6207,-2.2159,-2.1972,-2.1261,-2.0103,-1.8884,-1.9801,-1.6669,-1.356,-1.2246,-1.3936,-1.5801,-1.6293,-1.9937,-2.5775,-2.7502,-2.8179,-2.8207,-2.8362,-2.858,-2.8728,-2.8608,-2.7955,-2.6741,-2.2824,-1.9951,-1.7455,-1.5207,-1.3786,-1.4175,-1.6484,-1.9507,-2.1996,-2.4791,-2.7753,-2.9161,-2.9977,-2.9783,-2.9066,-2.8262,-2.7462,-2.6668,-2.5981,-2.636,-2.6533,-2.4973,-2.3393,-2.1673,-2.0407,-1.9515,-1.8554,-1.7628,-1.7099,-1.6981,-1.6514,-1.5979,-1.6116,-1.6253,-1.5766,-1.517,-1.4254,-1.2805,-1.0478,-0.7852,-0.5412,-0.3231,-0.1503,-0.0724,-0.0724,-0.1277,-0.1939,-0.4268,-0.7175,-0.9347,0.3405,0.7421,1.0049,1.2939,1.5912,1.7552,1.8796,1.9852,2.1158,2.2986,2.496,2.5775,2.6477,2.6804,2.6432,2.59,2.4967,2.4426,2.1886,1.6401,0.9427,0.1306,-0.7241,-1.5079,-2.1431,-2.4697,-2.6598,-2.7092,-2.6244,-2.1609,-1.3212,-0.679,-0.3499,0.3466,1.438,2.2302,2.7019,2.1393,1.2448,0.0904,-0.3095,-1.3221,-2.0539,-2.0967,-2.1123,-2.1678,-2.1731,-2.2636,-2.1761,-1.9035,-1.777,-1.8485,-1.9248,-2.0332,-2.2509,-2.6092,-2.8886,-2.9409,-2.9265,-2.8826,-2.9132,-2.9341,-2.7802,-2.6399,-2.413,-2.118,-1.8589,-1.6713,-1.4645,-1.3542,-1.4218,-1.7259,-2.0118,-2.2789,-2.5963,-2.8696,-2.9022,-2.9576,-2.9017,-2.8372,-2.7312,-2.5975,-2.5251,-2.4413,-2.4077,-2.4234,-2.3274,-2.179,-2.0391,-1.9351,-1.8829,-1.7879,-1.6883,-1.6447,-1.6109,-1.5637,-1.5205,-1.5285,-1.5309,-1.4863,-1.4269,-1.3229,-1.1624,-0.9085,-0.647,-0.372,-0.1899,-0.0446,0.0223,0.0614,-0.0555,-0.2101,-0.4896,-0.7835,-1.031,0.2712,0.6089,0.9828,1.2442,1.4272,1.6016,1.7552,1.8943,2.0639,2.2828,2.5142,2.5311,2.6144,2.7181,2.7288,2.7159,2.6886,2.6662,2.5455,2.2347,1.4943,0.7645,0.0125,-0.8166,-1.5409,-2.3499,-2.3309,-2.1835,-2.2979,-1.4705,-0.8342,-0.2722,0.4123,1.229,2.692,2.8165,2.518,1.8862,1.1719,0.2972,-0.4757,-1.2759,-1.7563,-2.0034,-2.1493,-2.2516,-2.4081,-2.4872,-2.4351,-2.3535,-2.2773,-2.3388,-2.4325,-2.3998,-2.56,-2.8466,-2.9853,-3.069,-3.1234,-2.9834,-2.9178,-2.8891,-2.6908,-2.4786,-2.288,-2.0236,-1.7738,-1.6097,-1.4751,-1.4678,-1.6215,-1.8495,-2.1012,-2.373,-2.6807,-2.8394,-2.8698,-2.8606,-2.8021,-2.7198,-2.5604,-2.4173,-2.351,-2.2789,-2.2001,-2.1595,-2.1053,-2.0122,-1.8939,-1.8377,-1.7944,-1.7029,-1.6068,-1.5852,-1.5432,-1.4765,-1.4448,-1.4542,-1.4355,-1.3936,-1.2872,-1.1513,-0.9675,-0.7512,-0.5097,-0.2496,-0.0946,0.039,0.0837,0.0949,-0.1108,-0.3078,-0.5854,-0.8323,-1.0586,0.0767,0.4435,0.7543,1.0037,1.2269,1.5243,1.6939,1.8011,2.0384,2.2737,2.46,2.5649,2.6971,2.7988,2.8581,2.8457,2.8086,2.7861,2.748,2.573,1.8401,1.3478,0.6936,0.0038,-0.6545,-0.8559,-0.9791,-1.1049,-0.8796,-0.4042,0.0865,0.6561,1.1686,1.8458,2.2292,2.3739,2.2908,1.8408,1.0314,0.1587,-0.3868,-1.1751,-1.7906,-2.0505,-2.2063,-2.3483,-2.5096,-2.5548,-2.5271,-2.4998,-2.4326,-2.3864,-2.4935,-2.471,-2.627,-2.8514,-2.9891,-3.1007,-3.0787,-2.9486,-2.7575,-2.6612,-2.517,-2.2775,-2.0546,-1.8532,-1.6898,-1.6057,-1.5418,-1.58,-1.7389,-1.9446,-2.1823,-2.4289,-2.6652,-2.7402,-2.7766,-2.7414,-2.6855,-2.5775,-2.4429,-2.3493,-2.2719,-2.2127,-2.1359,-2.0588,-2.0244,-1.8952,-1.7665,-1.7428,-1.7076,-1.6065,-1.5234,-1.511,-1.478,-1.4317,-1.4085,-1.4229,-1.3715,-1.2997,-1.1688,-1.0156,-0.811,-0.6168,-0.3711,-0.1328,-0.0167,0.0838,0.1342,0.0948,-0.0665,-0.2631,-0.4969,-0.768,-1.0545,-0.0986,0.2628,0.5558,0.7975,1.0393,1.4057,1.6491,1.8296,2.0962,2.3093,2.4736,2.6023,2.7407,2.8583,2.914,2.9508,2.9024,2.8674,2.8279,2.6958,2.207,1.7319,1.255,0.7971,0.2497,0.1555,-0.0175,-0.13,-0.3875,0.3989,0.9774,1.459,1.9027,1.9324,2.0119,2.0433,2.042,1.5811,0.8411,0.137,-0.4308,-1.0924,-1.7731,-2.064,-2.2305,-2.2965,-2.4038,-2.417,-2.3512,-2.3159,-2.2425,-2.1734,-2.3169,-2.4499,-2.603,-2.8284,-3.012,-3.0697,-2.9664,-2.7403,-2.5073,-2.2751,-2.1954,-2.0423,-1.8513,-1.7173,-1.63,-1.5744,-1.5992,-1.7058,-1.8426,-2.0381,-2.2614,-2.5108,-2.5863,-2.6599,-2.628,-2.5905,-2.508,-2.4116,-2.3184,-2.2432,-2.2298,-2.1546,-2.0952,-2.018,-1.9506,-1.803,-1.6654,-1.6472,-1.6218,-1.5276,-1.467,-1.4617,-1.4389,-1.398,-1.3869,-1.3926,-1.3274,-1.252,-1.0804,-0.9256,-0.7041,-0.4804,-0.2478,-0.0556,0.0447,0.129,0.1681,0.1566,0.0724,-0.1422,-0.3928,-0.6895,-0.991,-0.2549,0.0765,0.4042,0.6399,0.8637,1.2798,1.6592,1.9931,2.1906,2.3844,2.5688,2.5542,2.7037,2.8925,2.8695,2.8831,2.9284,2.8913,2.8586,2.8045,2.5631,2.151,1.831,1.5,1.1616,0.6407,0.4527,0.6089,-0.0928,0.7825,1.6266,1.9332,1.9523,1.8295,1.7264,1.6429,1.5913,1.1898,0.6636,0.0056,-0.5628,-1.1207,-1.705,-2.0262,-2.1751,-2.2157,-2.2784,-2.281,-2.1866,-2.1227,-2.0564,-2.123,-2.2236,-2.3435,-2.6098,-2.8592,-3.0523,-2.981,-2.7703,-2.5134,-2.1793,-1.9355,-1.8662,-1.7352,-1.658,-1.6017,-1.5876,-1.6215,-1.6798,-1.7982,-1.9355,-2.1431,-2.3508,-2.4603,-2.5246,-2.5218,-2.4669,-2.4004,-2.3118,-2.2177,-2.1315,-2.1026,-2.211,-2.1756,-2.1522,-2.0181,-1.929,-1.7673,-1.6429,-1.5682,-1.5323,-1.4667,-1.428,-1.4269,-1.399,-1.3765,-1.3696,-1.3753,-1.3141,-1.2271,-1.0398,-0.8657,-0.6727,-0.4553,-0.1668,0.0112,0.0784,0.1401,0.2018,0.1733,0.1449,-0.0385,-0.2973,-0.5942,-0.8934,-0.4892,-0.2355,0.0674,0.3517,0.6719,1.2677,1.6776,1.9205,2.1475,2.3482,2.4976,2.5666,2.7126,2.9094,2.9063,2.931,2.9425,2.94,2.9255,2.8772,2.8187,2.6589,2.4962,2.307,2.1372,2.0244,1.8694,1.6778,1.6867,2.0406,1.8711,2.0301,1.8552,1.5765,1.3416,1.1429,1.0091,0.7636,0.2863,-0.2138,-0.7338,-1.2845,-1.74,-1.9878,-2.1494,-2.1851,-2.1955,-2.1801,-2.087,-1.9803,-1.9971,-2.0778,-2.2323,-2.3804,-2.606,-2.8761,-2.986,-2.9551,-2.6182,-2.31,-1.9877,-1.6799,-1.5891,-1.5195,-1.4714,-1.5059,-1.5628,-1.659,-1.7901,-1.9217,-2.0517,-2.2426,-2.3936,-2.4657,-2.482,-2.4025,-2.3469,-2.2571,-2.1741,-2.1543,-2.0623,-2.178,-2.2727,-2.3238,-2.2781,-2.0925,-1.916,-1.7517,-1.612,-1.5376,-1.4648,-1.4067,-1.387,-1.3892,-1.3902,-1.3717,-1.3636,-1.3501,-1.2919,-1.2251,-1.0911,-0.9075,-0.6832,-0.433,-0.1512,-0.0056,0.0727,0.1343,0.1794,0.2295,0.2008,0.011,-0.2061,-0.5251,-0.8171,-0.6789,-0.4544,-0.2201,0.1555,0.6643,1.2377,1.6198,1.8601,2.1483,2.3468,2.4608,2.5656,2.7001,2.8352,2.8791,2.9251,2.9816,2.9761,2.9712,2.9715,2.9212,2.901,2.8984,2.875,2.7711,2.8378,2.8153,2.5663,2.6673,2.4969,2.3071,2.0519,1.7301,1.4264,1.1604,0.8972,0.5946,0.3136,-0.0706,-0.5168,-0.9691,-1.423,-1.7285,-1.9772,-2.1201,-2.1348,-2.0857,-2.0366,-1.9394,-1.852,-1.8854,-2.0694,-2.2774,-2.504,-2.6249,-2.8414,-2.7989,-2.6557,-2.3587,-2.097,-1.7964,-1.5589,-1.4203,-1.4063,-1.4543,-1.5209,-1.6125,-1.7204,-1.8992,-2.0618,-2.1892,-2.32,-2.4058,-2.4917,-2.4,-2.3028,-2.2122,-2.1209,-2.102,-2.1009,-2.1699,-2.298,-2.3822,-2.4372,-2.3897,-2.1879,-1.9733,-1.7811,-1.6171,-1.4854,-1.4241,-1.3629,-1.3565,-1.3575,-1.354,-1.3602,-1.3573,-1.3383,-1.3028,-1.222,-1.1134,-0.9189,-0.6702,-0.4062,-0.1403,-0.0336,0.0391,0.0952,0.1458,0.1846,0.1502,-0.055,-0.2708,-0.5034,-0.7812,-0.8093,-0.602,-0.4386,0.0692,0.7477,1.1546,1.4894,1.8036,2.1123,2.3435,2.4444,2.5525,2.656,2.7772,2.8443,2.9064,2.9578,2.9794,2.9948,3.0424,3.0129,3.0105,3.0179,3.024,2.974,2.978,2.9509,2.8769,2.8335,2.6513,2.3872,2.1218,1.8491,1.5566,1.2416,0.8851,0.5396,0.111,-0.2492,-0.6538,-1.0767,-1.4562,-1.7519,-1.9554,-2.0208,-2.0177,-1.8823,-1.7906,-1.714,-1.7297,-1.8574,-2.0885,-2.3794,-2.6366,-2.7375,-2.68,-2.6101,-2.402,-2.1603,-1.9077,-1.6956,-1.4983,-1.3695,-1.4545,-1.5508,-1.5962,-1.689,-1.8545,-2.0364,-2.1699,-2.2986,-2.3774,-2.4584,-2.4577,-2.3891,-2.3213,-2.259,-2.1826,-2.1381,-2.1608,-2.2475,-2.3703,-2.4369,-2.4762,-2.3743,-2.212,-1.9979,-1.7809,-1.6174,-1.4577,-1.37,-1.3128,-1.2983,-1.3001,-1.3173,-1.3237,-1.3408,-1.3271,-1.2953,-1.2584,-1.1772,-0.9382,-0.6477,-0.4146,-0.1982,-0.0842,-0.0056,0.0224,0.0447,0.0725,0.0055,-0.165,-0.3624,-0.5731,-0.7789,-0.8633,-0.7495,-0.4101,0.0698,0.5961,0.9037,1.278,1.6737,1.8877,2.1349,2.3747,2.4883,2.6159,2.7511,2.8324,2.8917,2.9199,2.9704,2.9826,3.0008,3.0124,3.0432,3.0554,3.0525,3.0457,3.0211,2.9819,2.942,2.8824,2.7072,2.5066,2.2901,2.0228,1.7376,1.4198,1.0525,0.6295,0.097,-0.3203,-0.7169,-1.1493,-1.5276,-1.8507,-2.0018,-2.079,-2.015,-1.9387,-1.9399,-1.8299,-1.7715,-2.0413,-2.2874,-2.5384,-2.6941,-2.6651,-2.5308,-2.4122,-2.2294,-2.0285,-1.8189,-1.6586,-1.6081,-1.573,-1.6663,-1.7233,-1.7263,-1.8154,-2.0025,-2.1562,-2.285,-2.3837,-2.4423,-2.4851,-2.4399,-2.3949,-2.3619,-2.3181,-2.2609,-2.2007,-2.258,-2.3386,-2.393,-2.4617,-2.4251,-2.3301,-2.1509,-1.9147,-1.7106,-1.5703,-1.4211,-1.3138,-1.2515,-1.2243,-1.2323,-1.2542,-1.2734,-1.289,-1.3107,-1.2941,-1.2619,-1.2251,-0.9527,-0.6694,-0.4742,-0.2857,-0.1759,-0.107,-0.117,-0.0945,-0.0666,-0.1543,-0.3289,-0.4984,-0.6993,-0.8666,-0.8685,-0.7931,-0.4493,-0.0402,0.3648,0.6899,1.0684,1.4382,1.6267,1.8657,2.1728,2.3787,2.5637,2.7087,2.7957,2.8685,2.8927,2.9472,2.9761,2.9892,3.0104,3.0433,3.0595,3.0632,3.0438,3.0229,3.0193,2.9854,2.946,2.8229,2.6465,2.4558,2.2116,1.9436,1.6287,1.2776,0.8126,0.214,-0.2435,-0.7098,-1.1725,-1.598,-1.905,-2.0634,-2.1371,-2.0664,-1.9382,-1.943,-1.901,-1.9596,-2.2363,-2.4001,-2.5501,-2.6012,-2.5223,-2.3746,-2.2437,-2.1354,-1.9582,-1.8238,-1.7296,-1.7385,-1.8061,-1.906,-2.01,-2.0269,-2.0907,-2.2578,-2.3009,-2.4136,-2.4607,-2.5182,-2.5452,-2.5329,-2.492,-2.4572,-2.4053,-2.3424,-2.3139,-2.3325,-2.3486,-2.2963,-2.3311,-2.2803,-2.1778,-2.0264,-1.7952,-1.6499,-1.5138,-1.3969,-1.2835,-1.2114,-1.1943,-1.1769,-1.1894,-1.2101,-1.2311,-1.2476,-1.2793,-1.1974,-1.116,-0.9175,-0.6986,-0.5139,-0.3627,-0.2595,-0.2113,-0.2302,-0.2613,-0.255,-0.3634,-0.5037,-0.6665,-0.8323,-1.0105,-0.8676,-0.7862,-0.5203,-0.2026,0.141,0.4942,0.8607,1.199,1.3749,1.5853,1.8482,2.1969,2.4335,2.6059,2.7255,2.8093,2.887,2.9559,2.9849,2.9897,3.0361,3.052,3.0554,3.0539,3.0498,3.0481,3.0469,3.0665,3.0716,2.9377,2.7898,2.6267,2.4037,2.156,1.8609,1.4629,0.9732,0.4049,-0.1162,-0.6531,-1.1695,-1.6733,-1.9175,-2.106,-2.2071,-2.1527,-1.9417,-1.8469,-1.8851,-2.0514,-2.2894,-2.4346,-2.4942,-2.4934,-2.3992,-2.2741,-2.1906,-2.0928,-1.9797,-1.9302,-1.9141,-1.9464,-2.0446,-2.1461,-2.2503,-2.3217,-2.3872,-2.4147,-2.4552,-2.4868,-2.5341,-2.5545,-2.5819,-2.6301,-2.6004,-2.5537,-2.4946,-2.4088,-2.3816,-2.3726,-2.2717,-2.2061,-2.1346,-2.0917,-1.9976,-1.8466,-1.7248,-1.5912,-1.4664,-1.3704,-1.27,-1.222,-1.1952,-1.1802,-1.1549,-1.1653,-1.1871,-1.2153,-1.2266,-1.1305,-1.0169,-0.8781,-0.736,-0.5781,-0.44,-0.3355,-0.322,-0.3442,-0.3806,-0.427,-0.5898,-0.7206,-0.8146,-0.9858,-1.167,-0.8666,-0.754,-0.6108,-0.3354,0.0288,0.3162,0.6606,1.0234,1.2505,1.4302,1.5967,1.8094,2.1067,2.5146,2.6851,2.7661,2.7739,2.8941,2.9393,2.9365,2.9951,3.0339,3.055,3.0491,3.0771,3.083,3.0876,3.118,3.1373,3.045,2.9371,2.8152,2.6946,2.4689,2.2284,1.7274,1.0624,0.5258,-0.1161,-0.7218,-1.2301,-1.6478,-1.9013,-2.0531,-2.1387,-2.0351,-1.9173,-1.8864,-1.859,-1.951,-2.1847,-2.3552,-2.4106,-2.4079,-2.342,-2.2803,-2.191,-2.1581,-2.0939,-2.0593,-2.0578,-2.1651,-2.265,-2.3609,-2.4474,-2.514,-2.5467,-2.522,-2.5542,-2.5715,-2.5975,-2.5688,-2.5869,-2.6928,-2.7184,-2.6601,-2.6051,-2.4368,-2.3155,-2.2032,-2.0593,-1.9665,-1.8652,-1.8258,-1.7865,-1.6656,-1.6009,-1.4816,-1.466,-1.3648,-1.2667,-1.2405,-1.2135,-1.1718,-1.1515,-1.1445,-1.1657,-1.1922,-1.1965,-1.1261,-1.0275,-0.9013,-0.758,-0.623,-0.515,-0.4111,-0.4195,-0.4592,-0.5256,-0.5998,-0.8069,-0.9495,-1.0213,-1.1124,-1.2749]}]]